[[{"header":{"parameterUnit":"m.s-1","parameterCategory":1,"la1":30.6,"la2":28.766,"lo1":-90.7593,"lo2":-88.6598,"dy":0.0162,"dx":0.0183,"nx":116,"ny":114,"refTime":"2023-03-07T06:00:00:Z","depth":0,"parameterNumber":2,"parameterNumberName":"U-component_of_WINDS"},"data":[0.0,0.0,0.0,0.0,0.0,0.0,0.0,0.0,0.0,0.0,0.0,0.0,0.0,0.0,0.0,0.0,0.0,0.0,0.0,0.0,0.0,0.0,0.0,0.0,0.0,0.0,0.0,0.0,0.0,0.0,0.0,0.0,0.0,0.0,0.0,0.0,0.0,0.0,0.0,0.0,0.0,0.0,0.0,0.0,0.0,0.0,0.0,0.0,0.0,0.0,0.0,0.0,0.0,0.0,0.0,0.0,0.0,0.0,0.0,0.0,0.0,0.0,0.0,0.0,0.0,0.0,0.0,0.0,0.0,0.0,0.0,0.0,0.0,0.0,0.0,0.0,0.0,0.0,0.0,0.0,0.0,0.0,0.0,0.0,0.0,0.0,0.0,0.0,0.0,0.0,0.0,0.0,0.0,0.0,0.0,0.0,0.0,0.0,0.0,0.0,0.0,0.0,0.0,0.0,0.0,0.0,0.0,0.0,0.0,0.0,0.0,0.0,0.0,0.0,0.0,0.0,0.0,0.0,0.0,0.0,0.0,0.0,0.0,0.0,0.0,0.0,0.0,0.0,0.0,0.0,0.0,0.0,0.0,0.0,0.0,0.0,0.0,0.0,0.0,0.0,0.0,0.0,0.0,0.0,0.0,0.0,0.0,0.0,0.0,0.0,0.0,0.0,0.0,0.0,0.0,0.0,0.0,0.0,0.0,0.0,0.0,0.0,0.0,0.0,0.0,0.0,0.0,0.0,0.0,0.0,0.0,0.0,0.0,0.0,0.0,0.0,0.0,0.0,0.0,0.0,0.0,0.0,0.0,0.0,0.0,0.0,0.0,0.0,0.0,0.0,0.0,0.0,0.0,0.0,0.0,0.0,0.0,0.0,0.0,0.0,0.0,0.0,0.0,0.0,0.0,0.0,0.0,0.0,0.0,0.0,0.0,0.0,0.0,0.0,0.0,0.0,0.0,0.0,0.0,0.0,0.0,0.0,0.0,0.0,0.0,0.0,0.0,0.0,0.0,0.0,0.0,0.0,0.0,0.0,0.0,0.0,0.0,0.0,0.0,0.0,0.0,0.0,0.0,0.0,0.0,0.0,0.0,0.0,0.0,0.0,0.0,0.0,0.0,0.0,0.0,0.0,0.0,0.0,0.0,0.0,0.0,0.0,0.0,0.0,0.0,0.0,0.0,0.0,0.0,0.0,0.0,0.0,0.0,0.0,0.0,0.0,0.0,0.0,0.0,0.0,0.0,0.0,0.0,0.0,0.0,0.0,0.0,0.0,0.0,0.0,0.0,0.0,0.0,0.0,0.0,0.0,0.0,0.0,0.0,0.0,0.0,0.0,0.0,0.0,0.0,0.0,0.0,0.0,0.0,0.0,0.0,0.0,0.0,0.0,0.0,0.0,0.0,0.0,0.0,0.0,0.0,0.0,0.0,0.0,0.0,0.0,0.0,0.0,0.0,0.0,0.0,0.0,0.0,0.0,0.0,0.0,0.0,0.0,0.0,0.0,0.0,0.0,0.0,0.0,0.0,0.0,0.0,0.0,0.0,0.0,0.0,0.0,0.0,0.0,0.0,0.0,0.0,0.0,0.0,0.0,0.0,0.0,0.0,0.0,0.0,0.0,0.0,0.0,0.0,0.0,0.0,0.0,0.0,0.0,0.0,0.0,0.0,0.0,0.0,0.0,0.0,0.0,0.0,0.0,0.0,0.0,0.0,0.0,0.0,0.0,0.0,0.0,0.0,0.0,0.0,0.0,0.0,0.0,0.0,0.0,0.0,0.0,0.0,0.0,0.0,0.0,0.0,0.0,0.0,0.0,0.0,0.0,0.0,0.0,0.0,0.0,0.0,0.0,0.0,0.0,0.0,0.0,0.0,0.0,0.0,0.0,0.0,0.0,0.0,0.0,0.0,0.0,0.0,0.0,0.0,0.0,0.0,0.0,0.0,0.0,0.0,0.0,0.0,0.0,0.0,0.0,0.0,0.0,0.0,0.0,0.0,0.0,0.0,0.0,0.0,0.0,0.0,0.0,0.0,0.0,0.0,0.0,0.0,0.0,0.0,0.0,0.0,0.0,0.0,0.0,0.0,0.0,0.0,0.0,0.0,0.0,0.0,0.0,0.0,0.0,0.0,0.0,0.0,0.0,0.0,0.0,0.0,0.0,0.0,0.0,0.0,0.0,0.0,0.0,0.0,0.0,0.0,0.0,0.0,0.0,0.0,0.0,0.0,0.0,0.0,0.0,0.0,0.0,0.0,0.0,0.0,0.0,0.0,0.0,0.0,0.0,0.0,0.0,0.0,0.0,0.0,0.0,0.0,0.0,0.0,0.0,0.0,0.0,0.0,0.0,0.0,0.0,0.0,0.0,0.0,0.0,0.0,0.0,0.0,0.0,0.0,0.0,0.0,0.0,0.0,0.0,0.0,0.0,0.0,0.0,0.0,0.0,0.0,0.0,0.0,0.0,0.0,0.0,0.0,0.0,0.0,0.0,0.0,0.0,0.0,0.0,0.0,0.0,0.0,0.0,0.0,0.0,0.0,0.0,0.0,0.0,0.0,0.0,0.0,0.0,0.0,0.0,0.0,0.0,0.0,0.0,0.0,0.0,0.0,0.0,0.0,0.0,0.0,0.0,0.0,0.0,0.0,0.0,0.0,0.0,0.0,0.0,0.0,0.0,0.0,0.0,0.0,0.0,0.0,0.0,0.0,0.0,0.0,0.0,0.0,0.0,0.0,0.0,0.0,0.0,0.0,0.0,0.0,0.0,0.0,0.0,0.0,0.0,0.0,0.0,0.0,0.0,0.0,0.0,0.0,0.0,0.0,0.0,0.0,0.0,0.0,0.0,0.0,0.0,0.0,0.0,0.0,0.0,0.0,0.0,0.0,0.0,0.0,0.0,0.0,0.0,0.0,0.0,0.0,0.0,0.0,0.0,0.0,0.0,0.0,0.0,0.0,0.0,0.0,0.0,0.0,0.0,0.0,0.0,0.0,0.0,0.0,0.0,0.0,0.0,0.0,0.0,0.0,0.0,0.0,0.0,0.0,0.0,0.0,0.0,0.0,0.0,0.0,0.0,0.0,0.0,0.0,0.0,0.0,0.0,0.0,0.0,0.0,0.0,0.0,0.0,0.0,0.0,0.0,0.0,0.0,0.0,0.0,0.0,0.0,0.0,0.0,0.0,0.0,0.0,0.0,0.0,0.0,0.0,0.0,0.0,0.0,0.0,0.0,0.0,0.0,0.0,0.0,0.0,0.0,0.0,0.0,0.0,0.0,0.0,0.0,0.0,0.0,0.0,0.0,0.0,0.0,0.0,0.0,0.0,0.0,0.0,0.0,0.0,0.0,0.0,0.0,0.0,0.0,0.0,0.0,0.0,0.0,0.0,0.0,0.0,0.0,0.0,0.0,0.0,0.0,0.0,0.0,0.0,0.0,0.0,0.0,0.0,0.0,0.0,0.0,0.0,0.0,0.0,0.0,0.0,0.0,0.0,0.0,0.0,0.0,0.0,0.0,0.0,0.0,0.0,0.0,0.0,0.0,0.0,0.0,0.0,0.0,0.0,0.0,0.0,0.0,0.0,0.0,0.0,0.0,0.0,0.0,0.0,0.0,0.0,0.0,0.0,0.0,0.0,0.0,0.0,0.0,0.0,0.0,0.0,0.0,0.0,0.0,0.0,0.0,0.0,0.0,0.0,0.0,0.0,0.0,0.0,0.0,0.0,0.0,0.0,0.0,0.0,0.0,0.0,0.0,0.0,0.0,0.0,0.0,0.0,0.0,0.0,0.0,0.0,0.0,0.0,0.0,0.0,0.0,0.0,0.0,0.0,0.0,0.0,0.0,0.0,0.0,0.0,0.0,0.0,0.0,0.0,0.0,0.0,0.0,0.0,0.0,0.0,0.0,0.0,0.0,0.0,0.0,0.0,0.0,0.0,0.0,0.0,0.0,0.0,0.0,0.0,0.0,0.0,0.0,0.0,0.0,0.0,0.0,0.0,0.0,0.0,0.0,0.0,0.0,0.0,0.0,0.0,0.0,0.0,0.0,0.0,0.0,0.0,0.0,0.0,0.0,0.0,0.0,0.0,0.0,0.0,0.0,0.0,0.0,0.0,0.0,0.0,0.0,0.0,0.0,0.0,0.0,0.0,0.0,0.0,0.0,0.0,0.0,0.0,0.0,0.0,0.0,0.0,0.0,0.0,0.0,0.0,0.0,0.0,0.0,0.0,0.0,0.0,0.0,0.0,0.0,0.0,0.0,0.0,0.0,0.0,0.0,0.0,0.0,0.0,0.0,0.0,0.0,0.0,0.0,0.0,0.0,0.0,0.0,0.0,0.0,0.0,0.0,0.0,0.0,0.0,0.0,0.0,0.0,0.0,0.0,0.0,0.0,0.0,0.0,0.0,0.0,0.0,0.0,0.0,0.0,0.0,0.0,0.0,0.0,0.0,0.0,0.0,0.0,0.0,0.0,0.0,0.0,0.0,0.0,0.0,0.0,0.0,0.0,0.0,0.0,0.0,0.0,0.0,0.0,0.0,0.0,0.0,0.0,0.0,0.0,0.0,0.0,0.0,0.0,0.0,0.0,0.0,0.0,0.0,0.0,0.0,0.0,0.0,0.0,0.0,0.0,0.0,0.0,0.0,0.0,0.0,0.0,0.0,0.0,0.0,0.0,0.0,0.0,0.0,0.0,0.0,0.0,0.0,0.0,0.0,0.0,0.0,0.0,0.0,0.0,0.0,0.0,0.0,0.0,0.0,0.0,0.0,0.0,0.0,0.0,0.0,0.0,0.0,0.0,0.0,0.0,0.0,0.0,0.0,0.0,0.0,0.0,0.0,0.0,0.0,0.0,0.0,0.0,0.0,0.0,0.0,0.0,0.0,0.0,0.0,0.0,0.0,0.0,0.0,0.0,0.0,0.0,0.0,0.0,0.0,0.0,0.0,0.0,0.0,0.0,0.0,0.0,0.0,0.0,0.0,0.0,0.0,0.0,0.0,0.0,0.0,0.0,0.0,0.0,0.0,0.0,0.0,0.0,0.0,0.0,0.0,0.0,0.0,0.0,0.0,0.0,0.0,0.0,0.0,0.0,0.0,0.0,0.0,0.0,0.0,0.0,0.0,0.0,0.0,0.0,0.0,0.0,0.0,0.0,0.0,0.0,0.0,0.0,0.0,0.0,0.0,0.0,0.0,0.0,0.0,0.0,0.0,0.0,0.0,0.0,0.0,0.0,0.0,0.0,0.0,0.0,0.0,0.0,0.0,0.0,0.0,0.0,0.0,0.0,0.0,0.0,0.0,0.0,0.0,0.0,0.0,0.0,0.0,0.0,0.0,0.0,0.0,0.0,0.0,0.0,0.0,0.0,0.0,0.0,0.0,0.0,0.0,0.0,0.0,0.0,0.0,0.0,0.0,0.0,0.0,0.0,0.0,0.0,0.0,0.0,0.0,0.0,0.0,0.0,0.0,0.0,0.0,0.0,0.0,0.0,0.0,0.0,0.0,0.0,0.0,0.0,0.0,0.0,0.0,0.0,0.0,0.0,0.0,0.0,0.0,0.0,0.0,0.0,0.0,0.0,0.0,0.0,0.0,0.0,0.0,0.0,0.0,0.0,0.0,0.0,0.0,0.0,0.0,0.0,0.0,0.0,0.0,0.0,0.0,0.0,0.0,0.0,0.0,0.0,0.0,0.0,0.0,0.0,0.0,0.0,0.0,0.0,0.0,0.0,0.0,0.0,0.0,0.0,0.0,0.0,0.0,0.0,0.0,0.0,0.0,0.0,0.0,0.0,0.0,0.0,0.0,0.0,0.0,0.0,0.0,0.0,0.0,0.0,0.0,0.0,0.0,0.0,0.0,0.0,0.0,0.0,0.0,0.0,0.0,0.0,0.0,0.0,0.0,0.0,0.0,0.0,0.0,0.0,0.0,0.0,0.0,0.0,0.0,0.0,0.0,0.0,0.0,0.0,0.0,0.0,0.0,0.0,0.0,0.0,0.0,0.0,0.0,0.0,0.0,0.0,0.0,0.0,0.0,0.0,0.0,0.0,0.0,0.0,0.0,0.0,0.0,0.0,0.0,0.0,0.0,0.0,0.0,0.0,0.0,0.0,0.0,-5.2697,-5.2509,0.0,0.0,0.0,0.0,0.0,0.0,0.0,0.0,0.0,0.0,0.0,0.0,0.0,0.0,0.0,0.0,0.0,0.0,0.0,0.0,0.0,0.0,0.0,0.0,0.0,0.0,0.0,0.0,0.0,0.0,0.0,0.0,0.0,0.0,0.0,0.0,0.0,0.0,0.0,0.0,0.0,0.0,0.0,0.0,0.0,0.0,0.0,0.0,0.0,0.0,0.0,0.0,0.0,0.0,0.0,0.0,0.0,0.0,0.0,0.0,0.0,0.0,0.0,0.0,0.0,0.0,0.0,0.0,0.0,0.0,0.0,0.0,0.0,0.0,0.0,0.0,0.0,0.0,0.0,0.0,0.0,0.0,0.0,0.0,0.0,0.0,0.0,0.0,0.0,0.0,0.0,0.0,0.0,0.0,0.0,0.0,0.0,0.0,0.0,0.0,0.0,0.0,0.0,0.0,0.0,0.0,0.0,0.0,0.0,0.0,0.0,0.0,0.0,0.0,-5.3435,-5.3166,0.0,0.0,0.0,0.0,0.0,0.0,0.0,0.0,0.0,0.0,0.0,0.0,0.0,0.0,0.0,0.0,0.0,0.0,0.0,0.0,0.0,0.0,0.0,0.0,0.0,0.0,0.0,0.0,0.0,0.0,0.0,0.0,0.0,0.0,0.0,0.0,0.0,0.0,0.0,0.0,0.0,0.0,0.0,0.0,0.0,0.0,0.0,0.0,0.0,0.0,0.0,0.0,0.0,0.0,0.0,0.0,0.0,0.0,0.0,0.0,0.0,0.0,0.0,0.0,0.0,0.0,0.0,0.0,0.0,0.0,0.0,0.0,0.0,0.0,0.0,0.0,0.0,0.0,0.0,0.0,0.0,0.0,0.0,0.0,0.0,0.0,0.0,0.0,0.0,0.0,0.0,0.0,0.0,0.0,0.0,0.0,0.0,0.0,0.0,0.0,0.0,0.0,0.0,0.0,0.0,0.0,0.0,0.0,-5.4374,-5.4427,-5.4369,-5.5113,-5.5079,-5.4393,-5.3929,-5.3679,-5.3549,-5.3866,0.0,0.0,0.0,0.0,0.0,0.0,0.0,0.0,0.0,0.0,0.0,0.0,0.0,0.0,0.0,0.0,0.0,0.0,0.0,0.0,0.0,0.0,0.0,0.0,0.0,0.0,0.0,0.0,0.0,0.0,0.0,0.0,0.0,0.0,0.0,0.0,0.0,0.0,-4.7811,-4.8537,-4.9159,-4.9689,-5.0523,0.0,0.0,0.0,0.0,0.0,0.0,0.0,0.0,0.0,0.0,0.0,0.0,0.0,0.0,0.0,0.0,0.0,0.0,0.0,0.0,0.0,0.0,0.0,0.0,0.0,0.0,0.0,0.0,0.0,0.0,0.0,0.0,0.0,0.0,0.0,0.0,0.0,0.0,0.0,0.0,0.0,0.0,0.0,-5.1683,-5.1045,0.0,0.0,0.0,0.0,0.0,0.0,0.0,0.0,0.0,0.0,0.0,0.0,0.0,-5.5276,-5.5339,-5.5367,-5.5176,-5.4713,-5.5869,-5.6192,-5.5763,-5.649,-5.6523,-5.5972,-5.5395,0.0,-5.4087,-5.4023,0.0,0.0,0.0,0.0,0.0,0.0,0.0,0.0,0.0,0.0,0.0,0.0,0.0,0.0,0.0,0.0,0.0,0.0,0.0,0.0,0.0,0.0,0.0,0.0,0.0,0.0,0.0,0.0,0.0,0.0,0.0,0.0,0.0,0.0,0.0,0.0,-4.7019,-4.7767,-4.9013,-4.978,-5.0569,-5.1348,-5.2135,-5.1843,-5.0693,-5.027,0.0,0.0,0.0,0.0,0.0,0.0,0.0,0.0,0.0,0.0,0.0,0.0,0.0,0.0,0.0,0.0,0.0,0.0,0.0,0.0,0.0,0.0,0.0,0.0,0.0,0.0,0.0,0.0,0.0,0.0,0.0,0.0,0.0,0.0,0.0,0.0,0.0,0.0,0.0,-5.1072,-5.1321,-5.058,-5.1324,-5.1819,0.0,0.0,0.0,0.0,0.0,0.0,0.0,0.0,0.0,-5.506,-5.5849,-5.6271,-5.6271,-5.6712,-5.6823,-5.6596,-5.7189,-5.7349,-5.7125,-5.7448,-5.7474,-5.7209,-5.6607,-5.5962,-5.5317,-5.4585,-5.4385,-5.448,0.0,0.0,0.0,0.0,-5.3783,-5.3517,0.0,0.0,0.0,0.0,0.0,0.0,0.0,0.0,0.0,0.0,0.0,0.0,0.0,0.0,0.0,-4.3801,0.0,0.0,0.0,0.0,0.0,0.0,0.0,0.0,0.0,0.0,0.0,-4.7604,-4.7773,-4.8544,-4.9908,-5.0729,-5.1533,-5.2343,-5.3127,-5.2756,-5.1454,-5.0896,-5.0541,0.0,0.0,0.0,0.0,0.0,0.0,0.0,0.0,0.0,0.0,0.0,0.0,0.0,0.0,0.0,0.0,0.0,0.0,0.0,0.0,0.0,0.0,0.0,0.0,0.0,0.0,0.0,0.0,0.0,0.0,0.0,0.0,0.0,0.0,0.0,0.0,0.0,0.0,-5.1097,-5.1356,-5.039,-5.1535,-5.2263,0.0,0.0,0.0,0.0,0.0,0.0,-5.4711,-5.5464,-5.5904,-5.5904,-5.6693,-5.7116,-5.7116,-5.7703,-5.7997,-5.7997,-5.7997,-5.7997,-5.7997,-5.7997,-5.7909,-5.775,-5.7141,-5.6581,-5.5999,-5.5091,-5.4652,-5.4512,-5.4512,-5.4512,-5.448,-5.4207,-5.4078,-5.3948,0.0,0.0,0.0,0.0,0.0,0.0,0.0,0.0,0.0,0.0,0.0,0.0,0.0,0.0,-4.4926,-4.4926,-4.5578,-4.5688,0.0,0.0,0.0,0.0,0.0,0.0,0.0,0.0,0.0,-4.7604,-4.825,-4.901,-4.9908,-5.0729,-5.1533,-5.2343,-5.3127,-5.3044,-5.2249,-5.2215,-5.1792,-5.1099,0.0,0.0,0.0,0.0,0.0,0.0,0.0,0.0,0.0,0.0,0.0,0.0,0.0,0.0,0.0,0.0,0.0,0.0,0.0,0.0,0.0,0.0,0.0,0.0,0.0,0.0,0.0,0.0,0.0,0.0,0.0,0.0,0.0,0.0,0.0,0.0,0.0,0.0,0.0,-5.1235,-5.2624,0.0,0.0,0.0,0.0,-5.5409,-5.5522,-5.5559,-5.5559,-5.6308,-5.6748,-5.6748,-5.7519,-5.7941,-5.7941,-5.7978,-5.7997,-5.7997,-5.7997,-5.7997,-5.7997,-5.7997,-5.7684,-5.7116,-5.6554,-5.5999,-5.5443,-5.5385,-5.5,-5.4512,-5.4512,-5.4512,-5.4512,-5.448,-5.4271,-5.398,0.0,0.0,0.0,0.0,0.0,0.0,0.0,0.0,0.0,0.0,0.0,0.0,0.0,-4.4872,-4.5848,-4.5848,-4.6826,-4.721,-4.6539,0.0,0.0,0.0,0.0,0.0,0.0,0.0,-4.7573,-4.825,-4.8496,-4.9309,-5.0691,-5.0957,-5.1806,-5.3093,-5.3348,-5.3348,-5.3044,-5.252,-5.2147,-5.1843,-5.1116,-5.0524,0.0,0.0,0.0,0.0,0.0,0.0,0.0,0.0,0.0,0.0,0.0,0.0,0.0,0.0,0.0,0.0,0.0,0.0,0.0,0.0,0.0,0.0,0.0,0.0,0.0,0.0,0.0,0.0,0.0,0.0,0.0,0.0,0.0,0.0,0.0,0.0,0.0,-5.2428,-5.3722,0.0,-5.4114,-5.4807,-5.5367,-5.5578,-5.6154,-5.647,-5.6381,-5.7134,-5.7574,-5.7574,-5.785,-5.7997,-5.7997,-5.7997,-5.7997,-5.7997,-5.7997,-5.7997,-5.7997,-5.7997,-5.7886,-5.766,-5.7492,-5.6861,-5.5971,-5.5971,-5.5385,-5.4512,-5.4512,-5.4512,-5.4512,-5.4512,-5.4416,-5.4303,0.0,0.0,0.0,0.0,0.0,0.0,0.0,0.0,0.0,0.0,0.0,-4.3978,-4.4268,-4.5752,-4.6791,-4.6876,-4.7733,-4.7946,-4.7124,0.0,0.0,0.0,0.0,0.0,0.0,-4.7373,-4.7942,-4.862,-4.862,-4.9309,-5.0691,-5.0957,-5.1789,-5.3093,-5.3399,-5.3501,-5.3467,-5.2942,-5.2706,-5.2638,-5.1894,-5.1133,-5.0439,0.0,0.0,0.0,0.0,0.0,0.0,0.0,0.0,0.0,0.0,0.0,0.0,0.0,0.0,0.0,0.0,0.0,0.0,0.0,0.0,0.0,0.0,0.0,0.0,0.0,0.0,0.0,0.0,0.0,0.0,0.0,0.0,0.0,0.0,-5.1977,-5.2645,-5.2776,-5.4184,-5.5095,-5.4982,-5.5761,-5.6362,-5.6533,-5.707,-5.7361,-5.7275,-5.7726,-5.7997,-5.7997,-5.7997,-5.7997,-5.7997,-5.7997,-5.7997,-5.7997,-5.7997,-5.7997,-5.7997,-5.7997,-5.7886,-5.7703,-5.7516,-5.6887,-5.5971,-5.5773,-5.5224,-5.4512,-5.4512,-5.4512,-5.4512,-5.4512,-5.4512,-5.448,0.0,0.0,0.0,0.0,0.0,0.0,0.0,0.0,0.0,0.0,-4.4181,-4.5041,-4.5877,-4.6976,-4.7709,-4.7964,-4.8175,-4.7845,-4.6711,-4.6603,0.0,0.0,0.0,0.0,-4.7573,-4.7635,-4.7958,-4.862,-4.862,-4.9041,-4.9908,-5.0729,-5.1533,-5.2343,-5.3127,-5.3501,-5.3501,-5.3501,-5.3501,-5.3433,-5.2655,-5.1894,-5.1166,0.0,0.0,0.0,0.0,0.0,0.0,0.0,0.0,0.0,0.0,0.0,0.0,0.0,0.0,0.0,0.0,0.0,0.0,0.0,0.0,0.0,0.0,0.0,0.0,0.0,0.0,0.0,0.0,0.0,0.0,0.0,0.0,0.0,-5.1183,-5.2459,-5.3145,-5.2434,-5.4063,-5.5274,-5.5397,-5.652,-5.7562,-5.8338,-5.8264,-5.8197,-5.8197,-5.8084,-5.7997,-5.7997,-5.7997,-5.7997,-5.7997,-5.7997,-5.7997,-5.7997,-5.7997,-5.7997,-5.7997,-5.7997,-5.7684,-5.7091,-5.6572,-5.5971,-5.5385,-5.479,-5.4512,-5.4512,-5.4512,-5.4512,-5.4512,-5.4512,-5.4512,-5.4512,0.0,0.0,0.0,0.0,0.0,0.0,0.0,0.0,0.0,0.0,-4.4181,-4.5041,-4.5877,-4.7132,-4.7922,-4.8007,-4.8328,-4.8168,-4.7388,0.0,0.0,0.0,0.0,0.0,-4.7588,-4.8081,-4.8435,-4.862,-4.862,-4.9041,-4.9908,-5.0729,-5.1533,-5.2343,-5.3127,-5.3501,-5.3501,-5.3501,-5.3501,-5.3484,-5.3264,-5.2706,-5.1978,0.0,0.0,0.0,0.0,0.0,0.0,0.0,0.0,0.0,0.0,0.0,0.0,0.0,0.0,0.0,0.0,0.0,0.0,0.0,0.0,0.0,0.0,0.0,0.0,0.0,0.0,0.0,0.0,0.0,0.0,0.0,-5.2046,-5.277,-5.277,-5.3207,-5.399,-5.5114,-5.5857,-5.662,-5.7473,-5.7918,-5.8203,-5.8375,-5.84,-5.8356,-5.8219,-5.8174,-5.8088,-5.7997,-5.7997,-5.7997,-5.7997,-5.7997,-5.7997,-5.7997,-5.7997,-5.7997,-5.7997,-5.7997,-5.7909,-5.7726,-5.7116,-5.6572,-5.5999,-5.5385,-5.4896,-5.4512,-5.4512,-5.4512,-5.4512,-5.4512,-5.4512,-5.4512,0.0,0.0,0.0,0.0,0.0,0.0,0.0,0.0,0.0,0.0,-4.3387,-4.3949,-4.5155,-4.6343,-4.7148,-4.7364,-4.7733,-4.7722,-4.7234,0.0,0.0,0.0,0.0,-4.7742,-4.8019,-4.8419,-4.862,-4.862,-4.862,-4.9228,-5.04,-5.0881,-5.1716,-5.2834,-5.328,-5.3501,-5.3501,-5.3501,-5.3501,-5.3501,-5.3501,-5.3027,-5.23,-5.23,-5.1646,-5.071,-5.071,-5.071,-5.0643,-5.0224,0.0,0.0,0.0,0.0,0.0,0.0,0.0,0.0,0.0,0.0,0.0,0.0,0.0,0.0,0.0,0.0,0.0,0.0,0.0,0.0,0.0,0.0,0.0,0.0,-5.2615,-5.3542,-5.3932,-5.4042,-5.453,-5.5616,-5.6349,-5.704,-5.7713,-5.8275,-5.8572,-5.8526,-5.8508,-5.8446,-5.8334,-5.8242,-5.8174,-5.8106,-5.802,-5.7997,-5.7997,-5.7997,-5.7997,-5.7997,-5.7997,-5.7997,-5.7997,-5.7997,-5.7726,-5.7277,-5.6912,-5.6312,-5.5531,-5.5182,-5.4821,-5.4512,0.0,0.0,0.0,0.0,-5.4512,-5.4512,0.0,0.0,0.0,0.0,0.0,0.0,0.0,0.0,0.0,0.0,0.0,-4.2435,-4.4125,-4.513,-4.5854,-4.63,-4.6565,-4.6648,0.0,0.0,0.0,-4.7558,-4.7681,-4.8004,-4.8604,-4.862,-4.862,-4.862,-4.862,-4.9414,-5.0957,-5.107,-5.1898,-5.3365,-5.3467,-5.3501,-5.3501,-5.3501,-5.3501,-5.3501,-5.3501,-5.3078,-5.2435,-5.2435,-5.1831,-5.1028,-5.1028,-5.1028,-5.1011,-5.0927,0.0,0.0,0.0,0.0,0.0,0.0,0.0,0.0,0.0,0.0,0.0,0.0,0.0,0.0,0.0,0.0,0.0,0.0,0.0,0.0,0.0,0.0,0.0,0.0,-5.2959,-5.3832,-5.4693,-5.4811,-5.4873,-5.504,-5.6148,-5.6978,-5.708,-5.8064,-5.8716,-5.8716,-5.8593,-5.8511,-5.8511,-5.8312,0.0,0.0,0.0,-5.802,-5.802,-5.802,-5.802,-5.7997,-5.7997,-5.7997,-5.7997,-5.7932,-5.7351,-5.6384,-5.6248,-5.5589,-5.4589,-5.4543,-5.4512,-5.4512,-5.4512,-5.4512,-5.4512,-5.4512,-5.4512,-5.4512,0.0,0.0,0.0,0.0,0.0,0.0,0.0,0.0,0.0,-4.1855,-4.1931,-4.2435,-4.4125,-4.461,-4.4978,-4.5252,-4.511,-4.5138,0.0,0.0,-4.7327,-4.7588,-4.8127,-4.8481,-4.862,-4.862,-4.862,-4.862,-4.862,-4.9122,-5.0143,-5.0805,-5.1606,-5.2572,-5.3212,-5.3501,-5.3501,-5.3501,-5.3501,-5.3501,-5.3501,-5.3416,-5.3264,-5.3264,-5.3146,-5.296,-5.296,-5.296,-5.2859,-5.2217,-5.2014,-5.1961,-5.1234,-5.0574,0.0,0.0,0.0,0.0,0.0,0.0,0.0,0.0,0.0,0.0,0.0,0.0,0.0,0.0,0.0,0.0,0.0,0.0,0.0,-5.217,-5.3391,-5.4419,-5.4731,-5.4886,-5.5331,-5.6384,-5.6817,-5.7395,-5.8279,-5.8553,-5.8716,-5.8716,-5.8696,-5.8614,-5.8511,-5.8418,-5.8371,-5.8371,-5.8219,-5.8174,-5.8174,-5.8174,-5.8106,-5.7997,-5.7997,0.0,-5.7973,-5.7498,-5.7141,-5.6894,-5.5953,-5.5443,-5.5194,-5.4697,-5.4512,-5.4512,-5.4512,-5.4512,-5.4512,-5.4512,-5.4512,-5.4512,0.0,0.0,0.0,0.0,0.0,0.0,0.0,0.0,0.0,0.0,-3.9967,-4.0161,-4.1409,-4.2105,-4.2546,-4.281,-4.344,0.0,0.0,-4.6275,-4.7276,-4.8055,-4.8435,-4.862,-4.862,-4.862,-4.862,-4.862,-4.862,-4.9041,-4.9908,-5.0729,-5.1533,-5.2343,-5.3127,-5.3501,-5.3501,-5.3501,-5.3501,-5.3501,-5.3501,-5.3501,-5.3501,-5.3501,-5.3501,-5.3501,-5.3501,-5.3501,-5.345,-5.3044,-5.2909,-5.2773,-5.1995,-5.1505,-5.1048,0.0,0.0,0.0,0.0,0.0,0.0,0.0,0.0,0.0,0.0,0.0,0.0,0.0,0.0,-5.1114,-5.1114,0.0,-5.2804,-5.2804,-5.377,-5.4606,-5.4855,-5.4978,-5.5259,-5.5971,-5.666,-5.7315,-5.7859,-5.8385,-5.8716,-5.8716,-5.8716,-5.8656,-5.8596,-5.8508,-5.8462,-5.8462,-5.8353,-5.8305,-5.8305,-5.8219,-5.8174,-5.8088,-5.802,-5.7997,-5.7973,-5.7382,-5.6946,-5.6634,-5.5773,-5.5224,-5.4926,-5.462,-5.4512,-5.4512,-5.4512,-5.4512,-5.4512,-5.4512,-5.4512,-5.4512,0.0,0.0,0.0,0.0,0.0,0.0,0.0,0.0,0.0,0.0,-3.8084,-3.7884,-3.8723,-3.952,-4.0046,0.0,0.0,0.0,0.0,-4.5836,-4.7033,-4.8547,-4.862,-4.862,-4.862,-4.862,-4.862,-4.862,-4.862,-4.9041,-4.9908,-5.0729,-5.1533,-5.2343,-5.3127,-5.3501,-5.3501,-5.3501,-5.3501,-5.3501,-5.3501,-5.3501,-5.3501,-5.3501,-5.3501,-5.3501,-5.3501,-5.3365,-5.3264,-5.345,-5.3365,-5.3163,-5.2689,-5.2435,-5.2013,-5.0551,-5.0516,0.0,0.0,0.0,0.0,0.0,0.0,0.0,0.0,-5.0929,-5.1391,-5.2067,-5.2188,-5.2188,-5.2188,-5.2873,-5.3408,-5.3408,-5.4029,-5.4637,-5.4961,-5.4992,-5.5066,-5.5247,-5.634,-5.7191,-5.7389,-5.819,-5.8716,-5.8716,-5.8716,-5.8716,-5.8716,-5.8553,-5.8511,-5.8532,-5.8462,-5.8437,-5.8437,-5.8286,-5.8219,-5.8197,-5.8065,-5.795,-5.7797,-5.7216,-5.6634,-5.6083,-5.5473,-5.4957,-5.4512,-5.4512,-5.4512,-5.4512,-5.4512,-5.4512,-5.4512,-5.4512,-5.4512,-5.4512,0.0,0.0,0.0,0.0,0.0,0.0,0.0,0.0,0.0,0.0,0.0,0.0,0.0,0.0,0.0,0.0,0.0,0.0,-4.3401,-4.5752,-4.7516,-4.8563,-4.862,-4.862,-4.862,-4.862,-4.862,-4.862,-4.862,-4.9041,-4.9908,-5.0729,-5.1533,-5.2343,-5.3127,-5.3501,-5.3501,-5.3501,-5.3501,-5.3501,-5.3501,-5.3501,-5.3501,-5.3501,-5.3501,-5.3501,-5.3501,-5.296,-5.2404,-5.323,-5.2943,-5.2404,-5.3146,-5.2892,-5.2115,-5.1157,-5.0485,-4.983,-4.8782,-4.9118,-4.9803,-4.988,-5.0735,-5.1558,0.0,-5.1959,-5.2282,-5.2201,-5.2188,-5.2188,-5.2188,-5.2873,-5.3408,-5.3408,-5.4029,-5.4637,-5.4961,-5.4992,-5.5131,-5.5448,-5.6429,-5.7486,-5.8428,-5.8635,-5.8716,-5.8716,-5.8716,-5.8716,-5.8716,-5.8553,-5.8553,-5.8656,-5.8553,-5.8489,-5.8489,-5.8418,-5.8327,-5.8197,-5.8065,-5.7726,-5.7191,-5.6652,-5.6065,-5.5473,-5.4865,-5.4557,-5.4512,-5.4512,-5.4512,-5.4512,-5.4512,-5.4512,-5.4512,-5.4512,-5.4512,-5.4512,0.0,0.0,0.0,0.0,0.0,0.0,0.0,0.0,0.0,0.0,0.0,0.0,0.0,0.0,0.0,0.0,0.0,0.0,-4.2312,-4.4891,-4.6798,-4.7734,-4.8297,-4.862,-4.862,-4.862,-4.862,-4.862,-4.862,-4.8769,-4.9163,-5.001,-5.0821,-5.1643,-5.2449,-5.3058,-5.3501,-5.3501,-5.3501,-5.3501,-5.3501,-5.3501,-5.3501,-5.3501,-5.3501,-5.345,-5.2876,-5.2471,0.0,0.0,-5.2471,-5.2353,-5.3213,-5.2893,-5.1999,-5.1093,-5.0608,-5.0406,-5.054,-5.0506,-5.0555,-5.1057,-5.1753,-5.2326,-5.2245,-5.2643,-5.3138,-5.346,-5.3546,-5.3546,-5.3546,-5.3822,-5.4046,-5.4046,-5.4305,-5.4637,-5.4961,-5.4992,-5.5348,-5.6339,-5.6835,-5.729,-5.7742,-5.8341,-5.8716,-5.8716,-5.8716,-5.8716,-5.8716,-5.8656,-5.8635,-5.8716,-5.8635,-5.8614,-5.8614,-5.8462,-5.8371,-5.8327,-5.775,-5.7333,-5.7065,-5.6176,-5.5443,-5.4865,-5.462,-5.4512,-5.4512,-5.4512,-5.4512,-5.4512,-5.4512,-5.4512,-5.4512,-5.4512,-5.4512,-5.4512,0.0,0.0,0.0,0.0,0.0,0.0,0.0,0.0,0.0,0.0,0.0,0.0,0.0,0.0,0.0,0.0,0.0,0.0,0.0,-4.4301,-4.6168,-4.7548,-4.8256,-4.862,-4.862,-4.862,-4.862,-4.862,-4.862,-4.862,-4.862,-4.971,-5.0554,-5.1145,-5.2183,-5.2938,-5.3501,-5.3501,-5.3501,-5.3501,-5.3501,-5.3501,-5.3501,-5.3501,-5.3365,-5.3061,-5.2387,-5.2049,0.0,0.0,-5.1713,-5.1712,-5.2572,-5.232,-5.153,-5.0659,-5.0192,-5.0241,-5.1144,-5.1177,-5.1142,-5.2016,-5.2699,-5.3143,-5.3111,-5.3433,-5.3856,-5.4391,-5.4512,-5.4512,-5.4512,-5.4512,-5.4512,-5.4512,-5.4512,-5.4637,-5.4961,-5.4992,-5.542,-5.6537,-5.6912,-5.7116,-5.7116,-5.8082,-5.8716,-5.8716,-5.8716,-5.8716,-5.8716,-5.8716,-5.8716,-5.8716,-5.8716,-5.8716,-5.8716,-5.8526,-5.8415,-5.8393,-5.7552,-5.7065,-5.6843,-5.5687,-5.4926,-5.4512,-5.4512,-5.4512,-5.4512,-5.4512,-5.4512,-5.4512,-5.4512,-5.4512,-5.4512,-5.4512,-5.4512,-5.4512,0.0,0.0,0.0,0.0,0.0,0.0,0.0,0.0,0.0,0.0,0.0,0.0,0.0,0.0,0.0,0.0,0.0,0.0,0.0,-4.4268,-4.6016,-4.8449,-4.8563,-4.862,-4.862,-4.862,-4.862,-4.862,-4.862,-4.862,-4.8661,-5.0306,-5.107,-5.1182,-5.2747,-5.3467,-5.3501,-5.3501,-5.3501,-5.3501,-5.3501,-5.3501,-5.3501,-5.3501,-5.3027,-5.2334,-5.23,0.0,0.0,0.0,-5.0552,-4.9871,-5.0773,-5.0909,-5.0592,-4.9839,-4.899,-4.8493,-4.9422,-5.019,-5.101,-5.2261,-5.327,-5.4044,-5.4382,-5.4445,-5.4477,-5.4512,-5.4512,-5.4512,-5.4512,-5.4512,-5.4512,-5.4512,-5.4512,-5.4637,-5.4961,-5.4992,-5.5161,-5.549,-5.6456,-5.7116,-5.7116,-5.8082,-5.8716,-5.8716,-5.8716,-5.8716,-5.8716,-5.8716,-5.8716,-5.8716,-5.8716,-5.8716,-5.8716,-5.8553,-5.8465,-5.8393,-5.7642,-5.6946,-5.6276,-5.5091,-5.4512,-5.4512,-5.4512,-5.4512,-5.4512,-5.4512,-5.4512,-5.4512,-5.4512,-5.4512,-5.4512,-5.4512,-5.4512,-5.4512,0.0,0.0,0.0,0.0,0.0,0.0,0.0,0.0,0.0,0.0,0.0,0.0,0.0,0.0,0.0,0.0,0.0,0.0,0.0,-4.3686,-4.5535,-4.6927,-4.8026,-4.862,-4.862,-4.862,-4.862,-4.862,-4.862,-4.862,-4.8604,-4.9188,-4.9734,-5.0322,-5.0859,-5.1422,-5.1934,-5.2485,-5.2712,-5.2747,-5.328,-5.3501,-5.345,-5.2909,-5.2536,-5.2164,0.0,0.0,0.0,0.0,-5.0178,-5.006,-5.0884,-5.0702,-5.0002,-4.915,-4.9085,-4.9501,-5.0304,-5.1125,-5.1982,-5.2975,-5.3613,-5.4013,-5.4143,-5.4353,-5.4512,-5.4512,-5.4115,-5.377,-5.377,-5.377,-5.377,-5.377,-5.4184,-5.4575,-5.4824,-5.493,-5.5199,-5.5791,-5.6581,-5.7241,-5.7582,-5.8279,-5.8716,-5.8716,-5.8716,-5.8716,-5.8716,-5.8716,-5.8716,-5.8716,-5.8716,-5.8716,-5.8716,-5.8213,-5.7969,-5.7918,-5.6747,-5.5812,-5.5091,-5.4683,-5.4512,-5.4512,-5.4512,-5.4512,-5.4512,-5.4512,-5.4512,-5.4512,-5.4512,-5.4512,-5.4512,-5.4512,-5.4512,-5.4512,0.0,0.0,0.0,0.0,0.0,0.0,0.0,0.0,0.0,0.0,0.0,0.0,0.0,0.0,0.0,0.0,0.0,-4.0216,0.0,0.0,-4.5198,-4.629,-4.7308,-4.7896,-4.7896,-4.7896,-4.7896,-4.7896,-4.8142,-4.825,-4.825,-4.8825,-4.951,-5.0322,-5.0631,-5.1199,-5.1987,-5.252,-5.2562,-5.233,-5.2842,-5.2909,-5.2621,-5.2114,-5.1742,0.0,0.0,0.0,0.0,0.0,-4.9603,-4.9734,-5.0175,-4.9895,-4.9347,-4.9097,-4.9382,-5.0034,-5.1157,-5.183,-5.242,-5.3348,-5.38,-5.4013,-5.4045,-5.4303,-5.4512,-5.4512,-5.3908,-5.3408,-5.3408,-5.3166,-5.2977,-5.2977,-5.3373,-5.385,-5.4298,-5.4517,-5.4885,-5.5634,-5.6536,-5.7241,-5.7582,-5.8279,-5.8716,-5.8716,-5.8716,-5.8716,-5.8716,-5.8716,-5.8716,-5.8716,-5.8511,-5.8406,-5.8406,-5.7789,-5.7346,-5.7087,-5.6075,-5.5254,-5.4606,-5.4543,-5.4512,-5.4512,-5.4512,-5.4512,-5.4512,-5.4512,-5.4512,-5.4512,-5.4512,-5.4512,-5.4512,-5.4512,-5.4512,-5.4512,0.0,0.0,0.0,0.0,0.0,0.0,0.0,0.0,0.0,0.0,0.0,0.0,0.0,0.0,0.0,0.0,0.0,0.0,0.0,0.0,0.0,-4.6471,-4.6573,-4.6603,-4.6603,-4.6603,-4.6603,-4.6603,-4.7234,-4.7558,-4.7573,-4.9023,-5.0133,-5.0957,-5.1691,-5.2491,-5.3264,-5.3315,-5.2876,-5.2183,-5.2249,-5.1826,-5.1185,-5.1166,0.0,0.0,0.0,0.0,0.0,-4.9001,-4.8942,-4.8868,-4.8919,-4.8776,-4.8798,-4.9714,-4.9868,-5.0105,-5.1829,-5.2251,-5.2421,-5.3431,-5.3849,-5.4045,-5.4175,-5.4335,-5.4494,-5.446,-5.3856,-5.3339,-5.3287,-5.2701,-5.2188,-5.2188,-5.2257,-5.2611,-5.3519,-5.3823,-5.4264,-5.5082,-5.6285,-5.7065,-5.7065,-5.7996,-5.8614,-5.8614,-5.8656,-5.8716,-5.8716,-5.8656,-5.8656,-5.8656,-5.8127,-5.7859,-5.7859,-5.734,-5.6695,-5.5974,-5.568,-5.5284,-5.478,-5.4575,-5.4512,-5.4512,-5.4512,-5.4512,-5.4512,-5.4512,-5.4512,-5.4512,-5.4512,-5.4512,-5.4512,-5.4512,-5.4512,-5.4512,0.0,0.0,0.0,0.0,0.0,0.0,0.0,0.0,0.0,0.0,0.0,0.0,0.0,0.0,0.0,0.0,0.0,0.0,0.0,0.0,0.0,0.0,0.0,0.0,0.0,0.0,0.0,0.0,-4.6773,-4.6785,-4.6624,-4.7019,-4.7621,-4.8349,-4.8555,-4.9158,-5.0025,-5.0634,-5.0775,-5.0642,0.0,-5.1386,-5.115,0.0,0.0,0.0,0.0,0.0,-4.9001,-4.9001,-4.9325,-4.9852,-5.0409,-5.0563,-5.0565,-5.0782,-5.1221,-5.1728,-5.2165,-5.2706,-5.3213,-5.3467,-5.3767,-5.4013,-5.4045,-5.4271,-5.4339,-5.3787,-5.3063,-5.2356,-5.1804,-5.1964,-5.2188,-5.2188,-5.3166,-5.3994,-5.4247,-5.453,-5.4796,-5.5018,-5.5904,-5.651,-5.651,-5.7116,-5.751,-5.751,-5.8257,-5.8716,-5.8716,-5.8319,-5.8105,-5.8105,-5.7582,-5.7315,-5.7315,-5.6757,-5.6111,-5.5385,-5.5242,-5.5022,-5.478,-5.4575,-5.4512,-5.4512,-5.4512,-5.4512,-5.4512,-5.4512,-5.4512,-5.4512,-5.4512,-5.4512,-5.4512,-5.4512,-5.4512,-5.4512,0.0,0.0,0.0,0.0,0.0,0.0,0.0,0.0,0.0,0.0,0.0,0.0,0.0,0.0,0.0,0.0,0.0,0.0,0.0,0.0,0.0,0.0,0.0,0.0,0.0,0.0,0.0,0.0,0.0,0.0,-4.5856,-4.6266,-4.677,-4.7331,-4.7848,-4.8501,-4.9311,-5.0173,0.0,0.0,0.0,0.0,0.0,0.0,0.0,0.0,0.0,0.0,-4.9526,-4.9864,-5.0253,-5.0659,-5.1082,-5.1153,-5.1188,-5.1574,-5.1913,-5.2285,-5.2689,-5.3162,-5.3501,-5.3501,-5.3685,-5.3764,-5.3392,-5.3582,-5.3645,-5.2826,-5.2161,-5.1584,-5.1183,-5.1459,-5.1705,-5.1705,-5.2718,-5.3615,-5.3977,-5.4291,-5.4657,-5.4957,-5.5769,-5.6311,-5.6311,-5.6783,-5.7116,-5.7116,-5.7882,-5.8363,-5.8363,-5.8279,-5.8127,-5.7905,-5.7389,-5.6861,-5.6402,-5.6108,-5.5729,-5.5324,-5.5113,-5.4961,-5.4886,-5.4606,-5.4512,-5.4512,-5.4512,-5.4512,-5.4512,-5.4512,-5.4512,-5.4512,-5.4512,-5.4512,-5.4512,-5.4512,-5.4512,-5.4512,0.0,0.0,0.0,0.0,0.0,0.0,0.0,0.0,0.0,0.0,0.0,0.0,0.0,0.0,0.0,0.0,0.0,0.0,0.0,0.0,0.0,0.0,0.0,0.0,0.0,0.0,0.0,0.0,0.0,0.0,0.0,0.0,0.0,0.0,0.0,0.0,0.0,0.0,0.0,0.0,0.0,0.0,0.0,0.0,0.0,0.0,0.0,-4.9475,-5.0202,-5.0963,-5.1252,-5.1369,-5.1488,-5.1441,-5.1461,-5.225,-5.2369,-5.2471,-5.3281,-5.3501,-5.3501,-5.3501,-5.3601,-5.348,-5.2603,-5.2742,-5.2738,-5.1771,-5.1287,-5.102,-5.0947,-5.1045,-5.1149,-5.1235,-5.186,-5.2649,-5.3442,-5.3823,-5.4261,-5.4905,-5.5682,-5.6174,-5.6192,-5.6599,-5.6887,-5.6887,-5.7389,-5.7719,-5.7789,-5.8168,-5.8146,-5.7606,-5.7141,-5.6429,-5.5507,-5.5507,-5.5507,-5.5478,-5.5161,-5.4992,-5.4992,-5.4652,-5.4512,-5.4512,-5.4512,-5.4512,-5.4512,-5.4512,-5.4512,-5.4512,-5.4512,-5.4512,-5.4512,-5.4512,-5.4512,-5.4512,0.0,0.0,0.0,0.0,0.0,0.0,0.0,0.0,0.0,0.0,-3.6977,-3.6546,0.0,0.0,0.0,0.0,0.0,0.0,0.0,0.0,0.0,0.0,0.0,0.0,0.0,-4.461,-4.461,-4.461,-4.4542,0.0,0.0,0.0,0.0,0.0,0.0,0.0,0.0,0.0,0.0,0.0,0.0,0.0,0.0,0.0,0.0,0.0,-4.9001,-4.9475,-5.0202,0.0,-5.1623,-5.2232,-5.2892,-5.3078,-5.3112,-5.3264,-5.3264,-5.3298,-5.3467,-5.3501,-5.3501,-5.3501,-5.3601,-5.348,-5.2603,-5.2547,-5.2316,-5.1059,-5.0727,-5.0592,-5.0245,-5.07,-5.1321,-5.1895,-5.2684,-5.346,-5.4201,-5.451,-5.4717,-5.4974,-5.5229,-5.5467,-5.5619,-5.5706,-5.5793,-5.5793,-5.6284,-5.6757,-5.7216,-5.6912,-5.6456,-5.5929,-5.5833,-5.5695,-5.5507,-5.5507,-5.5507,-5.5478,-5.5161,-5.4992,-5.4992,-5.4652,-5.4512,-5.4512,-5.4512,-5.4512,-5.4512,-5.4512,-5.4512,-5.4512,-5.4512,-5.4512,-5.4512,-5.4512,-5.4512,-5.4512,0.0,0.0,0.0,0.0,0.0,0.0,0.0,-3.7933,-3.8192,-3.8315,-3.8121,-3.7861,-3.75,-3.8917,0.0,0.0,0.0,0.0,0.0,0.0,0.0,0.0,0.0,0.0,0.0,-4.4435,-4.4396,-4.4281,0.0,-4.4089,-4.3988,-4.391,-4.3972,-4.4289,-4.53,-4.5973,-4.6381,0.0,0.0,-4.8482,-4.8861,-4.9001,0.0,0.0,0.0,0.0,0.0,-4.9475,-5.0152,0.0,-5.1321,-5.2435,-5.3247,-5.3501,-5.3501,-5.3501,-5.3501,-5.3501,-5.3501,-5.3501,-5.3501,-5.3501,-5.3551,-5.3246,-5.1814,-5.1839,-5.167,-5.011,-5.0047,-5.0231,-5.0033,-5.0614,-5.1235,-5.155,-5.2632,-5.3529,-5.3891,-5.4444,-5.4842,-5.4992,-5.5109,-5.5277,-5.5478,-5.5507,-5.5507,-5.5507,-5.5735,-5.6108,-5.667,-5.6429,-5.6192,-5.5901,-5.5637,-5.5507,-5.5507,-5.5507,-5.5448,-5.5354,-5.5113,-5.4961,-5.4886,-5.4637,-5.4512,-5.4512,-5.4512,-5.4512,-5.4512,-5.4512,-5.4512,-5.4512,-5.4512,-5.4512,-5.4512,-5.4512,-5.4512,-5.4512,0.0,0.0,0.0,0.0,0.0,0.0,0.0,-3.8373,-3.881,-3.8841,-3.9522,-3.9596,-3.8707,-3.9917,-4.1196,0.0,0.0,0.0,0.0,0.0,0.0,0.0,0.0,0.0,0.0,0.0,0.0,-4.3988,-4.3988,0.0,0.0,0.0,0.0,0.0,-4.4902,-4.5405,-4.5499,-4.7188,-4.7982,0.0,0.0,-4.9001,0.0,0.0,0.0,0.0,0.0,-4.9342,-4.9835,-4.9862,-5.0702,-5.1863,-5.2656,-5.3045,-5.3247,-5.3213,-5.3213,-5.3281,-5.345,-5.3501,-5.3501,-5.3501,-5.3501,-5.2994,-5.1128,-5.1168,-5.1111,-4.9368,-4.9475,-4.9906,-4.9982,-5.0476,-5.0925,-5.108,-5.2132,-5.3028,-5.3356,-5.4033,-5.462,-5.493,-5.5066,-5.5217,-5.5431,-5.5478,-5.5507,-5.5507,-5.5507,-5.5677,-5.6108,-5.6136,-5.6136,-5.6136,-5.5706,-5.5507,-5.5507,-5.5507,-5.5431,-5.5259,-5.5066,-5.493,-5.4842,-5.4606,-5.4512,-5.4512,-5.4512,-5.4512,-5.4512,-5.4512,-5.4512,-5.4512,-5.4512,-5.4512,-5.4512,-5.4512,-5.4512,-5.4512,0.0,0.0,0.0,0.0,0.0,0.0,0.0,-3.9842,-3.9842,-4.0031,-4.0845,-4.1378,-4.1253,-4.1558,-4.2149,0.0,0.0,0.0,0.0,0.0,0.0,0.0,0.0,0.0,0.0,0.0,0.0,-4.3988,-4.3988,0.0,0.0,0.0,0.0,0.0,0.0,-4.5753,-4.6448,-4.7473,0.0,0.0,0.0,0.0,0.0,0.0,0.0,0.0,0.0,-4.8959,-4.902,-4.9678,-4.9868,-4.9989,-5.0709,-5.1647,-5.2385,-5.2269,-5.2319,-5.257,-5.3298,-5.3501,-5.3501,-5.3501,-5.3501,-5.2994,-5.1128,-5.0973,-5.0826,-4.9306,-4.9307,-4.9654,-4.9935,-5.0062,-5.0321,-5.0994,-5.1235,-5.1804,-5.3201,-5.346,-5.3863,-5.471,-5.4948,-5.5066,-5.5199,-5.5383,-5.5507,-5.5507,-5.5507,-5.5507,-5.5549,-5.5549,-5.5549,-5.5549,-5.5537,-5.5507,-5.5507,-5.5507,-5.5478,-5.5478,-5.5144,-5.4992,-5.4961,-5.4669,-5.4512,-5.4512,-5.4512,-5.4512,-5.4512,-5.4512,-5.4512,-5.4512,-5.4512,-5.4512,-5.4512,-5.4512,-5.4512,-5.4512,0.0,0.0,0.0,0.0,0.0,0.0,-4.0318,-4.0845,-4.1239,-4.142,-4.2152,-4.279,-4.319,-4.319,-4.3324,-4.3684,0.0,0.0,0.0,0.0,0.0,0.0,0.0,0.0,0.0,0.0,-4.4104,-4.3832,-4.3832,0.0,0.0,0.0,0.0,0.0,0.0,-4.5572,-4.5933,-4.7305,0.0,0.0,0.0,0.0,0.0,0.0,0.0,0.0,0.0,0.0,-4.882,-4.9011,-4.9301,-4.9539,-4.9274,-4.9971,-5.1021,-5.1882,-5.2151,-5.2353,-5.3264,-5.3501,-5.3501,-5.3501,-5.3078,-5.2303,-5.1011,-5.0555,-5.016,-4.919,-4.9277,-4.9607,-4.9935,-5.0011,-5.0097,-5.039,-5.0821,-5.1321,-5.1942,-5.2408,-5.3038,-5.3983,-5.4113,-5.4409,-5.5013,-5.5144,-5.5234,-5.5306,-5.5431,-5.5507,-5.5507,-5.5507,-5.5507,-5.5507,-5.5507,-5.5507,-5.5507,-5.5507,-5.5419,-5.5191,-5.5053,-5.49,-5.4683,-5.4575,-5.4512,-5.4512,-5.4512,-5.4512,-5.4512,-5.4512,-5.4512,-5.4512,-5.4512,-5.4512,-5.4512,-5.4512,-5.4512,-5.4512,0.0,0.0,0.0,0.0,0.0,-4.0717,-4.1057,-4.1672,-4.214,-4.2356,-4.3086,-4.3778,-4.4243,-4.4243,-4.4166,-4.4166,-4.4435,0.0,0.0,0.0,0.0,0.0,0.0,0.0,0.0,0.0,-4.4026,-4.369,-4.3832,-4.4026,0.0,0.0,-4.3988,-4.4396,0.0,0.0,0.0,0.0,0.0,0.0,0.0,0.0,0.0,0.0,0.0,0.0,0.0,0.0,0.0,0.0,0.0,-4.9025,-4.8346,-4.8708,0.0,-5.0943,-5.1596,-5.1999,-5.2842,-5.3298,-5.3501,-5.3501,-5.2775,-5.1866,-5.091,-5.0304,-4.971,-4.9123,-4.9277,-4.9607,-4.9935,-5.0011,-5.0011,-5.0011,-5.0442,-5.0856,-5.108,-5.1563,-5.2196,-5.3078,-5.3242,-5.3628,-5.4513,-5.4822,-5.5035,-5.5139,-5.5324,-5.5401,-5.5401,-5.5478,-5.5507,-5.5507,-5.5507,-5.5507,-5.5507,-5.5507,-5.5371,-5.5161,-5.5083,-5.4913,-5.4669,-5.4606,-5.4543,-5.4512,-5.4512,-5.4512,-5.4512,-5.4512,-5.4512,-5.4512,-5.4512,-5.4512,-5.4512,-5.4512,-5.4512,-5.4512,0.0,0.0,0.0,0.0,0.0,0.0,-4.2111,-4.229,-4.2371,-4.2585,-4.36,-4.4281,-4.4281,-4.4473,-4.4572,-4.4572,-4.461,0.0,0.0,0.0,0.0,0.0,0.0,0.0,0.0,0.0,-4.4281,-4.369,-4.4104,-4.4281,-4.4281,-4.4104,-4.4205,-4.4587,0.0,0.0,0.0,0.0,0.0,0.0,0.0,0.0,0.0,0.0,0.0,0.0,0.0,0.0,0.0,0.0,0.0,0.0,0.0,-4.8001,0.0,0.0,-5.0402,-5.1321,-5.1932,-5.2775,-5.3501,-5.3501,-5.2775,-5.1866,-5.091,-5.0304,-4.971,-4.9123,-4.9277,-4.9607,-4.9935,-5.0011,-5.0011,-5.0011,-5.0011,-5.0287,-5.1011,-5.1114,-5.1407,-5.2149,-5.2403,-5.2787,-5.3532,-5.4448,-5.4992,-5.4992,-5.5109,-5.5199,-5.5199,-5.5383,-5.5507,-5.5507,-5.5507,-5.5507,-5.5507,-5.5507,-5.5507,-5.5478,-5.5277,-5.5109,-5.4992,-5.4873,-5.4686,-5.4512,-5.4512,-5.4512,-5.4512,-5.4512,-5.4512,-5.4512,-5.4512,-5.4512,-5.4512,-5.4512,-5.4512,-5.4512,0.0,0.0,0.0,0.0,0.0,0.0,0.0,-4.325,-4.3354,-4.3732,-4.4073,-4.4358,-4.4511,-4.4572,-4.461,-4.461,-4.461,0.0,0.0,0.0,0.0,0.0,0.0,0.0,0.0,0.0,-4.4243,-4.391,-4.4026,-4.4089,-4.4104,-4.3871,-4.4266,-4.5163,-4.5608,-4.6432,0.0,0.0,0.0,0.0,0.0,0.0,-4.9001,0.0,0.0,0.0,0.0,0.0,0.0,0.0,0.0,0.0,0.0,0.0,0.0,-4.8543,-4.9273,-5.0157,-5.0927,-5.1379,-5.1597,-5.1597,-5.091,-5.0192,-4.9875,-4.9159,-4.8673,-4.8928,-4.9094,-4.9337,-4.9906,-5.0011,-5.0011,-5.0011,-5.0011,-5.008,-5.0321,-5.0787,-5.136,-5.2101,-5.318,-5.3953,-5.4178,-5.4624,-5.4855,-5.4855,-5.4992,-5.5079,-5.5199,-5.5259,-5.5354,-5.5478,-5.5507,-5.5507,-5.5507,-5.5507,-5.5431,-5.5277,-5.5126,-5.4992,-5.4873,-5.4686,-5.4543,-5.4512,-5.4512,-5.4512,-5.4512,-5.4512,-5.4512,-5.4512,-5.4512,-5.4512,-5.4512,-5.4512,-5.4512,-5.4512,0.0,0.0,0.0,0.0,0.0,0.0,0.0,-4.391,-4.405,-4.4358,-4.4396,-4.4473,-4.4587,-4.461,-4.461,-4.461,-4.461,0.0,0.0,0.0,0.0,0.0,0.0,0.0,0.0,-4.4243,-4.4166,-4.3871,-4.3949,-4.3988,-4.4026,-4.4166,-4.4655,-4.5442,-4.5897,-4.6622,0.0,0.0,0.0,0.0,0.0,0.0,-4.9001,0.0,0.0,0.0,0.0,0.0,0.0,0.0,0.0,0.0,0.0,0.0,0.0,0.0,-4.8512,-4.9126,-4.9975,-5.0443,-5.071,-5.071,-5.0042,-4.9426,-4.9573,-4.8842,-4.8373,-4.9063,-4.9185,-4.9337,-4.9906,-5.0011,-5.0011,-5.0011,-5.0011,-5.0097,-5.039,-5.0821,-5.136,-5.2101,-5.3339,-5.408,-5.408,-5.4451,-5.4686,-5.4686,-5.4824,-5.4992,-5.5126,-5.5169,-5.5277,-5.5478,-5.5507,-5.5507,-5.5507,-5.5507,-5.5431,-5.5306,-5.5156,-5.5022,-5.4855,-5.4669,-5.4575,-5.4512,-5.4512,-5.4512,0.0,-5.4512,-5.4512,-5.4512,-5.4512,-5.4512,-5.4512,-5.4512,-5.4512,-5.4512,0.0,0.0,0.0,0.0,0.0,0.0,0.0,-4.4281,-4.4358,-4.4572,-4.461,-4.461,-4.461,-4.461,-4.461,-4.461,0.0,0.0,0.0,0.0,0.0,0.0,0.0,0.0,-4.4026,-4.4205,-4.4089,-4.369,-4.391,-4.3988,-4.3988,-4.4692,-4.5147,-4.5369,-4.5405,-4.5969,0.0,0.0,0.0,0.0,0.0,0.0,0.0,0.0,0.0,0.0,0.0,0.0,0.0,0.0,0.0,0.0,0.0,0.0,0.0,0.0,0.0,0.0,0.0,-4.9892,-5.0526,-5.0526,-4.9892,-4.9392,-4.9717,-4.913,0.0,-4.935,-4.9518,-4.9607,-4.9935,-5.0011,-5.0011,-5.0011,-5.0011,-5.0269,-5.1011,-5.12,-5.1545,-5.2274,-5.3028,-5.3477,-5.3477,-5.4098,-5.4512,-5.4512,-5.4686,-5.4842,-5.4992,-5.5109,-5.5277,-5.5478,-5.5478,-5.5507,-5.5507,-5.5507,-5.5507,-5.5507,-5.5306,-5.5139,-5.5022,-5.4873,-5.4686,-5.4512,-5.4512,-5.4512,-5.4512,-5.4512,-5.4512,-5.4512,-5.4512,-5.4512,-5.4512,-5.4512,-5.4512,-5.4512,0.0,0.0,0.0,0.0,0.0,0.0,0.0,0.0,0.0,0.0,-4.461,-4.461,-4.461,-4.461,-4.461,0.0,0.0,0.0,0.0,0.0,0.0,0.0,0.0,0.0,-4.4243,-4.4281,-4.4089,-4.369,-4.391,-4.3817,-4.3503,-4.3996,-4.4579,-4.5184,-4.5332,-4.6237,0.0,0.0,0.0,0.0,0.0,0.0,0.0,0.0,0.0,0.0,-4.861,-4.8515,0.0,0.0,0.0,0.0,0.0,0.0,0.0,0.0,-4.8033,0.0,-4.8282,0.0,-4.8629,-4.8629,-4.848,-4.8413,0.0,-4.8649,-4.8704,-4.935,-4.9518,-4.9607,-4.9935,-5.0011,-5.0011,-5.0011,-5.0011,-5.0269,-5.1011,-5.2132,-5.3132,-5.3873,-5.4132,-5.4253,-5.4253,-5.4408,-5.4512,-5.4512,-5.4543,-5.4637,-5.4842,-5.4961,-5.5126,-5.5277,-5.5431,-5.5507,-5.5507,-5.5507,-5.5507,-5.5507,-5.5306,-5.5199,-5.5139,-5.4917,-5.478,-5.4717,-5.4575,-5.4512,-5.4512,-5.4512,-5.4512,-5.4512,-5.4512,-5.4512,-5.4512,-5.4512,-5.4512,-5.4512,0.0,0.0,0.0,0.0,0.0,0.0,0.0,0.0,0.0,0.0,0.0,0.0,0.0,0.0,0.0,0.0,0.0,0.0,0.0,0.0,0.0,0.0,0.0,-4.4511,-4.432,-4.4281,-4.4127,-4.3847,-4.3949,-4.3817,-4.3503,-4.4289,-4.4805,-4.5147,-4.5753,-4.6166,0.0,0.0,0.0,0.0,-4.8736,0.0,0.0,0.0,0.0,0.0,-4.8578,-4.8452,0.0,-4.8099,-4.8001,-4.8001,0.0,0.0,0.0,0.0,-4.8115,-4.8179,-4.8033,-4.8001,-4.8001,-4.8099,-4.8147,-4.8324,-4.8736,-4.8892,-4.9107,-4.9607,-4.9742,-4.9772,-4.9982,-5.0011,-5.0011,-5.0011,-5.0287,-5.0769,-5.1481,-5.2339,-5.3132,-5.3908,-5.4011,-5.4132,-5.4477,-5.4512,-5.4512,-5.4512,-5.4512,-5.4575,-5.4797,-5.4917,-5.5066,-5.5199,-5.5401,-5.5507,-5.5507,-5.5507,-5.5507,-5.5507,-5.5306,-5.5199,-5.5199,-5.4917,-5.4797,-5.4797,-5.4575,-5.4512,-5.4512,-5.4512,-5.4512,-5.4512,-5.4512,-5.4512,-5.4512,-5.4512,-5.4512,-5.4512,0.0,0.0,0.0,0.0,0.0,0.0,0.0,0.0,0.0,0.0,0.0,0.0,0.0,0.0,0.0,0.0,0.0,0.0,0.0,0.0,0.0,0.0,0.0,-4.4511,-4.432,-4.4281,-4.4205,-4.3988,-4.3988,-4.391,-4.3769,-4.4768,-4.5147,-4.5073,-4.604,-4.5913,0.0,0.0,0.0,-4.7254,-4.8498,0.0,0.0,0.0,0.0,0.0,0.0,0.0,0.0,-4.8066,-4.8001,-4.8001,-4.8001,0.0,0.0,0.0,0.0,0.0,-4.8099,-4.8116,-4.8199,-4.8164,-4.8292,-4.8547,-4.9046,-4.929,-4.9518,-4.9906,-5.0011,-5.0011,-5.0011,-5.0011,-5.0011,-5.0011,-5.0718,-5.1545,-5.2274,-5.2494,-5.2822,-5.3494,-5.358,-5.3822,-5.4443,-5.4512,-5.4512,-5.4512,-5.4512,-5.4575,-5.4749,-5.4886,-5.5035,-5.5169,-5.5354,-5.5478,-5.5507,-5.5507,-5.5507,-5.5507,-5.5324,-5.5229,-5.5229,-5.4948,-5.4842,-5.4811,-5.4606,-5.4512,-5.4512,-5.4512,-5.4512,-5.4512,-5.4512,-5.4512,-5.4512,-5.4512,-5.4512,-5.4512,0.0,0.0,0.0,0.0,0.0,0.0,0.0,0.0,0.0,0.0,0.0,0.0,0.0,0.0,0.0,0.0,0.0,0.0,0.0,0.0,0.0,0.0,-4.461,-4.4511,-4.432,-4.4281,-4.4205,-4.3988,-4.3988,-4.3988,-4.3949,-4.432,-4.4534,-4.4685,-4.4858,-4.5531,-4.6464,-4.6811,-4.7638,-4.8688,-4.8909,0.0,0.0,0.0,0.0,0.0,0.0,0.0,0.0,-4.8082,-4.8001,-4.8001,-4.8001,0.0,0.0,0.0,0.0,0.0,-4.8001,-4.858,-4.9011,-4.8215,-4.8066,-4.8244,-4.8877,-4.9063,-4.9246,-4.9877,-5.0011,-5.0011,-5.0011,-5.0011,-5.0011,-5.0011,-5.1149,-5.2321,-5.3115,-5.3753,-5.4201,-5.4322,-5.4339,-5.4391,-5.4494,-5.4512,-5.4512,-5.4512,-5.4512,-5.4512,-5.4543,-5.4717,-5.4886,-5.5022,-5.5187,-5.5324,-5.5507,-5.5507,-5.5507,-5.5507,-5.5478,-5.5431,-5.5431,-5.5131,-5.4961,-5.4961,-5.4637,-5.4512,-5.4512,-5.4512,-5.4512,-5.4512,-5.4512,-5.4512,-5.4512,-5.4512,-5.4512,-5.4512,0.0,0.0,0.0,0.0,0.0,0.0,0.0,0.0,0.0,0.0,0.0,0.0,0.0,0.0,0.0,0.0,0.0,0.0,0.0,0.0,0.0,-4.461,-4.461,-4.4549,-4.4458,-4.4458,-4.4358,-4.4166,-4.4281,-4.4205,-4.4026,-4.422,-4.461,-4.5179,-4.5179,-4.5805,-4.6811,-4.7221,-4.7787,-4.845,0.0,0.0,0.0,0.0,0.0,0.0,0.0,0.0,0.0,0.0,-4.8049,-4.8001,-4.8001,0.0,0.0,0.0,0.0,0.0,-4.8033,-4.8315,-4.8646,-4.8745,-4.9242,-4.9851,-5.036,-5.0546,-5.0629,-5.0595,-5.0597,-5.0476,-5.008,-5.0338,-5.0873,-5.1701,-5.2046,-5.2494,-5.3287,-5.3322,-5.3425,-5.3856,-5.3908,-5.4063,-5.4477,-5.4512,-5.4512,-5.4512,-5.4512,-5.4512,-5.4512,-5.4686,-5.4873,-5.4992,-5.5139,-5.5306,-5.5507,-5.5507,-5.5507,-5.5507,-5.5507,-5.5507,-5.5478,-5.5234,-5.5066,-5.4992,-5.4762,-5.4606,-5.4512,-5.4512,-5.4512,-5.4512,-5.4512,-5.4512,-5.4512,-5.4512,-5.4512,-5.4512,0.0,0.0,0.0,0.0,0.0,0.0,0.0,0.0,0.0,0.0,0.0,0.0,0.0,0.0,0.0,0.0,0.0,0.0,0.0,0.0,-4.461,-4.461,-4.461,-4.461,-4.461,-4.461,-4.4534,-4.4358,-4.4473,-4.4458,-4.4343,-4.4518,-4.5089,-4.5949,-4.5949,-4.6359,-4.7069,-4.7655,-4.7982,-4.8193,0.0,0.0,0.0,0.0,0.0,0.0,0.0,0.0,0.0,0.0,0.0,0.0,0.0,0.0,0.0,-4.8033,-4.8082,-4.8147,-4.8033,-4.8166,-4.8497,-4.9227,-4.9939,-5.0666,-5.1483,-5.1589,-5.1504,-5.1382,-5.1373,-5.1149,-5.039,-5.0735,-5.1545,-5.2908,-5.277,-5.277,-5.3546,-5.3149,-5.2977,-5.358,-5.3667,-5.3891,-5.446,-5.4512,-5.4512,-5.4512,-5.4512,-5.4512,-5.4512,-5.4655,-5.4793,-5.4992,-5.5096,-5.5247,-5.5507,-5.5507,-5.5507,-5.5507,-5.5507,-5.5507,-5.5478,-5.5277,-5.5139,-5.5053,-5.4855,-5.4717,-5.4575,-5.4512,-5.4512,-5.4512,-5.4512,-5.4512,-5.4512,-5.4512,-5.4512,-5.4512,0.0,0.0,0.0,0.0,0.0,0.0,0.0,0.0,0.0,0.0,0.0,0.0,0.0,0.0,0.0,0.0,0.0,0.0,0.0,0.0,-4.461,-4.461,-4.461,-4.461,-4.461,-4.461,-4.4572,-4.4587,-4.4396,-4.467,-4.5295,-4.5515,-4.6005,-4.6708,-4.6708,-4.7153,-4.7819,-4.7885,-4.8306,-4.894,-4.897,0.0,0.0,0.0,0.0,0.0,0.0,0.0,0.0,0.0,0.0,0.0,0.0,0.0,-4.8001,-4.8001,-4.8001,-4.8001,-4.8001,-4.8629,-4.931,-4.9393,-4.8828,-4.8793,-5.1009,-5.0835,-5.0606,-5.1842,-5.2101,-5.1908,-5.1166,-5.108,-5.1373,-5.2166,-5.2873,-5.358,-5.4322,-5.4374,-5.4374,-5.4425,-5.4425,-5.4443,-5.4494,-5.4512,-5.4512,-5.4512,-5.4512,-5.4512,-5.4512,-5.4512,-5.4669,-5.4992,-5.5022,-5.5191,-5.5478,-5.5507,-5.5507,-5.5507,-5.5507,-5.5507,-5.5478,-5.5277,-5.5182,-5.5169,-5.4917,-5.478,-5.4749,-5.4575,-5.4512,-5.4512,-5.4512,-5.4512,-5.4512,-5.4512,-5.4512,-5.4512,0.0,0.0,0.0,0.0,0.0,0.0,0.0,0.0,0.0,0.0,0.0,0.0,0.0,0.0,0.0,0.0,0.0,0.0,0.0,0.0,-4.461,-4.461,-4.461,-4.461,-4.461,-4.461,-4.4549,-4.4396,-4.4805,-4.52,-4.5588,-4.566,-4.6359,-4.7439,-4.6534,-4.7051,-4.8513,-4.7589,-4.7901,-4.897,-4.8513,-4.8498,0.0,0.0,0.0,0.0,0.0,0.0,0.0,0.0,-4.8049,-4.8001,-4.8001,-4.8001,-4.8001,-4.8001,-4.8001,-4.8001,-4.8001,-4.8679,-4.9393,-4.9393,-4.9127,-4.9458,-5.1702,-5.19,-5.1909,-5.2767,-5.2959,-5.2718,-5.1912,-5.2201,-5.2632,-5.2908,-5.3598,-5.4184,-5.4477,-5.4512,-5.4512,-5.4512,-5.4512,-5.4512,-5.4512,-5.4512,-5.4512,-5.4512,-5.4512,-5.4512,-5.4512,-5.4512,-5.4652,-5.4992,-5.4992,-5.5161,-5.5478,-5.5507,-5.5507,-5.5507,-5.5507,-5.5507,-5.5507,-5.5431,-5.5306,-5.5199,-5.4992,-5.4873,-5.478,-5.4575,-5.4512,-5.4512,-5.4512,-5.4512,-5.4512,-5.4512,-5.4512,-5.4512,0.0,0.0,0.0,0.0,0.0,0.0,0.0,0.0,0.0,0.0,0.0,0.0,0.0,0.0,0.0,0.0,0.0,0.0,-4.461,-4.461,-4.461,-4.461,-4.461,-4.4723,-4.4933,-4.4971,-4.4746,-4.4381,-4.5126,-4.5697,-4.604,-4.604,-4.6692,-4.7852,-4.6864,-4.7339,-4.894,-4.7655,-4.7737,-4.8593,-4.8032,-4.8016,0.0,0.0,0.0,0.0,0.0,0.0,0.0,0.0,-4.8099,-4.8001,0.0,-4.8001,-4.8001,-4.8066,-4.8033,-4.8001,-4.8066,-4.8497,-4.9044,-4.9343,-4.9393,-4.9974,-5.2109,-5.2408,-5.2471,-5.3524,-5.3563,-5.3235,-5.2684,-5.3028,-5.3408,-5.3408,-5.4029,-5.4512,-5.4512,-5.4512,-5.4512,-5.4512,-5.4512,-5.4512,-5.4512,-5.4512,-5.4512,-5.4512,-5.4512,-5.4512,-5.4512,-5.4512,-5.4637,-5.4917,-5.4961,-5.5144,-5.5401,-5.5478,-5.5507,-5.5507,-5.5507,-5.5507,-5.5507,-5.5507,-5.5431,-5.5277,-5.5083,-5.4948,-5.4842,-5.4606,-5.4512,-5.4512,-5.4512,-5.4512,-5.4512,-5.4512,-5.4512,-5.4512,0.0,0.0,0.0,0.0,0.0,0.0,0.0,0.0,0.0,0.0,0.0,0.0,0.0,0.0,0.0,0.0,0.0,0.0,-4.461,-4.461,-4.461,-4.461,-4.461,-4.4971,-4.5697,-4.5697,-4.5348,-4.461,-4.5348,-4.6092,-4.6811,-4.6811,-4.7187,-4.7917,-4.7885,-4.8306,-4.894,-4.8193,-4.7885,-4.7885,-4.7655,-4.7522,-4.7471,0.0,0.0,0.0,0.0,0.0,0.0,0.0,-4.8001,0.0,0.0,0.0,-4.8033,-4.8163,-4.8115,-4.8033,-4.8163,-4.8115,-4.8265,-4.916,-4.9409,-4.9991,-5.2109,-5.1921,-5.1932,-5.4075,-5.3925,-5.3408,-5.3408,-5.3408,-5.3408,-5.3408,-5.4029,-5.4512,-5.4512,-5.4512,-5.4512,-5.4512,-5.4512,-5.4512,-5.4512,-5.4512,-5.4512,-5.4512,-5.4512,-5.4512,-5.4512,-5.4512,-5.4575,-5.478,-5.4948,-5.5066,-5.5199,-5.5401,-5.5507,-5.5507,-5.5507,-5.5507,-5.5507,-5.5507,-5.5507,-5.5478,-5.5161,-5.4992,-5.4961,-5.462,-5.4512,-5.4512,-5.4512,-5.4512,-5.4512,-5.4512,-5.4512,-5.4512,0.0,0.0,0.0,0.0,0.0,0.0,0.0,0.0,0.0,0.0,0.0,0.0,0.0,0.0,0.0,0.0,0.0,0.0,-4.461,-4.461,-4.4821,-4.5348,-4.5384,-4.5733,-4.6464,-4.6464,-4.6111,-4.5384,-4.5588,-4.6092,-4.6811,-4.6811,-4.7456,-4.8656,-4.8129,-4.8015,-4.8161,-4.7456,-4.7422,-4.7852,-4.7103,-4.7439,-4.8373,0.0,0.0,0.0,0.0,0.0,0.0,0.0,0.0,0.0,0.0,0.0,-4.8033,-4.8163,-4.8115,-4.8033,-4.8163,-4.9042,-4.9809,-4.9492,-5.0359,-5.1496,-5.2282,-5.2328,-5.2656,-5.4178,-5.4339,-5.4029,-5.3494,-5.3822,-5.4011,-5.3494,-5.4029,-5.4512,-5.4512,-5.4512,-5.4512,-5.4512,-5.4512,-5.4512,-5.4512,-5.4512,-5.4512,-5.4512,-5.4512,-5.4512,-5.4512,-5.4512,-5.4575,-5.478,-5.4948,-5.5066,-5.5199,-5.5401,-5.5507,-5.5507,-5.5507,-5.5507,-5.5507,-5.5507,-5.5507,-5.5478,-5.5161,-5.4992,-5.4961,-5.462,-5.4512,-5.4512,-5.4512,-5.4512,-5.4512,-5.4512,-5.4512,-5.4512,0.0,0.0,0.0,0.0,0.0,0.0,0.0,0.0,0.0,0.0,-4.461,-4.461,0.0,0.0,0.0,0.0,0.0,0.0,0.0,0.0,-4.5253,-4.566,-4.5969,-4.6499,-4.7221,-4.7254,-4.7001,-4.6588,-4.6588,-4.6657,-4.6811,-4.7085,-4.7721,-4.8513,-4.7787,-4.7572,-4.7737,-4.7085,-4.7001,-4.7305,-4.6983,-4.7439,-4.8307,0.0,0.0,0.0,0.0,0.0,0.0,0.0,0.0,0.0,0.0,0.0,-4.8212,-4.8292,-4.8212,-4.8181,-4.8626,-4.9441,-5.0225,-5.0409,-5.1279,-5.2269,-5.2888,-5.3135,-5.3481,-5.4313,-5.4512,-5.4374,-5.3925,-5.4201,-5.4356,-5.3908,-5.4218,-5.4512,-5.4512,-5.4512,-5.4512,-5.4512,-5.4512,-5.4512,-5.4512,-5.4512,-5.4512,-5.4512,-5.4512,-5.4512,-5.4512,-5.4512,-5.4543,-5.4686,-5.4886,-5.5035,-5.5109,-5.5371,-5.5507,-5.5507,-5.5507,-5.5507,-5.5507,-5.5507,-5.5507,-5.5478,-5.5161,-5.4961,-5.4886,-5.4606,-5.4512,-5.4512,-5.4512,-5.4512,-5.4512,-5.4512,-5.4512,-5.4512,0.0,0.0,0.0,0.0,0.0,0.0,0.0,0.0,0.0,0.0,-4.461,-4.461,0.0,0.0,0.0,0.0,0.0,0.0,0.0,0.0,-4.5841,-4.5897,-4.6604,-4.7322,-4.7999,-4.7982,-4.795,-4.7885,-4.7819,-4.7489,-4.6914,-4.7522,-4.7852,-4.7852,-4.7119,-4.7001,-4.7389,-4.6967,-4.6673,-4.6604,-4.7152,-4.7522,-4.7754,-4.8081,0.0,0.0,0.0,0.0,0.0,0.0,0.0,0.0,-4.8195,-4.8324,-4.8483,-4.8483,-4.8406,-4.851,-4.9339,-4.9608,-5.0042,-5.1698,-5.2135,-5.2538,-5.3729,-5.411,-5.4239,-5.448,-5.4512,-5.4512,-5.4512,-5.4512,-5.4512,-5.4512,-5.4512,-5.4512,-5.4512,-5.4512,-5.4512,-5.4512,-5.4512,-5.4512,-5.4512,-5.4512,-5.4512,-5.4512,-5.4512,-5.4512,-5.4512,-5.4512,-5.4512,-5.4512,-5.4838,-5.4992,-5.4992,-5.5312,-5.5507,-5.5507,-5.5507,-5.5507,-5.5507,-5.5507,-5.5478,-5.5448,-5.5113,-5.493,-5.4842,-5.4606,-5.4543,-5.4589,-5.4543,-5.4512,-5.4512,-5.4512,-5.4512,-5.4512,0.0,0.0,0.0,0.0,0.0,0.0,0.0,0.0,0.0,0.0,0.0,0.0,0.0,0.0,0.0,0.0,0.0,0.0,0.0,0.0,-4.683,-4.7406,-4.8129,-4.8593,-4.8767,-4.875,-4.8482,-4.7885,-4.7322,-4.7254,-4.7655,-4.7221,-4.7355,-4.7852,-4.6967,-4.6378,-4.6147,-4.6413,-4.6638,-4.6777,-4.722,-4.7853,-4.8532,-4.8292,-4.8292,0.0,0.0,0.0,0.0,0.0,0.0,0.0,-4.8195,-4.8227,-4.826,-4.826,-4.8693,-4.9226,-4.9522,-5.0541,-5.1597,-5.2017,-5.2657,-5.3348,-5.3881,-5.4013,-5.411,-5.4448,-5.4512,-5.4512,-5.4512,-5.4512,-5.4512,-5.4512,-5.4512,-5.4512,-5.4512,-5.4512,-5.4512,-5.4512,-5.4512,-5.4512,-5.4512,-5.4512,-5.4512,-5.4512,-5.4512,-5.4512,-5.4512,-5.4512,-5.4512,-5.4512,-5.4838,-5.4992,-5.4992,-5.5312,-5.5507,-5.5507,-5.5507,-5.5507,-5.5507,-5.5507,-5.5359,-5.5113,-5.5022,-5.5079,-5.5242,-5.4697,-5.479,-5.5164,-5.4665,-5.4512,-5.4512,-5.4512,-5.4512,-5.4512,0.0,0.0,0.0,0.0,0.0,0.0,0.0,0.0,0.0,0.0,0.0,0.0,0.0,0.0,0.0,0.0,0.0,0.0,0.0,0.0,0.0,-4.8401,-4.8798,-4.9001,-4.9001,-4.9001,-4.8656,-4.7885,-4.7869,-4.7704,-4.7372,-4.7355,-4.7355,-4.7355,-4.6483,-4.6111,-4.6111,-4.6483,-4.683,-4.7238,-4.7836,-4.8388,-4.8863,-4.8595,-4.8564,-4.8627,-4.842,0.0,0.0,0.0,0.0,0.0,0.0,0.0,-4.8324,-4.8227,-4.851,-4.9009,-4.989,-5.0759,-5.1631,-5.2539,-5.3129,-5.3568,-5.3783,-5.3915,-5.4078,-5.4303,-5.4431,-5.4512,-5.4512,-5.4512,-5.4512,-5.4512,-5.4512,-5.4512,-5.4512,-5.4416,-5.4399,-5.448,-5.4399,-5.4399,-5.448,-5.4512,-5.4512,-5.4512,-5.4512,-5.4512,-5.4512,-5.4512,-5.4512,-5.4512,-5.4838,-5.4992,-5.4992,-5.5312,-5.5507,-5.5507,-5.5507,-5.5507,-5.5507,-5.5507,-5.5401,-5.5221,-5.5083,-5.5229,-5.5566,-5.4821,-5.4865,-5.5343,-5.4728,-5.4512,-5.4512,-5.4512,-5.4512,-5.4512,0.0,0.0,0.0,0.0,0.0,0.0,0.0,0.0,0.0,0.0,0.0,0.0,0.0,0.0,0.0,0.0,0.0,0.0,0.0,0.0,0.0,0.0,-4.9001,-4.9001,-4.9001,-4.9001,-4.8656,-4.7885,-4.8513,-4.8048,-4.6638,-4.7339,-4.7322,-4.6569,-4.5949,-4.5897,-4.6378,-4.6761,-4.7204,-4.7737,-4.8483,-4.8894,-4.897,-4.8832,-4.8818,-4.8769,-4.8578,-4.8483,-4.842,0.0,0.0,0.0,0.0,0.0,-4.842,-4.826,-4.8295,-4.8709,-5.0125,-5.0743,-5.1396,-5.3078,-5.3501,-5.3534,-5.3684,-5.3849,-5.4045,-5.4175,-5.4367,-5.4512,-5.4512,-5.4512,-5.4512,-5.4512,-5.4512,-5.4512,-5.4512,-5.4335,-5.4271,-5.4448,-5.4303,-5.4271,-5.4431,-5.448,-5.4512,-5.4512,-5.4512,-5.4512,-5.4512,-5.4512,-5.4512,-5.4512,-5.4838,-5.4992,-5.4992,-5.5312,-5.5507,-5.5507,-5.5507,-5.5507,-5.5507,-5.5507,-5.5478,-5.5431,-5.5113,-5.5396,-5.5929,-5.5035,-5.5061,-5.5629,-5.4926,-5.4652,-5.4652,-5.4526,-5.4512,-5.4512,0.0,0.0,0.0,0.0,0.0,0.0,0.0,0.0,0.0,0.0,-4.461,-4.461,0.0,0.0,0.0,0.0,0.0,0.0,0.0,0.0,0.0,-4.9001,-4.9001,-4.9001,-4.9001,-4.9001,-4.8656,-4.7885,-4.7999,-4.7305,-4.5877,-4.6604,-4.6569,-4.5841,-4.5551,-4.5588,-4.5861,-4.7019,-4.7638,-4.7917,-4.8564,-4.8894,-4.897,-4.8832,-4.8818,-4.8769,-4.8578,-4.8388,-4.8227,-4.8195,-4.8195,0.0,0.0,0.0,-4.8227,-4.8195,-4.8694,-4.9309,-4.9656,-5.0891,-5.2301,-5.3247,-5.3501,-5.3534,-5.3684,-5.3849,-5.4045,-5.4175,-5.4367,-5.4512,-5.4512,-5.4512,-5.4512,-5.4512,-5.4512,-5.4512,-5.4512,-5.4335,-5.419,-5.4239,-5.4239,-5.419,-5.4239,-5.4399,-5.4512,-5.4512,-5.4512,-5.4512,-5.4512,-5.4512,-5.4512,-5.4512,-5.4838,-5.4992,-5.4992,-5.5312,-5.5507,-5.5507,-5.5507,-5.5507,-5.5507,-5.5507,-5.5401,-5.5229,-5.5066,-5.5537,-5.6348,-5.5607,-5.5897,-5.6765,-5.5687,-5.5284,-5.5224,-5.4697,-5.4512,-5.4512,0.0,0.0,0.0,0.0,0.0,0.0,0.0,0.0,0.0,0.0,0.0,-4.5216,0.0,0.0,0.0,0.0,0.0,0.0,0.0,0.0,0.0,-4.9001,-4.9001,-4.9001,-4.9001,-4.8593,-4.8032,-4.7272,-4.7272,-4.6518,-4.5104,-4.5841,-4.5805,-4.5104,-4.5405,-4.5841,-4.6394,-4.7372,-4.8064,-4.8545,-4.8815,-4.9272,-4.9718,-4.9063,-4.921,-4.9715,-4.8902,-4.875,-4.8892,-4.8704,-4.8578,-4.8467,-4.8515,0.0,0.0,0.0,-4.8364,-4.8861,-4.9908,-5.1177,-5.2403,-5.3264,-5.3501,-5.3534,-5.3584,-5.3717,-5.3882,-5.4045,-5.4207,-5.4367,-5.448,-5.4512,-5.4512,-5.4512,-5.4512,-5.4512,-5.4512,-5.4335,-5.419,-5.419,-5.419,-5.419,-5.419,-5.4367,-5.4512,-5.4512,-5.4512,-5.4512,-5.4512,-5.4512,-5.4512,-5.4512,-5.4838,-5.4992,-5.4992,-5.5312,-5.5507,-5.5507,-5.5507,-5.5507,-5.5507,-5.5507,-5.5401,-5.5229,-5.5425,-5.5883,-5.6456,-5.6055,-5.6367,-5.6989,-5.5858,-5.5385,-5.5343,-5.4728,-5.4512,-5.4512,0.0,0.0,0.0,0.0,0.0,0.0,0.0,0.0,0.0,0.0,0.0,0.0,0.0,0.0,0.0,0.0,0.0,0.0,0.0,0.0,0.0,-4.9001,-4.9001,-4.9001,-4.9001,-4.8482,-4.7737,-4.6811,-4.6811,-4.6056,-4.461,-4.5179,-4.5253,-4.4896,-4.566,-4.6394,-4.7119,-4.7869,-4.8513,-4.9018,-4.9252,-4.98,-5.0334,-4.954,-4.9783,-5.0404,-4.9238,-4.906,-4.9337,-4.9094,-4.8892,-4.875,-4.8704,-4.842,0.0,0.0,0.0,-4.8397,-4.9958,-5.091,-5.1731,-5.2859,-5.3129,-5.3197,-5.3467,-5.3601,-5.375,-5.3948,-5.411,-5.4271,-5.4463,-5.4512,-5.4512,-5.4512,-5.4512,-5.4512,-5.4512,-5.4335,-5.419,-5.419,-5.419,-5.419,-5.419,-5.4367,-5.4512,-5.4512,-5.4512,-5.4512,-5.4512,-5.4512,-5.4512,-5.4512,-5.4776,-5.4948,-5.4948,-5.5282,-5.5448,-5.5507,-5.5507,-5.5507,-5.5507,-5.5507,-5.546,-5.5408,-5.5758,-5.6136,-5.651,-5.6492,-5.6835,-5.7234,-5.6231,-5.5744,-5.556,-5.4957,-5.462,-5.4512,0.0,0.0,0.0,0.0,0.0,0.0,0.0,0.0,0.0,0.0,0.0,0.0,-4.6742,-4.7456,-4.7885,-4.7885,0.0,0.0,0.0,0.0,0.0,-4.9001,-4.9001,0.0,-4.9001,-4.897,-4.8258,-4.6811,-4.6811,-4.6056,-4.461,-4.4648,-4.4993,-4.566,-4.6394,-4.7153,-4.7885,-4.8625,-4.897,-4.9069,-4.9983,-5.0351,-5.0416,-5.0486,-5.0489,-5.0283,-4.9471,-4.9107,-4.9032,-4.9001,-4.9001,-4.9001,-4.9138,-4.8861,-4.8515,0.0,0.0,0.0,-4.9226,-4.9608,-5.0123,-5.1765,-5.2152,-5.2421,-5.3298,-5.3601,-5.375,-5.3948,-5.411,-5.4271,-5.4463,-5.4512,-5.4512,-5.4512,-5.4512,-5.4512,-5.4512,-5.4335,-5.419,-5.419,-5.419,-5.419,-5.419,-5.4367,-5.4512,-5.4512,-5.4512,-5.4512,-5.4512,-5.4512,-5.4512,-5.4512,-5.4717,-5.4811,-5.4811,-5.5066,-5.5306,-5.5507,-5.5507,-5.5507,-5.5507,-5.5507,-5.5637,-5.5844,-5.589,-5.6136,-5.6537,-5.6912,-5.7407,-5.7886,-5.7259,-5.6686,-5.6193,-5.5589,-5.497,-5.4512,0.0,0.0,0.0,0.0,0.0,0.0,0.0,0.0,0.0,0.0,0.0,0.0,0.0,-4.8161,-4.8625,-4.8625,-4.8861,0.0,0.0,0.0,0.0,-4.9001,-4.9001,-4.9001,-4.9001,-4.8545,-4.7787,-4.6811,-4.6324,-4.5588,-4.461,-4.461,-4.5253,-4.6429,-4.6673,-4.7221,-4.795,-4.8937,-4.9337,-4.9405,-5.0291,-5.1011,-5.1466,-5.0741,-5.123,-5.2132,-5.0632,-5.0188,-5.0343,-5.0343,-4.9881,-4.9337,-4.9398,-4.9138,-4.8846,-4.8892,-4.8673,-4.8587,-4.9486,-4.9589,-4.9758,-5.0927,-5.1631,-5.2202,-5.2505,-5.3095,-5.3634,-5.3948,-5.4045,-5.4143,-5.4448,-5.4512,-5.4512,-5.4512,-5.4399,-5.4303,-5.4303,-5.4175,-5.4078,-5.4078,-5.4143,-5.419,-5.419,-5.4367,-5.4512,-5.4512,-5.4512,-5.4512,-5.4512,-5.4512,-5.4512,-5.4512,-5.4686,-5.4842,-5.4917,-5.5126,-5.5229,-5.5306,-5.5431,-5.5507,-5.5507,-5.5861,-5.5957,-5.5929,-5.6679,-5.6948,-5.6938,-5.7449,-5.7797,-5.7909,-5.6964,-5.6465,-5.6193,-5.5194,-5.4683,-5.4512,0.0,0.0,0.0,0.0,0.0,0.0,0.0,0.0,0.0,-4.7505,0.0,0.0,0.0,0.0,-4.9001,-4.9001,-4.9001,-4.9001,-4.9001,-4.9001,-4.9001,-4.9001,-4.9001,-4.9001,-4.9001,-4.8748,-4.8166,-4.7187,-4.6934,-4.6171,-4.4971,-4.52,-4.5877,-4.6811,-4.7051,-4.7589,-4.8338,-4.9152,-4.9518,-4.9603,-5.0807,-5.1632,-5.2136,-5.1363,-5.1871,-5.2808,-5.1348,-5.0961,-5.1149,-5.1407,-5.1,-5.0369,-5.0129,-4.9632,-4.9155,-4.9032,-4.8846,-4.8791,-4.9312,-4.935,-4.9421,-5.0108,-5.0875,-5.161,-5.2083,-5.2756,-5.3428,-5.3962,-5.4078,-5.4143,-5.4448,-5.4512,-5.4512,-5.4512,-5.4367,-5.4271,-5.419,-5.4143,-5.4045,-5.403,-5.411,-5.419,-5.419,-5.4367,-5.4512,-5.4512,-5.4512,-5.4512,-5.4512,-5.4512,-5.4512,-5.4512,-5.4637,-5.4762,-5.4948,-5.5066,-5.5169,-5.5199,-5.5401,-5.5507,-5.5507,-5.6014,-5.6219,-5.6219,-5.7145,-5.737,-5.7141,-5.775,-5.7997,-5.7909,-5.7159,-5.6625,-5.6193,-5.5385,-5.4834,-5.4512,0.0,0.0,0.0,0.0,0.0,0.0,0.0,0.0,-4.8193,-4.8909,0.0,0.0,0.0,0.0,0.0,-4.9001,-4.9001,-4.9001,-4.9001,-4.9001,-4.9001,-4.9001,0.0,0.0,0.0,-4.9695,-4.9345,-4.7852,-4.8614,-4.7822,-4.5697,-4.6429,-4.6777,-4.6846,-4.7556,-4.8306,-4.9032,-4.9367,-4.9518,-4.9667,-5.1494,-5.2218,-5.2218,-5.245,-5.2438,-5.2183,-5.1585,-5.1267,-5.1287,-5.1981,-5.2188,-5.2033,-5.1321,-5.0356,-4.9458,-4.9124,-4.9032,-4.894,0.0,0.0,0.0,-4.9307,-4.9862,-5.0646,-5.2027,-5.2544,-5.3039,-5.3969,-5.4173,-5.4237,-5.4463,-5.4512,-5.4512,-5.4512,-5.4512,-5.4399,-5.4222,-5.419,-5.4143,-5.4013,-5.411,-5.4207,-5.419,-5.4367,-5.4512,-5.4512,-5.4512,-5.4512,-5.4512,-5.4512,-5.4512,-5.4512,-5.4512,-5.4575,-5.4797,-5.4948,-5.5066,-5.5199,-5.5401,-5.5507,-5.5537,-5.5929,-5.6339,-5.6731,-5.722,-5.732,-5.7166,-5.775,-5.7997,-5.7997,-5.7973,-5.7302,-5.6303,-5.6276,-5.5531,-5.4512,0.0,0.0,0.0,0.0,0.0,0.0,-4.7852,-4.8338,-4.8767,0.0,0.0,0.0,-4.9367,-4.9367,-4.9277,-4.9032,-4.9001,-4.9001,-4.9001,-4.9001,-4.9001,-4.9001,-4.9001,-4.9001,-4.9001,-4.9204,-4.8587,-4.7119,-4.7853,0.0,0.0,0.0,-4.6288,-4.6811,-4.7255,-4.816,-4.9398,-4.9679,-4.9942,-5.0281,-5.1911,-5.2565,-5.2587,-5.2978,-5.3439,-5.377,-5.3059,-5.28,-5.2804,-5.3011,-5.2339,-5.1287,-5.0545,-5.0107,-4.9848,-4.9759,-4.9564,-4.9337,-4.9229,0.0,0.0,0.0,0.0,0.0,-5.0798,-5.1466,-5.2269,-5.3212,-5.3398,-5.3633,-5.4376,-5.4512,-5.4512,-5.4512,-5.4367,-5.4239,-5.4078,-5.3948,-5.3799,-5.3783,-5.3948,-5.411,-5.419,-5.4367,-5.4512,-5.4512,-5.4512,-5.4512,-5.4512,-5.4512,-5.4512,-5.4512,-5.4512,-5.4512,-5.4575,-5.4869,-5.5022,-5.5066,-5.5341,-5.5706,-5.608,-5.6483,-5.693,-5.737,-5.7792,-5.7886,-5.7774,-5.7932,-5.7997,-5.7973,-5.7522,-5.6912,-5.6248,-5.5801,-5.5164,-5.4512,0.0,0.0,0.0,0.0,0.0,0.0,-4.856,-4.8937,-4.9246,0.0,0.0,0.0,-4.9679,-4.9577,-4.9428,-4.9216,-4.9094,-4.9001,-4.9001,-4.9001,-4.9001,-4.9001,-4.9001,-4.9001,-4.9001,-4.9306,-4.8895,0.0,0.0,0.0,0.0,0.0,-4.7137,-4.7288,-4.7917,-4.8745,-4.9679,-4.9982,-5.0228,-5.0537,-5.2074,-5.2683,-5.277,-5.3264,-5.3729,-5.3994,-5.3608,-5.3452,-5.346,-5.377,-5.2839,-5.1464,-5.1063,-5.0511,-5.0011,-5.0011,-4.9877,-4.9683,-4.9547,-4.9458,-4.9354,-4.9063,0.0,0.0,-5.0765,-5.1415,-5.2252,-5.3441,-5.3696,-5.3834,-5.4394,-5.4512,-5.4512,-5.4512,-5.4399,-5.4271,-5.411,-5.3948,-5.3816,-5.3816,-5.3915,-5.4045,-5.4207,-5.4367,-5.4512,-5.4512,-5.4512,-5.4512,-5.4512,-5.4512,-5.4512,-5.4512,-5.4512,-5.4512,-5.4512,-5.4793,-5.493,-5.5022,-5.5496,-5.594,-5.6311,-5.6905,-5.7345,-5.7625,-5.7973,-5.8065,-5.7997,-5.7997,-5.7997,-5.7932,-5.7333,-5.6765,-5.6221,-5.5618,-5.5,-5.4512,0.0,0.0,0.0,0.0,0.0,-4.9155,-4.9471,-4.953,-4.9619,0.0,-4.9924,-4.9971,-4.9971,-4.9737,-4.956,-4.9547,-4.926,-4.9094,-4.9032,-4.9063,-4.9063,-4.897,-4.9001,-4.9001,-4.9001,-4.9644,-4.9613,0.0,0.0,0.0,0.0,0.0,-4.8545,-4.7982,0.0,-4.9602,-4.9982,-5.0313,-5.0495,-5.0658,-5.2138,-5.2683,-5.277,-5.3441,-5.3635,-5.356,-5.3648,-5.3618,-5.3615,-5.4184,-5.3477,-5.2291,-5.2119,-5.1235,-5.0218,-5.0062,-5.0062,-5.0039,-4.9671,-4.9772,-4.9877,-4.9246,-4.9594,0.0,-5.1298,-5.176,-5.239,-5.3839,-5.4132,-5.4149,-5.4236,-5.4253,-5.4253,-5.4253,-5.4322,-5.4345,-5.4222,-5.4078,-5.398,-5.398,-5.398,-5.4045,-5.4207,-5.4367,-5.4512,-5.4512,-5.4512,-5.4512,-5.4512,-5.4512,-5.4512,-5.4512,-5.4512,-5.4512,-5.4512,-5.4686,-5.4873,-5.5022,-5.5669,-5.613,-5.6375,-5.722,-5.7625,-5.7673,-5.7886,-5.7997,-5.7997,-5.7997,-5.7997,-5.795,-5.7407,-5.6835,-5.6248,-5.5705,-5.5091,-5.4512,0.0,0.0,0.0,0.0,0.0,0.0,-4.9796,-4.9808,-4.9837,-4.9895,-5.0143,-5.0285,-5.0285,-5.0274,-5.0114,-4.9854,-4.975,-4.9573,-4.9195,-4.9424,-4.9367,-4.8863,-4.9063,-4.9107,-4.9001,-4.9137,-4.8854,-4.8129,0.0,0.0,0.0,0.0,-4.8193,-4.8304,-4.8742,-4.9445,-5.0313,-5.0655,-5.1077,-5.1601,-5.2376,-5.2683,-5.281,-5.3908,-5.4319,-5.4287,-5.4319,-5.4319,-5.4236,-5.377,-5.3408,-5.2959,-5.1718,-5.1498,-5.1563,-5.0355,-5.0424,-5.074,-5.0078,-5.0034,-5.012,-4.986,-5.0063,0.0,-5.0326,-5.0466,-5.0795,-5.161,-5.177,-5.1959,-5.2546,-5.2666,-5.2666,-5.2666,-5.3201,-5.3759,-5.4154,-5.4078,-5.398,-5.398,-5.398,-5.4045,-5.4207,-5.4367,-5.4512,-5.4512,-5.4512,-5.4512,-5.4512,-5.4512,-5.4512,-5.4512,-5.4512,-5.4512,-5.4512,-5.4686,-5.4873,-5.5022,-5.5669,-5.6277,-5.6809,-5.7345,-5.7768,-5.8065,-5.802,-5.7997,-5.7997,-5.7997,-5.7997,-5.7997,-5.7862,-5.7184,-5.6276,-5.6166,-5.5443,-5.4512,-4.8574,-4.8717,0.0,0.0,0.0,0.0,-5.0114,-5.0143,-5.02,-5.0387,-5.0554,-5.0655,-5.0655,-5.0499,-5.0313,-5.0171,-4.9999,-4.9808,-4.9555,-4.972,-4.9679,-4.935,-4.935,-4.932,-4.9246,-4.8719,-4.8274,-4.7885,0.0,0.0,0.0,0.0,-4.8289,-4.8981,-4.9235,-4.9727,-5.0415,-5.0764,-5.1265,-5.1839,-5.2445,-5.2879,-5.3259,-5.4174,-5.4512,-5.4512,-5.4512,-5.4512,-5.4443,-5.408,-5.3442,-5.2753,-5.2373,-5.1977,-5.1528,-5.0787,-5.0821,-5.0942,-5.02,-5.0051,-5.0063,-5.004,-5.0109,0.0,0.0,-5.0604,-5.084,-5.1511,-5.1726,-5.1877,-5.2149,-5.2339,-5.2446,-5.2356,-5.2995,-5.3466,-5.3373,-5.3791,-5.4143,-5.4257,-5.4143,-5.4175,-5.4335,-5.4448,-5.4512,-5.4512,-5.4512,-5.4512,-5.4512,-5.4512,-5.4512,-5.4512,-5.4512,-5.4512,-5.4512,-5.4606,-5.4762,-5.5022,-5.589,-5.6501,-5.6938,-5.766,-5.8065,-5.8197,-5.8065,-5.7997,-5.7997,-5.7997,-5.7821,-5.7522,-5.7277,-5.6809,-5.6221,-5.5601,-5.5,-5.4512,-4.953,-4.9577,-4.9679,0.0,0.0,0.0,0.0,-5.0453,-5.0554,-5.0819,-5.0846,-5.0846,-5.0891,-5.0749,-5.0669,-5.0669,-5.0535,-5.0333,-5.0149,-5.0178,-5.0109,-4.9884,-4.9708,-4.9637,-4.956,-4.8685,-4.8161,-4.7982,0.0,0.0,0.0,0.0,-4.848,-4.9394,-4.9934,-5.031,-5.0499,-5.0912,-5.142,-5.202,-5.2497,-5.3046,-5.3658,-5.4281,-5.4512,-5.4512,-5.4512,-5.4512,-5.4494,-5.4339,-5.3477,-5.2481,-5.2856,-5.2321,-5.1476,-5.1028,-5.1097,-5.1132,-5.0252,-5.0022,-5.0022,-5.0011,-5.0022,-5.0207,0.0,0.0,0.0,-5.1666,-5.1894,-5.1954,-5.1804,-5.2013,-5.2189,-5.2072,-5.2696,-5.2973,-5.2396,-5.3214,-5.3969,-5.4032,-5.4146,-5.4203,-5.4273,-5.4319,-5.4371,-5.4494,-5.4405,-5.4388,-5.4494,-5.4512,-5.4512,-5.4512,-5.4512,-5.4512,-5.4512,-5.4512,-5.4714,-5.5109,-5.6095,-5.6711,-5.7033,-5.7955,-5.8305,-5.8152,-5.8042,-5.7997,-5.7997,-5.7886,-5.7546,-5.7065,-5.6607,-5.633,-5.5999,-5.5031,-5.4589,-5.4512,-4.9837,-4.9837,-4.9971,-5.0285,0.0,0.0,0.0,0.0,-5.0585,-5.063,-5.0612,-5.0702,-5.0891,-5.1339,-5.1629,-5.1629,-5.2097,-5.198,-5.1023,-5.1205,-5.0835,-4.9772,-4.9971,-5.0046,-4.9866,-4.9483,-4.9012,-4.8336,0.0,0.0,0.0,0.0,-4.8541,-4.8958,-5.0462,-5.1041,-5.0871,-5.1462,-5.2055,-5.259,-5.2677,-5.3046,-5.3658,-5.4281,-5.4512,-5.4512,-5.4512,-5.4512,-5.4408,-5.3753,-5.3408,-5.3046,-5.177,-5.2183,-5.2735,-5.0718,-5.1063,-5.1757,-5.039,-5.0109,-5.0149,-5.0022,-5.0178,-5.0291,-5.0172,0.0,-5.0287,-5.0264,0.0,-5.0298,-5.0252,0.0,0.0,-5.0477,-5.1188,-5.1697,-5.161,-5.2328,-5.2765,-5.2477,-5.3479,-5.4014,-5.3566,-5.3618,-5.3925,-5.446,-5.3998,-5.3942,-5.4477,-5.4512,-5.4512,-5.4512,-5.4512,-5.4512,-5.4512,-5.4512,-5.4834,-5.5543,-5.615,-5.6747,-5.7363,-5.795,-5.8152,-5.802,-5.7997,-5.7997,-5.7973,-5.7407,-5.7166,-5.7073,-5.7022,-5.6394,-5.5473,-5.5343,-5.4957,-5.4512,-5.0171,-5.02,-5.0285,-5.061,0.0,0.0,0.0,0.0,-5.0585,-5.0585,-5.0702,-5.0819,-5.0891,-5.1134,-5.142,-5.1763,-5.2037,-5.1986,-5.1541,-5.1621,-5.1272,-5.045,-5.0274,-5.016,-5.0086,-4.9342,-4.8821,-4.8524,-4.8029,0.0,0.0,0.0,-4.9002,-4.9774,-5.0818,-5.1343,-5.1455,-5.1686,-5.2148,-5.2683,-5.2683,-5.3046,-5.3658,-5.4281,-5.4512,-5.4512,-5.4512,-5.4512,-5.446,-5.4149,-5.3442,-5.2753,-5.2994,-5.2615,-5.1977,-5.1442,-5.1425,-5.1309,-5.0287,-5.0333,-5.0616,-5.0114,-5.0408,-5.0656,-5.0126,-5.0051,-5.008,-4.9993,0.0,0.0,0.0,0.0,0.0,0.0,-5.087,-5.1228,-5.0795,-5.1696,-5.2399,-5.2386,-5.2848,-5.3266,-5.3391,-5.3452,-5.3763,-5.446,-5.3867,-5.378,-5.446,-5.4512,-5.4512,-5.4512,-5.4512,-5.4512,-5.4512,-5.4512,-5.4865,-5.5629,-5.6132,-5.6755,-5.7412,-5.795,-5.8129,-5.7997,-5.7997,-5.7997,-5.7973,-5.7726,-5.7234,-5.6652,-5.6652,-5.612,-5.5373,-5.5,-5.4728,-5.4512,-5.0425,-5.0453,-5.0537,-5.0792,-5.0675,0.0,0.0,-5.0519,-5.0547,-5.0547,-5.0702,-5.0846,-5.0891,-5.1205,-5.1584,-5.2003,-5.2352,-5.2376,-5.2015,-5.1998,-5.1688,-5.1087,-5.0547,-5.0378,-5.0643,-4.9594,-4.8941,-4.8785,-4.8249,0.0,0.0,0.0,-4.9304,-5.0126,-5.098,-5.1517,-5.1815,-5.1968,-5.2387,-5.2937,-5.2937,-5.3177,-5.3614,-5.425,-5.4512,-5.4512,-5.4512,-5.4512,-5.4477,-5.427,-5.346,-5.2701,-5.3598,-5.2908,-5.1804,-5.2101,-5.1994,-5.1528,-5.0621,-5.073,-5.0925,-5.0241,-5.0436,-5.0666,-5.0131,-5.0011,-5.0011,-5.0011,-5.008,0.0,0.0,0.0,-5.0313,-5.0217,0.0,-5.087,-5.0315,-5.1095,-5.1746,-5.1852,-5.2042,-5.2446,-5.3103,-5.2952,-5.3228,-5.4132,-5.3542,-5.3573,-5.446,-5.4512,-5.4512,-5.4512,-5.4512,-5.4512,-5.4512,-5.4512,-5.4865,-5.5543,-5.6112,-5.6695,-5.7345,-5.7886,-5.8088,-5.7997,-5.7997,-5.7997,-5.7997,-5.7821,-5.7259,-5.6492,-5.6193,-5.5773,-5.5343,-5.4728,-5.4512,-5.4512,-5.0585,-5.0585,-5.0585,-5.0612,-5.0509,-5.0341,-5.0246,-5.0313,-5.0415,-5.0415,-5.0519,-5.0684,-5.0891,-5.1926,-5.266,-5.2677,-5.3731,-5.3863,-5.2545,-5.2488,-5.2183,-5.1529,-5.0769,-5.0819,-5.1717,-5.0684,-4.9844,-4.9283,-4.8921,0.0,0.0,0.0,0.0,-4.9393,-5.0841,-5.1621,-5.185,-5.2422,-5.3023,-5.3567,-5.3567,-5.351,-5.3477,-5.4218,-5.4512,-5.4512,-5.4512,-5.4512,-5.4391,-5.3684,-5.3408,-5.3235,-5.2511,-5.277,-5.3184,-5.2412,-5.2735,-5.3025,-5.162,-5.1181,-5.0954,-5.0351,-5.0109,-5.0045,-5.0011,-5.0011,-5.0011,-5.0011,-4.9993,-5.0011,-5.0011,-5.012,-5.0217,-5.0189,-5.032,0.0,0.0,-5.0422,-5.04,-5.0287,-5.0899,-5.1644,-5.2441,-5.1817,-5.1919,-5.3322,-5.287,-5.3125,-5.4425,-5.4512,-5.4512,-5.4512,-5.4512,-5.4512,-5.4512,-5.4512,-5.4821,-5.5414,-5.6027,-5.6599,-5.7141,-5.7726,-5.7997,-5.7997,-5.7997,-5.7997,-5.7932,-5.7358,-5.7116,-5.6971,-5.5858,-5.5414,-5.5343,-5.4728,-5.4512,-5.4512,-5.0453,-5.0397,-5.0369,-5.0453,-5.0341,-5.0217,-5.0109,-5.0246,-5.0533,-5.0933,-5.122,-5.157,-5.2037,-5.2474,-5.2862,-5.3259,-5.3658,-5.3506,-5.2545,-5.2493,-5.2188,-5.1535,-5.0798,-5.0763,-5.1586,-5.0865,-5.0345,-5.017,-5.0187,-4.9982,0.0,0.0,0.0,-5.0205,-5.1255,-5.1945,-5.2422,-5.2608,-5.3028,-5.3567,-5.3065,-5.3078,-5.3425,-5.3684,-5.377,-5.3839,-5.4322,-5.4512,-5.4477,-5.4218,-5.3804,-5.3442,-5.3667,-5.3218,-5.2666,-5.2925,-5.2822,-5.2494,-5.2019,-5.2248,-5.2352,-5.1216,-5.1198,-5.12,-5.0345,-5.008,-5.0011,-5.0011,-5.0011,-5.0011,-5.0011,-5.0022,-5.0109,-5.0189,-5.0178,-5.0206,0.0,-5.0481,-5.0519,-5.0464,-5.0876,-5.1319,-5.1679,-5.1832,-5.2343,-5.3441,-5.3272,-5.3521,-5.446,-5.4512,-5.4512,-5.4512,-5.4512,-5.4512,-5.4512,-5.4512,-5.4821,-5.5414,-5.5999,-5.6581,-5.7116,-5.7708,-5.7997,-5.7997,-5.7997,-5.7997,-5.7973,-5.7774,-5.7474,-5.704,-5.6285,-5.5744,-5.5343,-5.4728,-5.4512,-5.4512,-5.0302,-5.0217,-5.0178,-5.0302,-5.0217,-5.0092,-4.9993,-5.0178,-5.0563,-5.1223,-5.1535,-5.1945,-5.2642,-5.2897,-5.3172,-5.3567,-5.38,-5.3493,-5.2455,-5.2645,-5.2515,-5.1777,-5.1304,-5.1437,-5.2242,-5.1377,-5.0921,-5.0921,-5.0842,-5.0702,0.0,0.0,0.0,-5.062,-5.105,-5.1784,-5.27,-5.2653,-5.3142,-5.3821,-5.2801,-5.2637,-5.2977,-5.2977,-5.3166,-5.3494,-5.4253,-5.4512,-5.4512,-5.4512,-5.4184,-5.3873,-5.4356,-5.3822,-5.3132,-5.3649,-5.3425,-5.2977,-5.2762,-5.3025,-5.3128,-5.2013,-5.1976,-5.189,-5.0766,-5.0448,-5.0321,-5.0062,-5.0011,-5.0011,-5.0011,-5.0011,-5.0051,-5.0189,-5.012,-5.0149,0.0,-5.0464,-5.0519,-5.0519,-5.0747,-5.1049,-5.1321,-5.1476,-5.2018,-5.3134,-5.313,-5.3397,-5.4157,-5.4388,-5.4512,-5.4512,-5.4512,-5.4512,-5.4512,-5.4512,-5.4714,-5.5091,-5.5915,-5.6492,-5.6843,-5.7637,-5.7997,-5.7997,-5.7997,-5.7997,-5.7997,-5.7997,-5.7774,-5.7358,-5.6809,-5.6231,-5.5618,-5.4821,-5.4512,-5.4512,-5.0189,-5.0109,-5.0051,-5.016,-5.0063,-5.0011,-5.0011,-5.012,-5.0466,-5.1246,-5.1466,-5.1883,-5.2717,-5.3281,-5.3654,-5.3654,-5.4174,-5.3873,-5.2343,-5.2994,-5.3063,-5.2274,-5.2235,-5.2671,-5.3584,-5.2224,-5.15,-5.15,-5.0886,-5.0519,0.0,0.0,0.0,-5.0585,-5.0341,-5.1136,-5.263,-5.2513,-5.3199,-5.427,-5.2774,-5.2188,-5.2188,-5.2222,-5.2735,-5.3494,-5.4253,-5.4512,-5.4512,-5.4512,-5.4512,-5.4512,-5.4512,-5.4512,-5.4512,-5.4512,-5.4512,-5.4371,-5.38,-5.3549,-5.3301,-5.2705,-5.2408,-5.208,-5.1338,-5.1166,-5.0976,-5.0252,-5.0114,-5.0097,-5.0062,-5.0062,-5.0103,-5.016,-5.0217,-5.0274,-5.0369,-5.0415,-5.0415,-5.0415,-5.0547,-5.0826,-5.1389,-5.085,-5.1037,-5.2401,-5.2505,-5.2822,-5.3619,-5.4157,-5.4477,-5.4512,-5.4512,-5.4512,-5.4512,-5.4512,-5.4512,-5.4557,-5.5762,-5.6303,-5.6384,-5.7474,-5.7997,-5.7997,-5.7997,-5.7997,-5.7997,-5.7997,-5.7973,-5.7886,-5.7309,-5.6713,-5.6083,-5.4926,-5.4512,-5.4512,-5.0051,-5.0022,-4.9993,-5.0051,-5.0022,-5.0011,-5.0011,-5.012,-5.0628,-5.1812,-5.2134,-5.2683,-5.3912,-5.4192,-5.4281,-5.4281,-5.4422,-5.4115,-5.3166,-5.3287,-5.3304,-5.3115,-5.2667,-5.2792,-5.3584,-5.2224,-5.15,-5.15,-5.0791,-5.0369,-5.0246,0.0,0.0,0.0,-5.0492,-5.1078,-5.202,-5.1842,-5.2164,-5.2739,-5.2343,-5.2188,-5.2257,-5.2873,-5.3218,-5.3494,-5.4253,-5.4512,-5.4512,-5.4512,-5.4512,-5.4512,-5.4512,-5.4512,-5.4512,-5.4512,-5.4512,-5.4477,-5.4302,-5.425,-5.406,-5.3485,-5.3203,-5.2921,-5.2282,-5.2032,-5.1843,-5.1653,-5.1649,-5.1476,-5.0925,-5.0838,-5.069,-5.0275,-5.0369,-5.0519,-5.0547,-5.0692,-5.0764,-5.0764,-5.0792,-5.0834,-5.0837,-5.1063,-5.1622,-5.2584,-5.2552,-5.3034,-5.4212,-5.3905,-5.3942,-5.4494,-5.4512,-5.4512,-5.4512,-5.4512,-5.4728,-5.5164,-5.5943,-5.6519,-5.692,-5.766,-5.7997,-5.7997,-5.7997,-5.7997,-5.7997,-5.7997,-5.775,-5.7284,-5.6731,-5.5887,-5.4926,-5.462,-5.4512,-5.4512,-5.0011,-5.0011,-5.0011,-5.0011,-5.0287,-5.0493,-5.0493,-5.0287,-5.0598,-5.2028,-5.2296,-5.2775,-5.3891,-5.4322,-5.4512,-5.4512,-5.4512,-5.4201,-5.346,-5.3701,-5.3736,-5.3408,-5.338,-5.3549,-5.3963,-5.2956,-5.2235,-5.18,-5.1124,-5.0575,-5.012,0.0,0.0,0.0,-5.0397,-5.0861,-5.1616,-5.2131,-5.2282,-5.2222,-5.2597,-5.2735,0.0,-5.3235,-5.3598,-5.3942,-5.4356,-5.4512,-5.4512,-5.4512,-5.4512,-5.4512,-5.4512,-5.4512,-5.4512,-5.4512,-5.4512,-5.4512,-5.4512,-5.4512,-5.4408,-5.4084,-5.3936,-5.3715,-5.3047,-5.2814,-5.2632,-5.2257,-5.2188,-5.205,-5.1666,-5.1338,-5.0914,-5.0367,-5.0464,-5.063,-5.0729,-5.0819,-5.0891,-5.0891,-5.0891,-5.0846,-5.0729,-5.1049,-5.1514,-5.2138,-5.212,-5.2367,-5.3082,-5.3284,-5.3598,-5.4011,-5.4029,-5.4184,-5.4512,-5.4412,-5.4712,-5.5414,-5.6258,-5.6791,-5.7116,-5.7708,-5.7997,-5.7997,-5.7997,-5.7997,-5.7973,-5.7726,-5.7425,-5.7022,-5.6203,-5.5502,-5.4865,-5.4589,-5.4512,-5.4512,-5.0011,-5.0011,-5.0011,-5.0011,-5.0614,-5.1149,-5.1235,-5.0718,-5.0804,-5.2201,-5.2343,-5.2666,-5.346,-5.4132,-5.4512,-5.4512,-5.4512,-5.4236,-5.3598,-5.4149,-5.4218,-5.358,-5.4167,-5.4512,-5.4512,-5.3877,-5.313,-5.2188,-5.1561,-5.0847,0.0,0.0,0.0,-5.0189,-5.0189,-5.0605,-5.1384,-5.2632,-5.2783,-5.2257,-5.308,-5.3408,-5.3408,-5.3511,-5.3942,-5.4512,-5.4512,-5.4512,-5.4512,-5.4512,-5.4512,-5.4512,-5.4512,-5.4512,-5.4512,-5.4512,-5.4512,-5.4512,-5.4512,-5.4512,-5.4512,-5.4512,-5.4512,-5.4339,-5.3701,-5.3546,-5.3356,-5.2666,-5.2481,-5.2463,-5.236,-5.1653,-5.0978,-5.0574,-5.0621,-5.0794,-5.109,-5.1134,-5.1099,-5.1021,-5.1021,0.0,-5.0908,-5.0891,-5.108,-5.1505,-5.1442,-5.1425,-5.1575,-5.2654,-5.3339,-5.3546,-5.3546,-5.3836,-5.4465,-5.4311,-5.4618,-5.5373,-5.6474,-5.7022,-5.7116,-5.7708,-5.7997,-5.7997,-5.7997,-5.7997,-5.7973,-5.7431,-5.7141,-5.6869,-5.5744,-5.5284,-5.5224,-5.4697,-5.4512,-5.4512,-5.0011,-5.0011,-5.0011,-5.0011,-5.0614,-5.1321,-5.1895,-5.1895,-5.2166,-5.308,-5.3201,-5.3494,-5.4236,-5.4425,-5.4512,-5.4512,-5.4512,-5.446,-5.4322,-5.4443,-5.4443,-5.4322,-5.4443,-5.4512,-5.4512,-5.3801,-5.3042,-5.2188,-5.1459,-5.0764,0.0,0.0,0.0,-5.0189,-5.0189,-5.0605,-5.1315,-5.168,-5.1961,-5.2257,-5.308,-5.3408,-5.3477,-5.408,-5.4391,-5.4512,-5.4512,-5.4512,-5.4512,-5.4512,-5.4512,-5.4512,-5.4512,-5.4512,-5.4512,-5.4512,-5.4512,-5.4512,-5.4512,-5.4512,-5.4512,-5.4512,-5.4512,-5.4477,-5.4339,-5.4322,-5.427,-5.4132,-5.4115,-5.3925,-5.3304,-5.2046,-5.1122,-5.1124,-5.1148,-5.1477,-5.2283,-5.237,-5.2201,-5.1703,-5.1661,-5.1455,-5.0961,-5.0891,-5.1125,-5.1699,-5.1028,-5.1338,-5.3099,-5.2706,-5.3011,-5.427,-5.4322,-5.4295,-5.4238,-5.4383,-5.4697,-5.5168,-5.6027,-5.666,-5.7116,-5.7708,-5.7997,-5.7997,-5.7997,-5.7997,-5.7997,-5.7886,-5.7284,-5.6312,-5.5104,-5.4652,-5.4652,-5.4526,-5.4512,-5.4512,-5.0011,-5.0011,-5.0131,-5.0511,-5.1183,-5.1912,-5.2718,-5.3166,-5.3408,-5.3408,-5.3408,-5.3546,-5.3891,-5.4287,-5.4512,-5.4512,-5.4512,-5.4512,-5.4512,-5.4512,-5.4512,-5.4512,-5.4512,-5.4512,-5.4512,-5.4149,-5.3391,-5.2188,-5.1826,-5.1114,0.0,-5.0011,-5.0022,-5.0109,-5.0506,-5.0881,-5.1349,-5.2134,-5.2615,-5.2908,-5.3667,-5.3977,-5.4011,-5.4374,-5.4512,-5.4512,-5.4512,-5.4512,-5.4512,-5.4512,-5.4512,-5.4512,-5.4512,-5.4512,-5.4512,-5.4512,-5.4512,-5.4512,-5.4512,-5.4512,-5.4512,-5.4512,-5.4512,-5.4512,-5.4512,-5.4512,-5.4512,-5.4512,-5.4512,-5.4287,-5.3546,-5.2459,-5.1713,-5.1892,-5.1575,-5.1633,-5.2578,-5.2683,-5.259,-5.2311,-5.1985,-5.1686,-5.1385,-5.0992,-5.0859,-5.1161,-5.069,-5.0973,-5.2337,-5.2291,-5.2735,-5.3891,-5.3942,-5.4067,-5.4357,-5.4365,-5.4817,-5.5723,-5.6393,-5.7015,-5.7589,-5.7862,-5.7997,-5.7997,-5.7997,-5.7997,-5.7973,-5.766,-5.6861,-5.5791,-5.5194,-5.479,-5.4512,-5.4512,-5.4512,-5.4512,-5.02,-5.0114,-5.0287,-5.1183,-5.1791,-5.2463,-5.3287,-5.4029,-5.4305,-5.3718,-5.3632,-5.3632,-5.3632,-5.4149,-5.4512,-5.4512,-5.4512,-5.4512,-5.4512,-5.4512,-5.4512,-5.4512,-5.4512,-5.4512,-5.4512,-5.4512,-5.3839,-5.2477,-5.2274,-5.1545,-5.0235,-5.008,-5.0097,-5.0269,-5.0868,-5.1358,-5.1827,-5.2965,-5.3525,-5.3684,-5.427,-5.4512,-5.4512,-5.4512,-5.4512,-5.4512,-5.4512,-5.4512,-5.4512,-5.4512,-5.4512,-5.4512,-5.4512,-5.4512,-5.4512,-5.4512,-5.4512,-5.4512,-5.4512,-5.4512,-5.4512,-5.4512,-5.4512,-5.4512,-5.4512,-5.4512,-5.4512,-5.4512,-5.4512,-5.4287,-5.3546,-5.2891,-5.2455,-5.245,-5.2035,-5.2008,-5.2721,-5.2976,-5.3028,-5.2914,-5.2352,-5.1985,-5.1985,-5.1151,-5.0655,-5.0829,-5.0697,-5.0904,-5.1564,-5.198,-5.258,-5.3373,-5.3408,-5.366,-5.4181,-5.4246,-5.4867,-5.6053,-5.6641,-5.7234,-5.7797,-5.7932,-5.7997,-5.7997,-5.7997,-5.7997,-5.7932,-5.7358,-5.6563,-5.5744,-5.5647,-5.5313,-5.4865,-5.4728,-5.4697,-5.4697,-5.0873,-5.0476,-5.0442,-5.1843,-5.2136,-5.2463,-5.3287,-5.4029,-5.4494,-5.4425,-5.4408,-5.4408,-5.4408,-5.4477,-5.4512,-5.4512,-5.4512,-5.4512,-5.4512,-5.4512,-5.4512,-5.4512,-5.4512,-5.4512,-5.4512,-5.4512,-5.4098,-5.3287,-5.258,-5.1804,-5.0994,-5.0321,-5.0373,-5.1011,-5.121,-5.2005,-5.3214,-5.3458,-5.3894,-5.4408,-5.4477,-5.4512,-5.4512,-5.4512,-5.4512,-5.4512,-5.4512,-5.4512,-5.4512,-5.4512,-5.4512,-5.4512,-5.4512,-5.4512,-5.4512,-5.4512,-5.4512,-5.4512,-5.4512,-5.4512,-5.4512,-5.4512,-5.4512,-5.4512,-5.4512,-5.4512,-5.4512,-5.4512,-5.4512,-5.4287,-5.3546,-5.3339,-5.3063,-5.2339,-5.277,-5.3232,-5.3318,-5.3905,-5.414,-5.3584,-5.2971,-5.2625,-5.2625,-5.1392,-5.0899,-5.1623,-5.1384,-5.1598,-5.2514,-5.2334,-5.258,-5.3373,-5.3408,-5.3307,-5.3153,-5.404,-5.4732,-5.5214,-5.5991,-5.6678,-5.7191,-5.775,-5.7997,-5.7997,-5.7997,-5.7997,-5.7932,-5.7358,-5.704,-5.6894,-5.6412,-5.6193,-5.6055,-5.5531,-5.5313,-5.5313,-5.1688,-5.1498,-5.1666,-5.2735,-5.2925,-5.3184,-5.3942,-5.4322,-5.4512,-5.4512,-5.4512,-5.4512,-5.4512,-5.4512,-5.4512,-5.4512,-5.4512,-5.4512,-5.4512,-5.4512,-5.4512,-5.4512,-5.4512,-5.4512,-5.4512,-5.4512,-5.4149,-5.3408,-5.2567,-5.1808,-5.1097,-5.0804,-5.1063,-5.1787,-5.2313,-5.2865,-5.3425,-5.3919,-5.4281,-5.4512,-5.4512,-5.4512,-5.4512,-5.4512,-5.4512,-5.4512,-5.4512,-5.4512,-5.4512,-5.4512,-5.4512,-5.4512,-5.4512,-5.4512,-5.4512,-5.4512,-5.4512,-5.4512,-5.4512,-5.4512,-5.4512,-5.4512,-5.4512,-5.4512,-5.4512,-5.4512,-5.4512,-5.4512,-5.4512,-5.4425,-5.4115,-5.3701,-5.3442,-5.358,-5.3494,-5.3546,-5.4011,-5.4322,-5.4281,-5.3658,-5.3063,-5.2683,-5.2683,-5.1359,-5.084,-5.1745,-5.1089,-5.1026,-5.1935,-5.2109,-5.2356,-5.2684,-5.358,-5.3957,-5.3706,-5.4593,-5.5442,-5.6315,-5.6621,-5.7116,-5.7774,-5.7932,-5.7997,-5.7997,-5.7997,-5.7997,-5.7973,-5.775,-5.7425,-5.7091,-5.6869,-5.6581,-5.6276,-5.6057,-5.5984,-5.6012,-5.2528,-5.2343,-5.2528,-5.3563,-5.3546,-5.3649,-5.4391,-5.4512,-5.4512,-5.4512,-5.4512,-5.4512,-5.4512,-5.4512,-5.4512,-5.4512,-5.4512,-5.4512,-5.4512,-5.4512,-5.4512,-5.4512,-5.4512,-5.4512,-5.4512,-5.4512,-5.4253,-5.3718,-5.2942,-5.2304,-5.1787,-5.1545,-5.1839,-5.2597,-5.3149,-5.3529,-5.377,-5.4287,-5.4512,-5.4512,-5.4512,-5.4512,-5.4512,-5.4512,-5.4512,-5.4512,-5.4512,-5.4512,-5.4512,-5.4512,-5.4512,-5.4512,-5.4512,-5.4512,-5.4512,-5.4512,-5.4512,-5.4512,-5.4512,-5.4512,-5.4512,-5.4512,-5.4512,-5.4512,-5.4512,-5.4512,-5.4512,-5.4512,-5.4512,-5.4512,-5.4512,-5.408,-5.3822,-5.4132,-5.3925,-5.3839,-5.4132,-5.4374,-5.4281,-5.3658,-5.3063,-5.277,-5.2937,-5.1622,-5.1163,-5.2248,-5.1385,-5.1119,-5.1813,-5.2247,-5.2557,-5.2765,-5.4035,-5.4594,-5.4458,-5.5252,-5.6148,-5.7116,-5.7116,-5.7498,-5.8197,-5.8133,-5.8106,-5.8065,-5.8088,-5.8106,-5.8065,-5.8088,-5.7867,-5.748,-5.748,-5.7259,-5.6912,-5.6781,-5.6719,-5.6737,-5.3235,-5.2753,-5.267,-5.4236,-5.3891,-5.3649,-5.4391,-5.4512,-5.4512,-5.4512,-5.4512,-5.4512,-5.4512,-5.4512,-5.4512,-5.4512,-5.4512,-5.4512,-5.4512,-5.4512,-5.4512,-5.4512,-5.4512,-5.4512,-5.4512,-5.4512,-5.4512,-5.4494,-5.3753,-5.3391,-5.3356,-5.258,-5.2632,-5.3391,-5.3408,-5.3804,-5.4494,-5.4512,-5.4512,-5.4512,-5.4512,-5.4512,-5.4512,-5.4512,-5.4512,-5.4512,-5.4512,-5.4512,-5.4512,-5.4512,-5.4512,-5.4512,-5.4512,-5.4512,-5.4512,-5.4512,-5.4512,-5.4512,-5.4512,-5.4512,-5.4512,-5.4512,-5.4512,-5.4512,-5.4512,-5.4512,-5.4512,-5.4512,-5.4512,-5.4512,-5.4512,-5.4494,-5.4253,-5.3529,-5.4029,-5.4253,-5.3511,-5.4046,-5.4281,-5.3658,-5.3063,-5.2919,-5.3545,-5.2299,-5.2068,-5.3463,-5.2723,-5.2321,-5.2683,-5.296,-5.3429,-5.4138,-5.4792,-5.5089,-5.5071,-5.5892,-5.6554,-5.7116,-5.7116,-5.7498,-5.8197,-5.8349,-5.8327,-5.8197,-5.8349,-5.8327,-5.8197,-5.8349,-5.8393,-5.8371,-5.8371,-5.8371,-5.8308,-5.7713,-5.7486,-5.7486,-5.4098,-5.396,-5.3925,-5.4425,-5.4322,-5.4236,-5.4477,-5.4512,-5.4512,-5.4512,-5.4512,-5.4512,-5.4512,-5.4512,-5.4512,-5.4512,-5.4512,-5.4512,-5.4512,-5.4512,-5.4512,-5.4512,-5.4512,-5.4512,-5.4512,-5.4512,-5.4512,-5.4512,-5.377,-5.3408,-5.3391,-5.3149,-5.3425,-5.4149,-5.4149,-5.4287,-5.4512,-5.4512,-5.4512,-5.4512,-5.4512,-5.4512,-5.4512,-5.4512,-5.4512,-5.4512,-5.4512,-5.4512,-5.4512,-5.4512,-5.4512,-5.4512,-5.4512,-5.4512,-5.4512,-5.4512,-5.4512,-5.4512,-5.4512,-5.4512,-5.4512,-5.4512,-5.4512,-5.4512,-5.4512,-5.4512,-5.4512,-5.4512,-5.4512,-5.4512,-5.4512,-5.4512,-5.4425,-5.4201,-5.4356,-5.4425,-5.4184,-5.4001,-5.3658,-5.3046,-5.2323,-5.2178,-5.2902,-5.1992,-5.1789,-5.277,-5.2329,-5.2178,-5.2547,-5.3021,-5.3159,-5.2847,-5.4047,-5.4822,-5.5116,-5.5946,-5.6876,-5.7844,-5.7937,-5.8111,-5.8349,-5.844,-5.8418,-5.8349,-5.8371,-5.8371,-5.8349,-5.8371,-5.8393,-5.8393,-5.8393,-5.8393,-5.8393,-5.8231,-5.819,-5.8172,-5.4512,-5.4512,-5.4512,-5.4512,-5.4512,-5.4512,-5.4512,-5.4512,-5.4512,-5.4512,-5.4512,-5.4512,-5.4512,-5.4512,-5.4512,-5.4512,-5.4512,-5.4512,-5.4512,-5.4512,-5.4512,-5.4512,-5.4512,-5.4512,-5.4512,-5.4512,-5.4512,-5.4512,-5.4046,-5.3822,-5.3822,-5.3822,-5.4063,-5.4512,-5.4512,-5.4512,-5.4512,-5.4512,-5.4512,-5.4512,-5.4512,-5.4512,-5.4512,-5.4512,-5.4512,-5.4512,-5.4512,-5.4512,-5.4512,-5.4512,-5.4512,-5.4512,-5.4512,-5.4512,-5.4512,-5.4512,-5.4512,-5.4512,-5.4512,-5.4512,-5.4512,-5.4512,-5.4512,-5.4512,-5.4512,-5.4512,-5.4512,-5.4512,-5.4512,-5.4512,-5.4512,-5.4512,-5.4512,-5.4512,-5.4512,-5.4408,-5.4132,-5.3777,-5.3385,-5.2968,-5.2483,-5.2569,-5.3567,-5.3169,-5.312,-5.387,-5.3704,-5.3661,-5.3916,-5.3932,-5.3886,-5.3743,-5.5089,-5.5954,-5.6255,-5.6801,-5.7486,-5.8282,-5.8375,-5.844,-5.844,-5.8529,-5.8529,-5.844,-5.8483,-5.8483,-5.844,-5.8483,-5.8505,-5.8505,-5.8505,-5.8505,-5.8505,-5.8551,-5.8593,-5.8593,-5.4512,-5.4512,-5.4512,-5.4512,-5.4512,-5.4512,-5.4512,-5.4512,-5.4512,-5.4512,-5.4512,-5.4512,-5.4512,-5.4512,-5.4512,-5.4512,-5.4512,-5.4512,-5.4512,-5.4512,-5.4512,-5.4512,-5.4512,-5.4512,-5.4512,-5.4512,-5.4512,-5.4512,-5.4512,-5.4512,-5.4512,-5.4512,-5.4512,-5.4512,-5.4512,-5.4512,-5.4512,-5.4512,-5.4512,-5.4512,-5.4512,-5.4512,-5.4512,-5.4512,-5.4512,-5.4512,-5.4512,-5.4512,-5.4512,-5.4512,-5.4512,-5.4512,-5.4512,-5.4512,-5.4512,-5.4512,-5.4512,-5.4512,-5.4512,-5.4512,-5.4512,-5.4512,-5.4512,-5.4512,-5.4512,-5.4512,-5.4512,-5.4512,-5.4512,-5.4512,-5.4512,-5.4526,-5.4557,-5.4557,-5.4554,-5.4292,-5.36,-5.3462,-5.3435,-5.3352,-5.3374,-5.3876,-5.5176,-5.5274,-5.5544,-5.616,-5.6241,-5.6241,-5.6214,-5.5408,-5.5374,-5.6277,-5.7351,-5.7978,-5.8133,-5.8156,-5.8242,-5.8415,-5.8486,-5.8511,-5.8511,-5.8635,-5.8635,-5.8511,-5.8635,-5.8635,-5.8532,-5.8656,-5.8716,-5.8716,-5.8716,-5.8716,-5.8716,-5.8716,-5.8716,-5.8716,-5.4512,-5.4512,-5.4512,-5.4512,-5.4512,-5.4512,-5.4512,-5.4512,-5.4512,-5.4512,-5.4512,-5.4512,-5.4512,-5.4512,-5.4512,-5.4512,-5.4512,-5.4512,-5.4512,-5.4512,-5.4512,-5.4512,-5.4512,-5.4512,-5.4512,-5.4512,-5.4512,-5.4512,-5.4512,-5.4512,-5.4512,-5.4512,-5.4512,-5.4512,-5.4512,-5.4512,-5.4512,-5.4512,-5.4512,-5.4512,-5.4512,-5.4512,-5.4512,-5.4512,-5.4512,-5.4512,-5.4512,-5.4512,-5.4512,-5.4512,-5.4512,-5.4512,-5.4512,-5.4512,-5.4512,-5.4512,-5.4512,-5.4512,-5.4512,-5.4512,-5.4512,-5.4512,-5.4512,-5.4512,-5.4512,-5.4512,-5.4512,-5.4512,-5.4512,-5.4512,-5.4512,-5.4865,-5.5194,-5.5194,-5.5067,-5.4892,-5.4662,-5.4213,-5.3922,-5.3912,-5.3947,-5.4329,-5.5203,-5.5195,-5.5214,-5.5384,-5.577,-5.5821,-5.5402,-5.6085,-5.6436,-5.6385,-5.6632,-5.7062,-5.7648,-5.7784,-5.8078,-5.8633,-5.8654,-5.8656,-5.8656,-5.8696,-5.8677,-5.8656,-5.8696,-5.8677,-5.8656,-5.8696,-5.8716,-5.8716,-5.8716,-5.8716,-5.8716,-5.8716,-5.8716,-5.8716,-5.4512,-5.4512,-5.4512,-5.4512,-5.4512,-5.4512,-5.4512,-5.4512,-5.4512,-5.4512,-5.4512,-5.4512,-5.4512,-5.4512,-5.4512,-5.4512,-5.4512,-5.4512,-5.4512,-5.4512,-5.4512,-5.4512,-5.4512,-5.4512,-5.4512,-5.4512,-5.4512,-5.4512,-5.4512,-5.4512,-5.4512,-5.4512,-5.4512,-5.4512,-5.4512,-5.4512,-5.4512,-5.4512,-5.4512,-5.4512,-5.4512,-5.4512,-5.4512,-5.4512,-5.4512,-5.4512,-5.4512,-5.4512,-5.4512,-5.4512,-5.4512,-5.4512,-5.4512,-5.4512,-5.4512,-5.4512,-5.4512,-5.4512,-5.4512,-5.4512,-5.4512,-5.4512,-5.4512,-5.4425,-5.408,-5.4011,-5.3891,-5.3529,-5.346,-5.3504,-5.3792,-5.4068,-5.4371,-5.4628,-5.4561,-5.4492,-5.4501,-5.4223,-5.4253,-5.4885,-5.499,-5.5422,-5.6459,-5.6464,-5.6439,-5.6439,-5.6752,-5.6824,-5.6538,-5.7231,-5.7386,-5.684,-5.7155,-5.7516,-5.7951,-5.8082,-5.8341,-5.8716,-5.8716,-5.8716,-5.8716,-5.8716,-5.8716,-5.8716,-5.8716,-5.8716,-5.8716,-5.8716,-5.8716,-5.8716,-5.8716,-5.8716,-5.8716,-5.8716,-5.8716,-5.8716,-5.4512,-5.4512,-5.4512,-5.4512,-5.4512,-5.4512,-5.4512,-5.4512,-5.4512,-5.4512,-5.4408,-5.4339,-5.4339,-5.4236,-5.4167,-5.4167,-5.4167,-5.4201,-5.4339,-5.4236,-5.4167,-5.4167,-5.4167,-5.4167,-5.4167,-5.4167,-5.4167,-5.4167,-5.4167,-5.4167,-5.4167,-5.4167,-5.4236,-5.4339,-5.4339,-5.4408,-5.4512,-5.4512,-5.4512,-5.4512,-5.4512,-5.4512,-5.4512,-5.4512,-5.4512,-5.4512,-5.4512,-5.4512,-5.4512,-5.4512,-5.4512,-5.4512,-5.4543,-5.4543,-5.4543,-5.4543,-5.4457,-5.4388,-5.4477,-5.4425,-5.4339,-5.4339,-5.4253,-5.3994,-5.3373,-5.3218,-5.3028,-5.2326,-5.2188,-5.2351,-5.2799,-5.3039,-5.3266,-5.3584,-5.3669,-5.3726,-5.3795,-5.3885,-5.4464,-5.5783,-5.614,-5.6745,-5.7877,-5.7997,-5.7997,-5.7997,-5.8111,-5.8197,-5.8197,-5.8331,-5.8138,-5.751,-5.8092,-5.8462,-5.8532,-5.8635,-5.8716,-5.8716,-5.8716,-5.8716,-5.8716,-5.8716,-5.8716,-5.8716,-5.8716,-5.8716,-5.8716,-5.8716,-5.8716,-5.8716,-5.8716,-5.8716,-5.8716,-5.8716,-5.8716,-5.8716,-5.4512,-5.4512,-5.4512,-5.4512,-5.4512,-5.4512,-5.4512,-5.4512,-5.4512,-5.4512,-5.396,-5.358,-5.358,-5.2977,-5.255,-5.255,-5.255,-5.2856,-5.3529,-5.2942,-5.255,-5.255,-5.255,-5.255,-5.255,-5.255,-5.255,-5.255,-5.255,-5.255,-5.255,-5.255,-5.2925,-5.358,-5.358,-5.3925,-5.4512,-5.4512,-5.4512,-5.4512,-5.4512,-5.4512,-5.4512,-5.4512,-5.4512,-5.4512,-5.4512,-5.4512,-5.4512,-5.4512,-5.4512,-5.4543,-5.4686,-5.4749,-5.4749,-5.4749,-5.4281,-5.3869,-5.4353,-5.4046,-5.358,-5.358,-5.3063,-5.2515,-5.2394,-5.2408,-5.2343,-5.2222,-5.2188,-5.2218,-5.2291,-5.3106,-5.3557,-5.2951,-5.3092,-5.3299,-5.3299,-5.3906,-5.4659,-5.5554,-5.6878,-5.778,-5.7978,-5.7997,-5.7997,-5.7997,-5.8111,-5.8197,-5.8197,-5.8378,-5.8425,-5.8319,-5.8406,-5.8532,-5.8656,-5.8696,-5.8716,-5.8716,-5.8716,-5.8716,-5.8716,-5.8716,-5.8716,-5.8716,-5.8716,-5.8716,-5.8716,-5.8716,-5.8716,-5.8716,-5.8716,-5.8716,-5.8716,-5.8716,-5.8716,-5.8716,-5.4512,-5.4512,-5.4512,-5.4512,-5.4512,-5.4374,-5.3977,-5.3908,-5.3753,-5.3339,-5.2977,-5.277,-5.277,-5.2412,-5.2188,-5.2188,-5.1856,-5.1787,-5.2149,-5.2201,-5.2188,-5.2188,-5.2188,-5.2188,-5.2188,-5.2188,-5.2188,-5.2188,-5.2188,-5.2188,-5.2188,-5.2188,-5.2377,-5.277,-5.277,-5.2959,-5.327,-5.327,-5.327,-5.327,-5.327,-5.327,-5.327,-5.327,-5.327,-5.327,-5.327,-5.327,-5.3287,-5.338,-5.3349,-5.3318,-5.3563,-5.361,-5.358,-5.3641,-5.3584,-5.3466,-5.3287,-5.3028,-5.277,-5.277,-5.2463,-5.2084,-5.1688,-5.1602,-5.1481,-5.1114,-5.1228,-5.1538,-5.1811,-5.2525,-5.2918,-5.2402,-5.2813,-5.3185,-5.3185,-5.3904,-5.4693,-5.5482,-5.6638,-5.7377,-5.7445,-5.7849,-5.8152,-5.8219,-5.8312,-5.8356,-5.8356,-5.8529,-5.8614,-5.8614,-5.8614,-5.8635,-5.8716,-5.8716,-5.8716,-5.8716,-5.8716,-5.8716,-5.8716,-5.8716,-5.8716,-5.8716,-5.8716,-5.8716,-5.8716,-5.8716,-5.8716,-5.8716,-5.8716,-5.8716,-5.8716,-5.8716,-5.8716,-5.8716,-5.3977,-5.3977,-5.3977,-5.3977,-5.3977,-5.3787,-5.3218,-5.3132,-5.2908,-5.2274,-5.2033,-5.1929,-5.1929,-5.1774,-5.1701,-5.1701,-5.1213,-5.0885,-5.0856,-5.1403,-5.1731,-5.1701,-5.1701,-5.1701,-5.1701,-5.1701,-5.1701,-5.1701,-5.1701,-5.1701,-5.1701,-5.1701,-5.1774,-5.1929,-5.1929,-5.2033,-5.2188,-5.2188,-5.2188,-5.2218,-5.2248,-5.2278,-5.2278,-5.2309,-5.2309,-5.2309,-5.2309,-5.2309,-5.2339,-5.2476,-5.2446,-5.2386,-5.2653,-5.2683,-5.2624,-5.2712,-5.286,-5.2844,-5.2429,-5.2158,-5.1972,-5.1972,-5.1821,-5.1563,-5.0976,-5.0856,-5.0683,-5.0131,-5.0331,-5.0793,-5.1314,-5.1848,-5.2131,-5.1856,-5.2446,-5.2931,-5.2931,-5.3631,-5.4442,-5.5251,-5.6081,-5.6695,-5.7004,-5.7578,-5.8083,-5.8375,-5.8465,-5.8511,-5.8511,-5.8635,-5.8716,-5.8716,-5.8716,-5.8716,-5.8716,-5.8716,-5.8716,-5.8716,-5.8716,-5.8716,-5.8716,-5.8716,-5.8716,-5.8716,-5.8716,-5.8716,-5.8716,-5.8716,-5.8716,-5.8716,-5.8716,-5.8716,-5.8716,-5.8716,-5.8716,-5.8716,-5.236,-5.236,-5.236,-5.236,-5.236,-5.2343,-5.2291,-5.2274,-5.2257,-5.2188,-5.1602,-5.1183,-5.1183,-5.058,-5.0166,-5.0166,-5.0241,-5.0218,-5.008,-5.0259,-5.0276,-5.0166,-5.0166,-5.0166,-5.0166,-5.0166,-5.0166,-5.0166,-5.0166,-5.0166,-5.0166,-5.0166,-5.0545,-5.1183,-5.1183,-5.158,-5.2188,-5.2188,-5.2188,-5.2218,-5.2386,-5.2493,-5.2476,-5.2641,-5.2653,-5.2653,-5.2653,-5.2653,-5.2653,-5.2683,-5.27,-5.2683,-5.284,-5.2881,-5.2881,-5.2881,-5.2294,-5.1784,-5.2479,-5.2027,-5.1355,-5.1355,-5.0766,-5.0149,-5.0097,-5.008,-5.008,-5.0011,-5.0022,-5.0235,-5.0766,-5.1314,-5.1573,-5.1316,-5.1721,-5.2087,-5.2087,-5.2831,-5.3684,-5.4475,-5.5389,-5.6245,-5.7023,-5.7153,-5.7522,-5.8338,-5.8465,-5.8511,-5.8511,-5.8635,-5.8716,-5.8716,-5.8716,-5.8716,-5.8716,-5.8716,-5.8716,-5.8716,-5.8716,-5.8716,-5.8716,-5.8716,-5.8716,-5.8716,-5.8716,-5.8716,-5.8716,-5.8716,-5.8716,-5.8716,-5.8716,-5.8716,-5.8716,-5.8716,-5.8716,-5.8716,-5.2188,-5.2188,-5.2188,-5.2188,-5.2188,-5.2033,-5.1584,-5.1498,-5.1343,-5.0907,-5.0667,-5.0535,-5.0535,-5.0379,-5.0263,-5.0263,-5.0302,-5.0274,-5.0149,-5.016,-5.0149,-5.0011,-5.0011,-5.0011,-5.0011,-5.0011,-5.0011,-5.0011,-5.0011,-5.0011,-5.0011,-5.0011,-5.0149,-5.0424,-5.0495,-5.0691,-5.0968,-5.1055,-5.1067,-5.1084,-5.117,-5.1199,-5.1199,-5.1256,-5.1256,-5.1256,-5.1256,-5.1256,-5.1285,-5.1381,-5.1353,-5.1313,-5.1584,-5.1577,-5.1504,-5.1623,-5.1402,-5.1199,-5.1514,-5.1161,-5.0719,-5.0633,-5.0425,-5.0235,-5.0149,-5.0206,-5.0331,-5.0684,-5.0946,-5.127,-5.1746,-5.2255,-5.2399,-5.1794,-5.2294,-5.2585,-5.2134,-5.2782,-5.3449,-5.3844,-5.464,-5.5496,-5.6393,-5.6929,-5.7598,-5.8513,-5.8614,-5.8635,-5.8635,-5.8656,-5.8716,-5.8716,-5.8716,-5.8716,-5.8716,-5.8716,-5.8716,-5.8716,-5.8716,-5.8716,-5.8716,-5.8716,-5.8716,-5.8716,-5.8716,-5.8716,-5.8716,-5.8716,-5.8716,-5.8716,-5.8716,-5.8716,-5.8716,-5.8716,-5.8716,-5.8716,-5.1528,-5.1528,-5.1528,-5.1528,-5.1528,-5.1356,-5.0838,-5.0752,-5.058,-5.012,-5.0132,-5.0217,-5.0274,-5.0341,-5.0415,-5.0415,-5.0415,-5.0341,-5.0217,-5.0189,-5.0149,-5.0011,-5.0011,-5.0022,-5.0051,-5.008,-5.008,-5.0138,-5.0138,-5.0138,-5.012,-5.008,-5.008,-5.0138,-5.0178,-5.0217,-5.0274,-5.0359,-5.0415,-5.0397,-5.0453,-5.0453,-5.0481,-5.0526,-5.0554,-5.0554,-5.0554,-5.0554,-5.0582,-5.0675,-5.062,-5.0599,-5.0836,-5.0819,-5.0729,-5.0846,-5.0891,-5.0891,-5.0891,-5.0737,-5.0526,-5.0369,-5.0369,-5.0387,-5.0302,-5.0453,-5.0766,-5.1131,-5.1533,-5.1964,-5.2454,-5.2817,-5.2883,-5.2477,-5.2904,-5.3111,-5.2545,-5.3029,-5.3459,-5.3539,-5.4078,-5.4766,-5.5682,-5.6516,-5.7371,-5.825,-5.8568,-5.8716,-5.8716,-5.8716,-5.8716,-5.8716,-5.8716,-5.8716,-5.8716,-5.8716,-5.8716,-5.8716,-5.8716,-5.8716,-5.8716,-5.8716,-5.8716,-5.8716,-5.8716,-5.8716,-5.8716,-5.8716,-5.8716,-5.8716,-5.8716,-5.8716,-5.8716,-5.8716,-5.8716,-5.8716,-5.0011,-5.0011,-5.0011,-5.0011,-5.0011,-5.0011,-5.0011,-5.0011,-5.0051,-5.0189,-5.0189,-5.0246,-5.0387,-5.0397,-5.0397,-5.0415,-5.0415,-5.0341,-5.0217,-5.0189,-5.0149,-5.0011,-4.9993,-5.008,-5.0189,-5.0189,-5.0274,-5.0415,-5.0415,-5.0415,-5.0415,-5.0274,-5.0274,-5.0369,-5.0274,-5.0274,-5.0415,-5.0397,-5.0397,-5.0415,-5.0547,-5.0585,-5.0612,-5.0819,-5.0891,-5.0891,-5.0891,-5.0891,-5.0891,-5.0891,-5.0891,-5.0891,-5.0891,-5.0891,-5.0891,-5.0891,-5.0891,-5.0891,-5.0891,-5.0891,-5.0846,-5.0657,-5.0492,-5.0397,-5.0415,-5.0803,-5.121,-5.121,-5.1572,-5.2053,-5.2611,-5.2718,-5.2846,-5.3238,-5.34,-5.344,-5.3318,-5.3538,-5.3714,-5.3714,-5.3754,-5.4128,-5.4927,-5.58,-5.6636,-5.7453,-5.8252,-5.8716,-5.8716,-5.8716,-5.8716,-5.8716,-5.8716,-5.8716,-5.8716,-5.8716,-5.8716,-5.8716,-5.8716,-5.8716,-5.8716,-5.8716,-5.8716,-5.8716,-5.8716,-5.8716,-5.8716,-5.8716,-5.8716,-5.8716,-5.8716,-5.8716,-5.8716,-5.8716,-5.8716,-5.8716,-5.0011,-5.0011,-5.0011,-5.0011,-5.0011,-5.0011,-5.0011,-5.0011,-5.0051,-5.0189,-5.0274,-5.0397,-5.0519,-5.0665,-5.0692,-5.0547,-5.0547,-5.0464,-5.0359,-5.0359,-5.0331,-5.0274,-5.0274,-5.0302,-5.0359,-5.0359,-5.0359,-5.0415,-5.0415,-5.0415,-5.0415,-5.0359,-5.0359,-5.0397,-5.0453,-5.0492,-5.0547,-5.0692,-5.0737,-5.0764,-5.0774,-5.0819,-5.0819,-5.0891,-5.0891,-5.0891,-5.0891,-5.0891,-5.0891,-5.0891,-5.0891,-5.0891,-5.0891,-5.0891,-5.0891,-5.0891,-5.0891,-5.0891,-5.0891,-5.0891,-5.0846,-5.0657,-5.0675,-5.0692,-5.0575,-5.1026,-5.1558,-5.1916,-5.2317,-5.278,-5.33,-5.332,-5.33,-5.342,-5.3461,-5.3519,-5.3578,-5.3656,-5.3715,-5.3774,-5.3793,-5.4128,-5.4927,-5.58,-5.6636,-5.7453,-5.8252,-5.8716,-5.8716,-5.8716,-5.8716,-5.8716,-5.8716,-5.8716,-5.8716,-5.8716,-5.8716,-5.8716,-5.8716,-5.8716,-5.8716,-5.8716,-5.8716,-5.8716,-5.8716,-5.8716,-5.8716,-5.8716,-5.8716,-5.8716,-5.8716,-5.8716,-5.8716,-5.8716,-5.8716,-5.8716,-5.0011,-5.0011,-5.0011,-5.0011,-5.0011,-5.004,-5.008,-5.008,-5.0149,-5.0341,-5.0425,-5.0537,-5.0702,-5.0819,-5.0846,-5.0729,-5.0657,-5.0547,-5.0415,-5.0453,-5.0481,-5.0481,-5.0554,-5.0554,-5.0481,-5.0481,-5.0509,-5.0582,-5.0582,-5.0582,-5.0599,-5.0509,-5.0509,-5.0582,-5.0602,-5.0657,-5.0729,-5.0846,-5.0891,-5.0891,-5.0891,-5.0891,-5.0891,-5.0891,-5.0891,-5.0891,-5.0891,-5.0891,-5.0891,-5.0891,-5.0891,-5.0891,-5.0891,-5.0891,-5.0891,-5.0891,-5.0891,-5.0891,-5.0891,-5.0891,-5.0873,-5.0747,-5.0819,-5.0873,-5.0747,-5.1322,-5.1958,-5.2253,-5.2806,-5.3343,-5.3676,-5.3658,-5.3619,-5.3598,-5.3599,-5.3638,-5.3675,-5.3715,-5.3754,-5.3793,-5.3813,-5.3998,-5.4481,-5.5596,-5.6766,-5.7899,-5.8438,-5.8716,-5.8716,-5.8716,-5.8716,-5.8716,-5.8716,-5.8716,-5.8716,-5.8716,-5.8716,-5.8716,-5.8716,-5.8716,-5.8716,-5.8716,-5.8716,-5.8716,-5.8716,-5.8716,-5.8716,-5.8716,-5.8716,-5.8716,-5.8716,-5.8716,-5.8716,-5.8716,-5.8716,-5.8716,-5.0011,-5.0011,-5.004,-5.004,-5.004,-5.008,-5.0189,-5.0217,-5.0313,-5.0575,-5.0585,-5.0675,-5.0891,-5.0891,-5.0891,-5.0873,-5.0702,-5.0547,-5.0443,-5.0547,-5.063,-5.063,-5.0801,-5.0801,-5.063,-5.063,-5.0729,-5.0891,-5.0891,-5.0891,-5.0891,-5.0702,-5.0729,-5.0891,-5.0702,-5.0729,-5.0891,-5.0891,-5.0891,-5.0891,-5.0891,-5.0891,-5.0891,-5.0891,-5.0891,-5.0891,-5.0891,-5.0891,-5.0891,-5.0891,-5.0891,-5.0891,-5.0891,-5.0891,-5.0891,-5.0891,-5.0891,-5.0891,-5.0891,-5.0891,-5.0891,-5.0891,-5.0945,-5.0954,-5.0954,-5.1683,-5.2368,-5.2368,-5.3122,-5.3813,-5.3813,-5.3813,-5.3774,-5.3715,-5.3754,-5.3774,-5.3715,-5.3774,-5.3813,-5.3813,-5.3813,-5.3813,-5.3813,-5.5317,-5.697,-5.8586,-5.8716,-5.8716,-5.8716,-5.8716,-5.8716,-5.8716,-5.8716,-5.8716,-5.8716,-5.8716,-5.8716,-5.8716,-5.8716,-5.8716,-5.8716,-5.8716,-5.8716,-5.8716,-5.8716,-5.8716,-5.8716,-5.8716,-5.8716,-5.8716,-5.8716,-5.8716,-5.8716,-5.8716,-5.8716,-5.8716,-5.0011,-5.0063,-5.0178,-5.0178,-5.0246,-5.0331,-5.0359,-5.0359,-5.0425,-5.0585,-5.0585,-5.0675,-5.0891,-5.0891,-5.0846,-5.0684,-5.063,-5.0585,-5.0575,-5.0747,-5.0846,-5.0846,-5.0891,-5.0891,-5.0846,-5.0846,-5.0846,-5.0891,-5.0891,-5.0891,-5.0891,-5.0846,-5.0846,-5.0891,-5.0846,-5.0846,-5.0891,-5.0891,-5.0891,-5.0891,-5.0891,-5.0891,-5.0891,-5.0891,-5.0891,-5.0891,-5.0891,-5.0891,-5.0891,-5.0891,-5.0891,-5.0891,-5.0891,-5.0891,-5.0891,-5.0891,-5.0891,-5.0891,-5.0891,-5.0891,-5.0891,-5.0891,-5.1184,-5.146,-5.146,-5.2214,-5.2932,-5.2932,-5.3385,-5.3813,-5.3813,-5.3813,-5.3793,-5.3774,-5.3793,-5.3793,-5.3774,-5.3793,-5.3813,-5.3813,-5.3813,-5.3813,-5.3813,-5.5317,-5.697,-5.8586,-5.8716,-5.8716,-5.8716,-5.8716,-5.8716,-5.8716,-5.8716,-5.8716,-5.8716,-5.8716,-5.8716,-5.8716,-5.8716,-5.8716,-5.8716,-5.8716,-5.8716,-5.8716,-5.8716,-5.8716,-5.8716,-5.8716,-5.8716,-5.8716,-5.8716,-5.8716,-5.8716,-5.8716,-5.8716,-5.8716,-5.0166,-5.0206,-5.0217,-5.0302,-5.0341,-5.0425,-5.0481,-5.0509,-5.0564,-5.0702,-5.0729,-5.0774,-5.0891,-5.0891,-5.0846,-5.0747,-5.0729,-5.0729,-5.0729,-5.0846,-5.0891,-5.0891,-5.0891,-5.0891,-5.0891,-5.0891,-5.0891,-5.0891,-5.0891,-5.0891,-5.0891,-5.0891,-5.0891,-5.0891,-5.0891,-5.0891,-5.0891,-5.0891,-5.0891,-5.0891,-5.0891,-5.0891,-5.0891,-5.0891,-5.0891,-5.0891,-5.0891,-5.0891,-5.0891,-5.0891,-5.0891,-5.0891,-5.0891,-5.0891,-5.0891,-5.0891,-5.0891,-5.0891,-5.0891,-5.0891,-5.0891,-5.0891,-5.1416,-5.1886,-5.1651,-5.2376,-5.3096,-5.3096,-5.3464,-5.3813,-5.3813,-5.3813,-5.3813,-5.3813,-5.3813,-5.3813,-5.3813,-5.3813,-5.3813,-5.3813,-5.3813,-5.411,-5.4927,-5.58,-5.697,-5.8586,-5.8716,-5.8716,-5.8716,-5.8716,-5.8716,-5.8716,-5.8716,-5.8716,-5.8716,-5.8716,-5.8716,-5.8716,-5.8716,-5.8716,-5.8716,-5.8716,-5.8716,-5.8716,-5.8716,-5.8716,-5.8716,-5.8716,-5.8716,-5.8716,-5.8716,-5.8716,-5.8716,-5.8716,-5.8716,-5.8716,-5.0331,-5.0313,-5.0285,-5.0425,-5.0471,-5.0509,-5.063,-5.0657,-5.0702,-5.0891,-5.0891,-5.0891,-5.0891,-5.0891,-5.0891,-5.0891,-5.0891,-5.0891,-5.0891,-5.0891,-5.0891,-5.0891,-5.0891,-5.0891,-5.0891,-5.0891,-5.0891,-5.0891,-5.0891,-5.0891,-5.0891,-5.0891,-5.0891,-5.0891,-5.0891,-5.0891,-5.0891,-5.0891,-5.0891,-5.0891,-5.0891,-5.0891,-5.0891,-5.0891,-5.0891,-5.0891,-5.0891,-5.0891,-5.0891,-5.0891,-5.0891,-5.0891,-5.0891,-5.0891,-5.0891,-5.0891,-5.0891,-5.0891,-5.0891,-5.0891,-5.0918,-5.1008,-5.1658,-5.2229,-5.1928,-5.2558,-5.3222,-5.3222,-5.3542,-5.3813,-5.3813,-5.3813,-5.3813,-5.3813,-5.3813,-5.3813,-5.3813,-5.3813,-5.3813,-5.3813,-5.3813,-5.4463,-5.6134,-5.6302,-5.697,-5.8586,-5.8716,-5.8716,-5.8716,-5.8716,-5.8716,-5.8716,-5.8716,-5.8716,-5.8716,-5.8716,-5.8716,-5.8716,-5.8716,-5.8716,-5.8716,-5.8716,-5.8716,-5.8716,-5.8716,-5.8716,-5.8716,-5.8716,-5.8716,-5.8716,-5.8716,-5.8716,-5.8716,-5.8716,-5.8716,-5.8716,-5.0217,-5.038,-5.053,-5.0557,-5.0719,-5.0836,-5.0846,-5.0846,-5.0873,-5.0891,-5.0891,-5.0891,-5.0891,-5.0891,-5.0891,-5.0891,-5.0891,-5.0891,-5.0891,-5.0891,-5.0891,-5.0891,-5.0891,-5.0891,-5.0891,-5.0891,-5.0891,-5.0891,-5.0891,-5.0891,-5.0891,-5.0891,-5.0891,-5.0891,-5.0891,-5.0891,-5.0891,-5.0891,-5.0891,-5.0891,-5.0891,-5.0891,-5.0891,-5.0891,-5.0891,-5.0891,-5.0891,-5.0891,-5.0891,-5.0891,-5.0891,-5.0891,-5.0891,-5.0891,-5.0891,-5.0891,-5.0891,-5.0891,-5.0891,-5.0891,-5.1008,-5.1408,-5.191,-5.2413,-5.2802,-5.3322,-5.3717,-5.3717,-5.3756,-5.3813,-5.3813,-5.3813,-5.3813,-5.3813,-5.3813,-5.3813,-5.3813,-5.3813,-5.3813,-5.3813,-5.3813,-5.4463,-5.6134,-5.6302,-5.697,-5.8586,-5.8716,-5.8716,-5.8716,-5.8716,-5.8716,-5.8716,-5.8716,-5.8716,-5.8716,-5.8716,-5.8716,-5.8716,-5.8716,-5.8716,-5.8716,-5.8716,-5.8716,-5.8716,-5.8716,-5.8716,-5.8716,-5.8716,-5.8716,-5.8716,-5.8716,-5.8716,-5.8716,-5.8716,-5.8716,-5.8716,-5.0554,-5.0592,-5.063,-5.0747,-5.0846,-5.0891,-5.0891,-5.0891,-5.0891,-5.0891,-5.0891,-5.0891,-5.0891,-5.0891,-5.0891,-5.0891,-5.0891,-5.0891,-5.0891,-5.0891,-5.0891,-5.0891,-5.0891,-5.0891,-5.0891,-5.0891,-5.0891,-5.0891,-5.0891,-5.0891,-5.0891,-5.0891,-5.0891,-5.0891,-5.0891,-5.0891,-5.0891,-5.0891,-5.0891,-5.0891,-5.0891,-5.0891,-5.0891,-5.0891,-5.0891,-5.0891,-5.0891,-5.0891,-5.0891,-5.0891,-5.0891,-5.0891,-5.0891,-5.0891,-5.0891,-5.0891,-5.0891,-5.0891,-5.0891,-5.1097,-5.1349,-5.1543,-5.2172,-5.2824,-5.3036,-5.3464,-5.3813,-5.3813,-5.3813,-5.3813,-5.3813,-5.3813,-5.3813,-5.3813,-5.3813,-5.3813,-5.3813,-5.3813,-5.3813,-5.3813,-5.3813,-5.4463,-5.6134,-5.6302,-5.697,-5.8586,-5.8716,-5.8716,-5.8716,-5.8716,-5.8716,-5.8716,-5.8716,-5.8716,-5.8716,-5.8716,-5.8716,-5.8716,-5.8716,-5.8716,-5.8716,-5.8716,-5.8716,-5.8716,-5.8716,-5.8716,-5.8716,-5.8716,-5.8716,-5.8716,-5.8716,-5.8716,-5.8716,-5.8716,-5.8716,-5.8716]},{"header":{"parameterUnit":"m.s-1","parameterCategory":1,"la1":30.6,"la2":28.766,"lo1":-90.7593,"lo2":-88.6598,"dy":0.0162,"dx":0.0183,"nx":116,"ny":114,"refTime":"2023-03-07T06:00:00:Z","depth":0,"parameterNumber":3,"parameterNumberName":"V-component_of_WINDS"},"data":[0.0,0.0,0.0,0.0,0.0,0.0,0.0,0.0,0.0,0.0,0.0,0.0,0.0,0.0,0.0,0.0,0.0,0.0,0.0,0.0,0.0,0.0,0.0,0.0,0.0,0.0,0.0,0.0,0.0,0.0,0.0,0.0,0.0,0.0,0.0,0.0,0.0,0.0,0.0,0.0,0.0,0.0,0.0,0.0,0.0,0.0,0.0,0.0,0.0,0.0,0.0,0.0,0.0,0.0,0.0,0.0,0.0,0.0,0.0,0.0,0.0,0.0,0.0,0.0,0.0,0.0,0.0,0.0,0.0,0.0,0.0,0.0,0.0,0.0,0.0,0.0,0.0,0.0,0.0,0.0,0.0,0.0,0.0,0.0,0.0,0.0,0.0,0.0,0.0,0.0,0.0,0.0,0.0,0.0,0.0,0.0,0.0,0.0,0.0,0.0,0.0,0.0,0.0,0.0,0.0,0.0,0.0,0.0,0.0,0.0,0.0,0.0,0.0,0.0,0.0,0.0,0.0,0.0,0.0,0.0,0.0,0.0,0.0,0.0,0.0,0.0,0.0,0.0,0.0,0.0,0.0,0.0,0.0,0.0,0.0,0.0,0.0,0.0,0.0,0.0,0.0,0.0,0.0,0.0,0.0,0.0,0.0,0.0,0.0,0.0,0.0,0.0,0.0,0.0,0.0,0.0,0.0,0.0,0.0,0.0,0.0,0.0,0.0,0.0,0.0,0.0,0.0,0.0,0.0,0.0,0.0,0.0,0.0,0.0,0.0,0.0,0.0,0.0,0.0,0.0,0.0,0.0,0.0,0.0,0.0,0.0,0.0,0.0,0.0,0.0,0.0,0.0,0.0,0.0,0.0,0.0,0.0,0.0,0.0,0.0,0.0,0.0,0.0,0.0,0.0,0.0,0.0,0.0,0.0,0.0,0.0,0.0,0.0,0.0,0.0,0.0,0.0,0.0,0.0,0.0,0.0,0.0,0.0,0.0,0.0,0.0,0.0,0.0,0.0,0.0,0.0,0.0,0.0,0.0,0.0,0.0,0.0,0.0,0.0,0.0,0.0,0.0,0.0,0.0,0.0,0.0,0.0,0.0,0.0,0.0,0.0,0.0,0.0,0.0,0.0,0.0,0.0,0.0,0.0,0.0,0.0,0.0,0.0,0.0,0.0,0.0,0.0,0.0,0.0,0.0,0.0,0.0,0.0,0.0,0.0,0.0,0.0,0.0,0.0,0.0,0.0,0.0,0.0,0.0,0.0,0.0,0.0,0.0,0.0,0.0,0.0,0.0,0.0,0.0,0.0,0.0,0.0,0.0,0.0,0.0,0.0,0.0,0.0,0.0,0.0,0.0,0.0,0.0,0.0,0.0,0.0,0.0,0.0,0.0,0.0,0.0,0.0,0.0,0.0,0.0,0.0,0.0,0.0,0.0,0.0,0.0,0.0,0.0,0.0,0.0,0.0,0.0,0.0,0.0,0.0,0.0,0.0,0.0,0.0,0.0,0.0,0.0,0.0,0.0,0.0,0.0,0.0,0.0,0.0,0.0,0.0,0.0,0.0,0.0,0.0,0.0,0.0,0.0,0.0,0.0,0.0,0.0,0.0,0.0,0.0,0.0,0.0,0.0,0.0,0.0,0.0,0.0,0.0,0.0,0.0,0.0,0.0,0.0,0.0,0.0,0.0,0.0,0.0,0.0,0.0,0.0,0.0,0.0,0.0,0.0,0.0,0.0,0.0,0.0,0.0,0.0,0.0,0.0,0.0,0.0,0.0,0.0,0.0,0.0,0.0,0.0,0.0,0.0,0.0,0.0,0.0,0.0,0.0,0.0,0.0,0.0,0.0,0.0,0.0,0.0,0.0,0.0,0.0,0.0,0.0,0.0,0.0,0.0,0.0,0.0,0.0,0.0,0.0,0.0,0.0,0.0,0.0,0.0,0.0,0.0,0.0,0.0,0.0,0.0,0.0,0.0,0.0,0.0,0.0,0.0,0.0,0.0,0.0,0.0,0.0,0.0,0.0,0.0,0.0,0.0,0.0,0.0,0.0,0.0,0.0,0.0,0.0,0.0,0.0,0.0,0.0,0.0,0.0,0.0,0.0,0.0,0.0,0.0,0.0,0.0,0.0,0.0,0.0,0.0,0.0,0.0,0.0,0.0,0.0,0.0,0.0,0.0,0.0,0.0,0.0,0.0,0.0,0.0,0.0,0.0,0.0,0.0,0.0,0.0,0.0,0.0,0.0,0.0,0.0,0.0,0.0,0.0,0.0,0.0,0.0,0.0,0.0,0.0,0.0,0.0,0.0,0.0,0.0,0.0,0.0,0.0,0.0,0.0,0.0,0.0,0.0,0.0,0.0,0.0,0.0,0.0,0.0,0.0,0.0,0.0,0.0,0.0,0.0,0.0,0.0,0.0,0.0,0.0,0.0,0.0,0.0,0.0,0.0,0.0,0.0,0.0,0.0,0.0,0.0,0.0,0.0,0.0,0.0,0.0,0.0,0.0,0.0,0.0,0.0,0.0,0.0,0.0,0.0,0.0,0.0,0.0,0.0,0.0,0.0,0.0,0.0,0.0,0.0,0.0,0.0,0.0,0.0,0.0,0.0,0.0,0.0,0.0,0.0,0.0,0.0,0.0,0.0,0.0,0.0,0.0,0.0,0.0,0.0,0.0,0.0,0.0,0.0,0.0,0.0,0.0,0.0,0.0,0.0,0.0,0.0,0.0,0.0,0.0,0.0,0.0,0.0,0.0,0.0,0.0,0.0,0.0,0.0,0.0,0.0,0.0,0.0,0.0,0.0,0.0,0.0,0.0,0.0,0.0,0.0,0.0,0.0,0.0,0.0,0.0,0.0,0.0,0.0,0.0,0.0,0.0,0.0,0.0,0.0,0.0,0.0,0.0,0.0,0.0,0.0,0.0,0.0,0.0,0.0,0.0,0.0,0.0,0.0,0.0,0.0,0.0,0.0,0.0,0.0,0.0,0.0,0.0,0.0,0.0,0.0,0.0,0.0,0.0,0.0,0.0,0.0,0.0,0.0,0.0,0.0,0.0,0.0,0.0,0.0,0.0,0.0,0.0,0.0,0.0,0.0,0.0,0.0,0.0,0.0,0.0,0.0,0.0,0.0,0.0,0.0,0.0,0.0,0.0,0.0,0.0,0.0,0.0,0.0,0.0,0.0,0.0,0.0,0.0,0.0,0.0,0.0,0.0,0.0,0.0,0.0,0.0,0.0,0.0,0.0,0.0,0.0,0.0,0.0,0.0,0.0,0.0,0.0,0.0,0.0,0.0,0.0,0.0,0.0,0.0,0.0,0.0,0.0,0.0,0.0,0.0,0.0,0.0,0.0,0.0,0.0,0.0,0.0,0.0,0.0,0.0,0.0,0.0,0.0,0.0,0.0,0.0,0.0,0.0,0.0,0.0,0.0,0.0,0.0,0.0,0.0,0.0,0.0,0.0,0.0,0.0,0.0,0.0,0.0,0.0,0.0,0.0,0.0,0.0,0.0,0.0,0.0,0.0,0.0,0.0,0.0,0.0,0.0,0.0,0.0,0.0,0.0,0.0,0.0,0.0,0.0,0.0,0.0,0.0,0.0,0.0,0.0,0.0,0.0,0.0,0.0,0.0,0.0,0.0,0.0,0.0,0.0,0.0,0.0,0.0,0.0,0.0,0.0,0.0,0.0,0.0,0.0,0.0,0.0,0.0,0.0,0.0,0.0,0.0,0.0,0.0,0.0,0.0,0.0,0.0,0.0,0.0,0.0,0.0,0.0,0.0,0.0,0.0,0.0,0.0,0.0,0.0,0.0,0.0,0.0,0.0,0.0,0.0,0.0,0.0,0.0,0.0,0.0,0.0,0.0,0.0,0.0,0.0,0.0,0.0,0.0,0.0,0.0,0.0,0.0,0.0,0.0,0.0,0.0,0.0,0.0,0.0,0.0,0.0,0.0,0.0,0.0,0.0,0.0,0.0,0.0,0.0,0.0,0.0,0.0,0.0,0.0,0.0,0.0,0.0,0.0,0.0,0.0,0.0,0.0,0.0,0.0,0.0,0.0,0.0,0.0,0.0,0.0,0.0,0.0,0.0,0.0,0.0,0.0,0.0,0.0,0.0,0.0,0.0,0.0,0.0,0.0,0.0,0.0,0.0,0.0,0.0,0.0,0.0,0.0,0.0,0.0,0.0,0.0,0.0,0.0,0.0,0.0,0.0,0.0,0.0,0.0,0.0,0.0,0.0,0.0,0.0,0.0,0.0,0.0,0.0,0.0,0.0,0.0,0.0,0.0,0.0,0.0,0.0,0.0,0.0,0.0,0.0,0.0,0.0,0.0,0.0,0.0,0.0,0.0,0.0,0.0,0.0,0.0,0.0,0.0,0.0,0.0,0.0,0.0,0.0,0.0,0.0,0.0,0.0,0.0,0.0,0.0,0.0,0.0,0.0,0.0,0.0,0.0,0.0,0.0,0.0,0.0,0.0,0.0,0.0,0.0,0.0,0.0,0.0,0.0,0.0,0.0,0.0,0.0,0.0,0.0,0.0,0.0,0.0,0.0,0.0,0.0,0.0,0.0,0.0,0.0,0.0,0.0,0.0,0.0,0.0,0.0,0.0,0.0,0.0,0.0,0.0,0.0,0.0,0.0,0.0,0.0,0.0,0.0,0.0,0.0,0.0,0.0,0.0,0.0,0.0,0.0,0.0,0.0,0.0,0.0,0.0,0.0,0.0,0.0,0.0,0.0,0.0,0.0,0.0,0.0,0.0,0.0,0.0,0.0,0.0,0.0,0.0,0.0,0.0,0.0,0.0,0.0,0.0,0.0,0.0,0.0,0.0,0.0,0.0,0.0,0.0,0.0,0.0,0.0,0.0,0.0,0.0,0.0,0.0,0.0,0.0,0.0,0.0,0.0,0.0,0.0,0.0,0.0,0.0,0.0,0.0,0.0,0.0,0.0,0.0,0.0,0.0,0.0,0.0,0.0,0.0,0.0,0.0,0.0,0.0,0.0,0.0,0.0,0.0,0.0,0.0,0.0,0.0,0.0,0.0,0.0,0.0,0.0,0.0,0.0,0.0,0.0,0.0,0.0,0.0,0.0,0.0,0.0,0.0,0.0,0.0,0.0,0.0,0.0,0.0,0.0,0.0,0.0,0.0,0.0,0.0,0.0,0.0,0.0,0.0,0.0,0.0,0.0,0.0,0.0,0.0,0.0,0.0,0.0,0.0,0.0,0.0,0.0,0.0,0.0,0.0,0.0,0.0,0.0,0.0,0.0,0.0,0.0,0.0,0.0,0.0,0.0,0.0,0.0,0.0,0.0,0.0,0.0,0.0,0.0,0.0,0.0,0.0,0.0,0.0,0.0,0.0,0.0,0.0,0.0,0.0,0.0,0.0,0.0,0.0,0.0,0.0,0.0,0.0,0.0,0.0,0.0,0.0,0.0,0.0,0.0,0.0,0.0,0.0,0.0,0.0,0.0,0.0,0.0,0.0,0.0,0.0,0.0,0.0,0.0,0.0,0.0,0.0,0.0,0.0,0.0,0.0,0.0,0.0,0.0,0.0,0.0,0.0,0.0,0.0,0.0,0.0,0.0,0.0,0.0,0.0,0.0,0.0,0.0,0.0,0.0,0.0,0.0,0.0,0.0,0.0,0.0,0.0,0.0,0.0,0.0,0.0,0.0,0.0,0.0,0.0,0.0,0.0,0.0,0.0,0.0,0.0,0.0,0.0,0.0,0.0,0.0,0.0,0.0,0.0,0.0,0.0,0.0,0.0,0.0,0.0,0.0,0.0,0.0,0.0,0.0,0.0,0.0,0.0,0.0,0.0,0.0,0.0,0.0,0.0,0.0,0.0,0.0,0.0,0.0,0.0,0.0,0.0,0.0,0.0,0.0,0.0,0.0,0.0,0.0,0.0,0.0,0.0,0.0,0.0,0.0,0.0,0.0,0.0,0.0,0.0,0.0,0.0,0.0,0.0,0.0,0.0,0.0,0.0,0.0,0.0,0.0,0.0,0.0,0.0,0.0,0.0,0.0,0.0,0.0,0.0,0.0,0.0,0.0,0.0,0.0,0.0,0.0,0.0,0.0,0.0,0.0,0.0,0.0,0.0,-2.7652,-2.8214,0.0,0.0,0.0,0.0,0.0,0.0,0.0,0.0,0.0,0.0,0.0,0.0,0.0,0.0,0.0,0.0,0.0,0.0,0.0,0.0,0.0,0.0,0.0,0.0,0.0,0.0,0.0,0.0,0.0,0.0,0.0,0.0,0.0,0.0,0.0,0.0,0.0,0.0,0.0,0.0,0.0,0.0,0.0,0.0,0.0,0.0,0.0,0.0,0.0,0.0,0.0,0.0,0.0,0.0,0.0,0.0,0.0,0.0,0.0,0.0,0.0,0.0,0.0,0.0,0.0,0.0,0.0,0.0,0.0,0.0,0.0,0.0,0.0,0.0,0.0,0.0,0.0,0.0,0.0,0.0,0.0,0.0,0.0,0.0,0.0,0.0,0.0,0.0,0.0,0.0,0.0,0.0,0.0,0.0,0.0,0.0,0.0,0.0,0.0,0.0,0.0,0.0,0.0,0.0,0.0,0.0,0.0,0.0,0.0,0.0,0.0,0.0,0.0,0.0,-2.7374,-2.8269,0.0,0.0,0.0,0.0,0.0,0.0,0.0,0.0,0.0,0.0,0.0,0.0,0.0,0.0,0.0,0.0,0.0,0.0,0.0,0.0,0.0,0.0,0.0,0.0,0.0,0.0,0.0,0.0,0.0,0.0,0.0,0.0,0.0,0.0,0.0,0.0,0.0,0.0,0.0,0.0,0.0,0.0,0.0,0.0,0.0,0.0,0.0,0.0,0.0,0.0,0.0,0.0,0.0,0.0,0.0,0.0,0.0,0.0,0.0,0.0,0.0,0.0,0.0,0.0,0.0,0.0,0.0,0.0,0.0,0.0,0.0,0.0,0.0,0.0,0.0,0.0,0.0,0.0,0.0,0.0,0.0,0.0,0.0,0.0,0.0,0.0,0.0,0.0,0.0,0.0,0.0,0.0,0.0,0.0,0.0,0.0,0.0,0.0,0.0,0.0,0.0,0.0,0.0,0.0,0.0,0.0,0.0,0.0,-2.3361,-2.3384,-2.357,-2.3964,-2.4092,-2.4146,-2.6961,-2.8093,-2.8173,-2.9399,0.0,0.0,0.0,0.0,0.0,0.0,0.0,0.0,0.0,0.0,0.0,0.0,0.0,0.0,0.0,0.0,0.0,0.0,0.0,0.0,0.0,0.0,0.0,0.0,0.0,0.0,0.0,0.0,0.0,0.0,0.0,0.0,0.0,0.0,0.0,0.0,0.0,0.0,-3.4577,-3.3515,-3.2384,-3.12,-2.9983,0.0,0.0,0.0,0.0,0.0,0.0,0.0,0.0,0.0,0.0,0.0,0.0,0.0,0.0,0.0,0.0,0.0,0.0,0.0,0.0,0.0,0.0,0.0,0.0,0.0,0.0,0.0,0.0,0.0,0.0,0.0,0.0,0.0,0.0,0.0,0.0,0.0,0.0,0.0,0.0,0.0,0.0,0.0,-2.7481,-2.7141,0.0,0.0,0.0,0.0,0.0,0.0,0.0,0.0,0.0,0.0,0.0,0.0,0.0,-2.0529,-2.0415,-2.0563,-2.118,-2.2245,-2.1446,-2.164,-2.2671,-2.3111,-2.3847,-2.4921,-2.6496,0.0,-2.6819,-2.9028,0.0,0.0,0.0,0.0,0.0,0.0,0.0,0.0,0.0,0.0,0.0,0.0,0.0,0.0,0.0,0.0,0.0,0.0,0.0,0.0,0.0,0.0,0.0,0.0,0.0,0.0,0.0,0.0,0.0,0.0,0.0,0.0,0.0,0.0,0.0,0.0,-3.6735,-3.6405,-3.5447,-3.4293,-3.3155,-3.2008,-3.0863,-2.9932,-2.9268,-2.9023,0.0,0.0,0.0,0.0,0.0,0.0,0.0,0.0,0.0,0.0,0.0,0.0,0.0,0.0,0.0,0.0,0.0,0.0,0.0,0.0,0.0,0.0,0.0,0.0,0.0,0.0,0.0,0.0,0.0,0.0,0.0,0.0,0.0,0.0,0.0,0.0,0.0,0.0,0.0,-2.7299,-2.7288,-2.6894,-2.601,-2.4786,0.0,0.0,0.0,0.0,0.0,0.0,0.0,0.0,0.0,-2.004,-2.0327,-2.0481,-2.0481,-2.0641,-2.0963,-2.1513,-2.1098,-2.1228,-2.1714,-2.1909,-2.2278,-2.2897,-2.4247,-2.5136,-2.5795,-2.834,-2.9222,-2.9044,0.0,0.0,0.0,0.0,-3.0274,-3.0743,0.0,0.0,0.0,0.0,0.0,0.0,0.0,0.0,0.0,0.0,0.0,0.0,0.0,0.0,0.0,-3.8328,0.0,0.0,0.0,0.0,0.0,0.0,0.0,0.0,0.0,0.0,0.0,-3.7192,-3.7324,-3.6997,-3.6177,-3.4947,-3.3786,-3.2628,-3.145,-3.0459,-2.9707,-2.9385,-2.918,0.0,0.0,0.0,0.0,0.0,0.0,0.0,0.0,0.0,0.0,0.0,0.0,0.0,0.0,0.0,0.0,0.0,0.0,0.0,0.0,0.0,0.0,0.0,0.0,0.0,0.0,0.0,0.0,0.0,0.0,0.0,0.0,0.0,0.0,0.0,0.0,0.0,0.0,-2.7169,-2.7306,-2.6793,-2.5765,-2.4579,0.0,0.0,0.0,0.0,0.0,0.0,-1.9913,-2.0187,-2.0347,-2.0347,-2.0635,-2.0788,-2.0788,-2.1002,-2.1109,-2.1109,-2.1109,-2.1109,-2.1109,-2.1109,-2.1292,-2.1664,-2.3014,-2.4309,-2.5668,-2.7693,-2.8677,-2.8984,-2.8984,-2.8984,-2.9044,-2.9509,-2.9745,-2.9981,0.0,0.0,0.0,0.0,0.0,0.0,0.0,0.0,0.0,0.0,0.0,0.0,0.0,0.0,-3.8371,-3.8371,-3.7655,-3.6997,0.0,0.0,0.0,0.0,0.0,0.0,0.0,0.0,0.0,-3.7192,-3.7697,-3.7352,-3.6177,-3.4947,-3.3786,-3.2628,-3.145,-3.0625,-3.0166,-3.0146,-2.9902,-2.9502,0.0,0.0,0.0,0.0,0.0,0.0,0.0,0.0,0.0,0.0,0.0,0.0,0.0,0.0,0.0,0.0,0.0,0.0,0.0,0.0,0.0,0.0,0.0,0.0,0.0,0.0,0.0,0.0,0.0,0.0,0.0,0.0,0.0,0.0,0.0,0.0,0.0,0.0,0.0,-2.7242,-2.5454,0.0,0.0,0.0,0.0,-2.0167,-2.014,-2.0153,-2.0153,-2.0494,-2.0655,-2.0655,-2.0935,-2.1089,-2.1089,-2.1102,-2.1109,-2.1109,-2.1109,-2.1109,-2.1109,-2.1109,-2.1783,-2.3076,-2.4371,-2.5668,-2.6892,-2.7013,-2.7873,-2.8984,-2.8984,-2.8984,-2.8984,-2.9044,-2.939,-2.9922,0.0,0.0,0.0,0.0,0.0,0.0,0.0,0.0,0.0,0.0,0.0,0.0,0.0,-3.8494,-3.8642,-3.8642,-3.8259,-3.7721,-3.7185,0.0,0.0,0.0,0.0,0.0,0.0,0.0,-3.7168,-3.7697,-3.789,-3.6989,-3.5002,-3.4614,-3.3402,-3.1508,-3.1112,-3.0801,-3.0625,-3.0322,-3.0107,-2.9932,-2.9512,-2.917,0.0,0.0,0.0,0.0,0.0,0.0,0.0,0.0,0.0,0.0,0.0,0.0,0.0,0.0,0.0,0.0,0.0,0.0,0.0,0.0,0.0,0.0,0.0,0.0,0.0,0.0,0.0,0.0,0.0,0.0,0.0,0.0,0.0,0.0,0.0,0.0,0.0,-2.6426,-2.5194,0.0,-2.2622,-2.0833,-1.9879,-2.016,-2.0231,-2.0275,-2.0521,-2.0795,-2.0955,-2.0955,-2.1056,-2.1109,-2.1109,-2.1109,-2.1109,-2.1109,-2.1109,-2.1109,-2.1109,-2.1109,-2.1355,-2.1846,-2.2285,-2.3698,-2.5729,-2.5729,-2.7013,-2.8984,-2.8984,-2.8984,-2.8984,-2.8984,-2.9163,-2.9331,0.0,0.0,0.0,0.0,0.0,0.0,0.0,0.0,0.0,0.0,0.0,-3.8482,-3.8566,-3.8817,-3.8916,-3.8814,-3.8567,-3.8052,-3.7233,0.0,0.0,0.0,0.0,0.0,0.0,-3.7012,-3.7457,-3.7986,-3.7986,-3.6989,-3.5002,-3.4614,-3.3392,-3.1508,-3.1064,-3.0889,-3.0869,-3.0566,-3.043,-3.0391,-2.9961,-2.9521,-2.9121,0.0,0.0,0.0,0.0,0.0,0.0,0.0,0.0,0.0,0.0,0.0,0.0,0.0,0.0,0.0,0.0,0.0,0.0,0.0,0.0,0.0,0.0,0.0,0.0,0.0,0.0,0.0,0.0,0.0,0.0,0.0,0.0,0.0,0.0,-2.7636,-2.7625,-2.6601,-2.5266,-2.3956,-2.2774,-2.0848,-1.9821,-2.0158,-2.028,-2.0453,-2.0634,-2.0939,-2.1109,-2.1109,-2.1109,-2.1109,-2.1109,-2.1109,-2.1109,-2.1109,-2.1109,-2.1109,-2.1109,-2.1109,-2.1355,-2.179,-2.2223,-2.3636,-2.5729,-2.6156,-2.7383,-2.8984,-2.8984,-2.8984,-2.8984,-2.8984,-2.8984,-2.9044,0.0,0.0,0.0,0.0,0.0,0.0,0.0,0.0,0.0,0.0,-3.8576,-3.8896,-3.9182,-3.9243,-3.9154,-3.8841,-3.8579,-3.7802,-3.6495,-3.6411,0.0,0.0,0.0,0.0,-3.7168,-3.7216,-3.7469,-3.7986,-3.7986,-3.7376,-3.6177,-3.4947,-3.3786,-3.2628,-3.145,-3.0889,-3.0889,-3.0889,-3.0889,-3.085,-3.04,-2.9961,-2.9541,0.0,0.0,0.0,0.0,0.0,0.0,0.0,0.0,0.0,0.0,0.0,0.0,0.0,0.0,0.0,0.0,0.0,0.0,0.0,0.0,0.0,0.0,0.0,0.0,0.0,0.0,0.0,0.0,0.0,0.0,0.0,0.0,0.0,-2.7215,-2.7893,-2.8184,-2.7733,-2.557,-2.4034,-2.38,-2.1273,-1.982,-2.0087,-2.0418,-2.0609,-2.0609,-2.0926,-2.1109,-2.1109,-2.1109,-2.1109,-2.1109,-2.1109,-2.1109,-2.1109,-2.1109,-2.1109,-2.1109,-2.1109,-2.1783,-2.3139,-2.4379,-2.5729,-2.7013,-2.837,-2.8984,-2.8984,-2.8984,-2.8984,-2.8984,-2.8984,-2.8984,-2.8984,0.0,0.0,0.0,0.0,0.0,0.0,0.0,0.0,0.0,0.0,-3.8576,-3.8896,-3.9182,-3.9025,-3.8893,-3.8788,-3.8356,-3.7802,-3.7024,0.0,0.0,0.0,0.0,0.0,-3.718,-3.7565,-3.7841,-3.7986,-3.7986,-3.7376,-3.6177,-3.4947,-3.3786,-3.2628,-3.145,-3.0889,-3.0889,-3.0889,-3.0889,-3.0879,-3.0752,-3.043,-3.001,0.0,0.0,0.0,0.0,0.0,0.0,0.0,0.0,0.0,0.0,0.0,0.0,0.0,0.0,0.0,0.0,0.0,0.0,0.0,0.0,0.0,0.0,0.0,0.0,0.0,0.0,0.0,0.0,0.0,0.0,0.0,-2.7673,-2.8058,-2.8058,-2.8068,-2.7361,-2.5627,-2.465,-2.3308,-2.1345,-2.0226,-1.9757,-2.01,-1.9966,-2.0094,-2.0545,-2.0672,-2.0856,-2.1109,-2.1109,-2.1109,-2.1109,-2.1109,-2.1109,-2.1109,-2.1109,-2.1109,-2.1109,-2.1109,-2.1292,-2.1727,-2.3076,-2.4379,-2.5668,-2.7013,-2.8122,-2.8984,-2.8984,-2.8984,-2.8984,-2.8984,-2.8984,-2.8984,0.0,0.0,0.0,0.0,0.0,0.0,0.0,0.0,0.0,0.0,-3.967,-4.0184,-4.0657,-4.0197,-3.9737,-3.948,-3.8567,-3.7705,-3.6904,0.0,0.0,0.0,0.0,-3.73,-3.7517,-3.7829,-3.7986,-3.7986,-3.7986,-3.7096,-3.5454,-3.4725,-3.3505,-3.1903,-3.1228,-3.0889,-3.0889,-3.0889,-3.0889,-3.0889,-3.0889,-3.0615,-3.0195,-3.0195,-3.027,-3.0394,-3.0394,-3.0394,-3.0354,-3.0103,0.0,0.0,0.0,0.0,0.0,0.0,0.0,0.0,0.0,0.0,0.0,0.0,0.0,0.0,0.0,0.0,0.0,0.0,0.0,0.0,0.0,0.0,0.0,0.0,-2.7976,-2.8394,-2.845,-2.8283,-2.7635,-2.6305,-2.4794,-2.3263,-2.165,-2.0208,-1.9456,-1.9654,-1.9647,-1.9769,-2.0157,-2.0482,-2.0672,-2.0862,-2.1046,-2.1109,-2.1109,-2.1109,-2.1109,-2.1109,-2.1109,-2.1109,-2.1109,-2.1109,-2.1727,-2.2779,-2.3574,-2.4925,-2.671,-2.7513,-2.831,-2.8984,0.0,0.0,0.0,0.0,-2.8984,-2.8984,0.0,0.0,0.0,0.0,0.0,0.0,0.0,0.0,0.0,0.0,0.0,-4.1975,-4.2704,-4.19,-4.1106,-4.0604,-3.9246,-3.7859,0.0,0.0,0.0,-3.7156,-3.7252,-3.7505,-3.7974,-3.7986,-3.7986,-3.7986,-3.7986,-3.6815,-3.4614,-3.4447,-3.3222,-3.1122,-3.0947,-3.0889,-3.0889,-3.0889,-3.0889,-3.0889,-3.0889,-3.0644,-3.0273,-3.0273,-3.0379,-3.0434,-3.0434,-3.0434,-3.0424,-3.0374,0.0,0.0,0.0,0.0,0.0,0.0,0.0,0.0,0.0,0.0,0.0,0.0,0.0,0.0,0.0,0.0,0.0,0.0,0.0,0.0,0.0,0.0,0.0,0.0,-2.8159,-2.8473,-2.8471,-2.8457,-2.8337,-2.7969,-2.5293,-2.3311,-2.3062,-2.0633,-1.9078,-1.9078,-1.9392,-1.9577,-1.9577,-2.0221,0.0,0.0,0.0,-2.1046,-2.1046,-2.1046,-2.1046,-2.1109,-2.1109,-2.1109,-2.1109,-2.1229,-2.2591,-2.481,-2.5117,-2.6589,-2.8797,-2.8925,-2.8984,-2.8984,-2.8984,-2.8984,-2.8984,-2.8984,-2.8984,-2.8984,0.0,0.0,0.0,0.0,0.0,0.0,0.0,0.0,0.0,-4.1311,-4.1567,-4.1975,-4.2704,-4.2425,-4.2035,-4.1739,-4.0707,-3.9411,0.0,0.0,-3.6976,-3.718,-3.7601,-3.7878,-3.7986,-3.7986,-3.7986,-3.7986,-3.7986,-3.7269,-3.585,-3.4836,-3.3674,-3.2295,-3.1344,-3.0889,-3.0889,-3.0889,-3.0889,-3.0889,-3.0889,-3.084,-3.0752,-3.0752,-3.0761,-3.0808,-3.0808,-3.0808,-3.0749,-3.0376,-3.0182,-3.0,-2.958,-2.9199,0.0,0.0,0.0,0.0,0.0,0.0,0.0,0.0,0.0,0.0,0.0,0.0,0.0,0.0,0.0,0.0,0.0,0.0,0.0,-2.7813,-2.8388,-2.8783,-2.8567,-2.8268,-2.7211,-2.481,-2.3752,-2.232,-2.0138,-1.945,-1.9078,-1.9078,-1.9142,-1.9328,-1.9577,-1.9973,-2.017,-2.017,-2.0545,-2.0672,-2.0672,-2.0672,-2.0862,-2.1109,-2.1109,0.0,-2.1172,-2.2215,-2.3014,-2.3566,-2.5721,-2.6892,-2.7444,-2.8549,-2.8984,-2.8984,-2.8984,-2.8984,-2.8984,-2.8984,-2.8984,-2.8984,0.0,0.0,0.0,0.0,0.0,0.0,0.0,0.0,0.0,0.0,-4.2579,-4.3067,-4.3636,-4.3128,-4.2638,-4.2345,-4.1133,0.0,0.0,-3.7977,-3.7858,-3.7629,-3.7841,-3.7986,-3.7986,-3.7986,-3.7986,-3.7986,-3.7986,-3.7376,-3.6177,-3.4947,-3.3786,-3.2628,-3.145,-3.0889,-3.0889,-3.0889,-3.0889,-3.0889,-3.0889,-3.0889,-3.0889,-3.0889,-3.0889,-3.0889,-3.0889,-3.0889,-3.0859,-3.0625,-3.0547,-3.0469,-3.0019,-2.9736,-2.9473,0.0,0.0,0.0,0.0,0.0,0.0,0.0,0.0,0.0,0.0,0.0,0.0,0.0,0.0,-2.7178,-2.7178,0.0,-2.8077,-2.8077,-2.859,-2.8806,-2.8328,-2.8089,-2.7401,-2.5729,-2.4124,-2.2577,-2.1202,-1.989,-1.9078,-1.9078,-1.9078,-1.92,-1.9322,-1.9647,-1.9845,-1.9845,-2.0164,-2.0361,-2.0361,-2.0545,-2.0672,-2.0856,-2.1046,-2.1109,-2.1172,-2.2459,-2.3442,-2.4186,-2.6156,-2.7383,-2.8062,-2.8737,-2.8984,-2.8984,-2.8984,-2.8984,-2.8984,-2.8984,-2.8984,-2.8984,0.0,0.0,0.0,0.0,0.0,0.0,0.0,0.0,0.0,0.0,-4.3522,-4.4161,-4.4545,-4.3892,-4.3227,0.0,0.0,0.0,0.0,-3.8717,-3.8685,-3.8015,-3.7986,-3.7986,-3.7986,-3.7986,-3.7986,-3.7986,-3.7986,-3.7376,-3.6177,-3.4947,-3.3786,-3.2628,-3.145,-3.0889,-3.0889,-3.0889,-3.0889,-3.0889,-3.0889,-3.0889,-3.0889,-3.0889,-3.0889,-3.0889,-3.0889,-3.0888,-3.083,-3.0859,-3.0888,-3.0771,-3.042,-3.0273,-3.0106,-2.9628,-2.9534,0.0,0.0,0.0,0.0,0.0,0.0,0.0,0.0,-2.8013,-2.7613,-2.7757,-2.7822,-2.7822,-2.7822,-2.8113,-2.8397,-2.8397,-2.8728,-2.8746,-2.808,-2.802,-2.7831,-2.747,-2.4863,-2.2889,-2.2389,-2.0392,-1.9078,-1.9078,-1.9078,-1.9078,-1.9078,-1.945,-1.9577,-1.9514,-1.9845,-1.9979,-1.9979,-2.0354,-2.0545,-2.0609,-2.0919,-2.1235,-2.1538,-2.2827,-2.4186,-2.5485,-2.6831,-2.8002,-2.8984,-2.8984,-2.8984,-2.8984,-2.8984,-2.8984,-2.8984,-2.8984,-2.8984,-2.8984,0.0,0.0,0.0,0.0,0.0,0.0,0.0,0.0,0.0,0.0,0.0,0.0,0.0,0.0,0.0,0.0,0.0,0.0,-3.9857,-3.9597,-3.9082,-3.8027,-3.7986,-3.7986,-3.7986,-3.7986,-3.7986,-3.7986,-3.7986,-3.7376,-3.6177,-3.4947,-3.3786,-3.2628,-3.145,-3.0889,-3.0889,-3.0889,-3.0889,-3.0889,-3.0889,-3.0889,-3.0889,-3.0889,-3.0889,-3.0889,-3.0889,-3.0808,-3.0638,-3.081,-3.0798,-3.0638,-3.0761,-3.0537,-3.0164,-2.9984,-2.9664,-2.9352,-2.9166,-2.944,-2.9703,-2.9382,-2.8998,-2.8652,0.0,-2.7918,-2.7434,-2.7756,-2.7822,-2.7822,-2.7822,-2.8113,-2.8397,-2.8397,-2.8728,-2.8746,-2.808,-2.802,-2.7788,-2.7194,-2.4756,-2.2139,-1.9763,-1.9264,-1.9078,-1.9078,-1.9078,-1.9078,-1.9078,-1.945,-1.945,-1.92,-1.945,-1.9641,-1.9641,-1.9973,-2.0297,-2.0609,-2.0919,-2.1727,-2.2889,-2.4193,-2.5476,-2.6831,-2.8182,-2.8856,-2.8984,-2.8984,-2.8984,-2.8984,-2.8984,-2.8984,-2.8984,-2.8984,-2.8984,-2.8984,0.0,0.0,0.0,0.0,0.0,0.0,0.0,0.0,0.0,0.0,0.0,0.0,0.0,0.0,0.0,0.0,0.0,0.0,-4.1039,-4.0687,-4.0058,-3.9,-3.8332,-3.7986,-3.7986,-3.7986,-3.7986,-3.7986,-3.7986,-3.7761,-3.7215,-3.6002,-3.4847,-3.3618,-3.2457,-3.1566,-3.0889,-3.0889,-3.0889,-3.0889,-3.0889,-3.0889,-3.0889,-3.0889,-3.0889,-3.0859,-3.0759,-3.06,0.0,0.0,-3.06,-3.0455,-3.08,-3.0692,-3.0401,-3.0247,-3.0108,-2.9988,-2.9993,-2.9973,-2.9928,-3.0,-2.9579,-2.9079,-2.9184,-2.8583,-2.8031,-2.8425,-2.8471,-2.8471,-2.8471,-2.8618,-2.8737,-2.8737,-2.8874,-2.8746,-2.808,-2.802,-2.722,-2.501,-2.376,-2.264,-2.1517,-2.0017,-1.9078,-1.9078,-1.9078,-1.9078,-1.9078,-1.92,-1.9264,-1.9078,-1.9264,-1.9328,-1.9328,-1.9845,-2.017,-2.0297,-2.1664,-2.2584,-2.3201,-2.5232,-2.6892,-2.8182,-2.8737,-2.8984,-2.8984,-2.8984,-2.8984,-2.8984,-2.8984,-2.8984,-2.8984,-2.8984,-2.8984,-2.8984,0.0,0.0,0.0,0.0,0.0,0.0,0.0,0.0,0.0,0.0,0.0,0.0,0.0,0.0,0.0,0.0,0.0,0.0,0.0,-4.1041,-4.0399,-3.9196,-3.8384,-3.7986,-3.7986,-3.7986,-3.7986,-3.7986,-3.7986,-3.7986,-3.7986,-3.6449,-3.5234,-3.4336,-3.2846,-3.173,-3.0889,-3.0889,-3.0889,-3.0889,-3.0889,-3.0889,-3.0889,-3.0889,-3.081,-3.0712,-3.0551,-3.0354,0.0,0.0,-3.0234,-3.0157,-3.0505,-3.0588,-3.0505,-3.0289,-3.0233,-3.0188,-3.0352,-3.0221,-3.0125,-3.0335,-2.9891,-2.9458,-2.9516,-2.9012,-2.8636,-2.892,-2.8984,-2.8984,-2.8984,-2.8984,-2.8984,-2.8984,-2.8984,-2.8746,-2.808,-2.802,-2.703,-2.451,-2.3574,-2.3076,-2.3076,-2.0639,-1.9078,-1.9078,-1.9078,-1.9078,-1.9078,-1.9078,-1.9078,-1.9078,-1.9078,-1.9078,-1.9078,-1.9654,-2.0043,-2.0106,-2.202,-2.3201,-2.369,-2.6338,-2.8062,-2.8984,-2.8984,-2.8984,-2.8984,-2.8984,-2.8984,-2.8984,-2.8984,-2.8984,-2.8984,-2.8984,-2.8984,-2.8984,0.0,0.0,0.0,0.0,0.0,0.0,0.0,0.0,0.0,0.0,0.0,0.0,0.0,0.0,0.0,0.0,0.0,0.0,0.0,-4.0211,-3.965,-3.8108,-3.8027,-3.7986,-3.7986,-3.7986,-3.7986,-3.7986,-3.7986,-3.7986,-3.7933,-3.5553,-3.4447,-3.428,-3.2008,-3.0947,-3.0889,-3.0889,-3.0889,-3.0889,-3.0889,-3.0889,-3.0889,-3.0889,-3.0615,-3.0215,-3.0195,0.0,0.0,0.0,-2.9703,-2.9818,-2.9982,-3.0213,-3.0324,-2.9947,-2.9728,-2.9644,-2.9769,-3.0083,-3.0272,-2.987,-2.9833,-2.9726,-2.9144,-2.9025,-2.8966,-2.8984,-2.8984,-2.8984,-2.8984,-2.8984,-2.8984,-2.8984,-2.8984,-2.8746,-2.808,-2.802,-2.7728,-2.7064,-2.4695,-2.3076,-2.3076,-2.0639,-1.9078,-1.9078,-1.9078,-1.9078,-1.9078,-1.9078,-1.9078,-1.9078,-1.9078,-1.9078,-1.9078,-1.945,-1.9775,-2.0106,-2.1839,-2.3442,-2.5056,-2.7693,-2.8984,-2.8984,-2.8984,-2.8984,-2.8984,-2.8984,-2.8984,-2.8984,-2.8984,-2.8984,-2.8984,-2.8984,-2.8984,-2.8984,0.0,0.0,0.0,0.0,0.0,0.0,0.0,0.0,0.0,0.0,0.0,0.0,0.0,0.0,0.0,0.0,0.0,0.0,0.0,-4.0383,-3.9758,-3.8598,-3.8202,-3.7986,-3.7986,-3.7986,-3.7986,-3.7986,-3.7986,-3.7986,-3.7974,-3.715,-3.6383,-3.5564,-3.4792,-3.3955,-3.3166,-3.2399,-3.2065,-3.2008,-3.1228,-3.0889,-3.0859,-3.0547,-3.0332,-3.0117,0.0,0.0,0.0,0.0,-2.9337,-2.9268,-2.96,-2.9717,-2.9674,-2.9387,-2.942,-2.9523,-2.9854,-3.0115,-3.0315,-3.0431,-3.0179,-2.9863,-2.9627,-2.9281,-2.8984,-2.8984,-2.8773,-2.859,-2.859,-2.859,-2.859,-2.859,-2.881,-2.8865,-2.8388,-2.814,-2.7521,-2.6164,-2.4309,-2.2764,-2.1888,-2.0138,-1.9078,-1.9078,-1.9078,-1.9078,-1.9078,-1.9078,-1.9078,-1.9078,-1.9078,-1.9078,-1.9078,-2.0329,-2.0956,-2.1152,-2.3869,-2.6026,-2.7693,-2.8618,-2.8984,-2.8984,-2.8984,-2.8984,-2.8984,-2.8984,-2.8984,-2.8984,-2.8984,-2.8984,-2.8984,-2.8984,-2.8984,-2.8984,0.0,0.0,0.0,0.0,0.0,0.0,0.0,0.0,0.0,0.0,0.0,0.0,0.0,0.0,0.0,0.0,0.0,-4.1014,0.0,0.0,-3.8774,-3.7989,-3.763,-3.7421,-3.7421,-3.7421,-3.7421,-3.7421,-3.7613,-3.7697,-3.7697,-3.7465,-3.6719,-3.5564,-3.5124,-3.4291,-3.3119,-3.2342,-3.1974,-3.1755,-3.0971,-3.0547,-3.0381,-3.0088,-2.9873,0.0,0.0,0.0,0.0,0.0,-2.8928,-2.8859,-2.9188,-2.9317,-2.9286,-2.921,-2.9379,-2.962,-2.9984,-3.0226,-3.0417,-3.0645,-3.0284,-2.9863,-2.9804,-2.9331,-2.8984,-2.8984,-2.8663,-2.8397,-2.8397,-2.8269,-2.8168,-2.8168,-2.8379,-2.8482,-2.8341,-2.8003,-2.7364,-2.6313,-2.4363,-2.2764,-2.1888,-2.0138,-1.9078,-1.9078,-1.9078,-1.9078,-1.9078,-1.9078,-1.9078,-1.9078,-1.9577,-1.9826,-1.9826,-2.1391,-2.2445,-2.2992,-2.5407,-2.7323,-2.8806,-2.8925,-2.8984,-2.8984,-2.8984,-2.8984,-2.8984,-2.8984,-2.8984,-2.8984,-2.8984,-2.8984,-2.8984,-2.8984,-2.8984,-2.8984,0.0,0.0,0.0,0.0,0.0,0.0,0.0,0.0,0.0,0.0,0.0,0.0,0.0,0.0,0.0,0.0,0.0,0.0,0.0,0.0,0.0,-3.6389,-3.6386,-3.6411,-3.6411,-3.6411,-3.6411,-3.6411,-3.6904,-3.7156,-3.7168,-3.6524,-3.5595,-3.4371,-3.3328,-3.2166,-3.0985,-3.0937,-3.0682,-3.028,-3.0166,-2.9922,-2.9626,-2.9541,0.0,0.0,0.0,0.0,0.0,-2.8291,-2.8471,-2.8714,-2.8743,-2.8947,-2.9176,-2.9357,-2.9595,-2.9883,-3.015,-3.0396,-3.0571,-3.0461,-3.0157,-2.9804,-2.9568,-2.9272,-2.8975,-2.8957,-2.8636,-2.8361,-2.8333,-2.8022,-2.7822,-2.7822,-2.7858,-2.79,-2.7935,-2.7646,-2.7425,-2.7538,-2.4986,-2.3201,-2.3201,-2.0823,-1.9328,-1.9328,-1.92,-1.9078,-1.9078,-1.92,-1.92,-1.92,-2.0513,-2.1202,-2.1202,-2.2514,-2.3993,-2.5582,-2.6261,-2.7263,-2.8517,-2.8865,-2.8984,-2.8984,-2.8984,-2.8984,-2.8984,-2.8984,-2.8984,-2.8984,-2.8984,-2.8984,-2.8984,-2.8984,-2.8984,-2.8984,0.0,0.0,0.0,0.0,0.0,0.0,0.0,0.0,0.0,0.0,0.0,0.0,0.0,0.0,0.0,0.0,0.0,0.0,0.0,0.0,0.0,0.0,0.0,0.0,0.0,0.0,0.0,0.0,-3.6543,-3.6717,-3.6921,-3.6735,-3.6048,-3.4966,-3.4714,-3.3785,-3.2487,-3.164,-3.1191,-3.1033,0.0,-2.9668,-2.9531,0.0,0.0,0.0,0.0,0.0,-2.8291,-2.8291,-2.855,-2.8927,-2.9251,-2.9414,-2.9488,-2.9541,-2.9797,-3.0091,-3.0194,-3.0507,-3.08,-3.0791,-3.0343,-2.9863,-2.9804,-2.939,-2.8893,-2.8599,-2.8214,-2.7838,-2.7545,-2.7702,-2.7822,-2.7822,-2.8269,-2.8709,-2.8692,-2.8235,-2.7845,-2.7882,-2.592,-2.4571,-2.4571,-2.3076,-2.2076,-2.2076,-2.0202,-1.9078,-1.9078,-2.0081,-2.0576,-2.0576,-2.1888,-2.2577,-2.2577,-2.3946,-2.5423,-2.7013,-2.7392,-2.796,-2.8517,-2.8865,-2.8984,-2.8984,-2.8984,-2.8984,-2.8984,-2.8984,-2.8984,-2.8984,-2.8984,-2.8984,-2.8984,-2.8984,-2.8984,-2.8984,0.0,0.0,0.0,0.0,0.0,0.0,0.0,0.0,0.0,0.0,0.0,0.0,0.0,0.0,0.0,0.0,0.0,0.0,0.0,0.0,0.0,0.0,0.0,0.0,0.0,0.0,0.0,0.0,0.0,0.0,-3.6475,-3.6555,-3.6132,-3.5263,-3.4525,-3.3568,-3.233,-3.1124,0.0,0.0,0.0,0.0,0.0,0.0,0.0,0.0,0.0,0.0,-2.8594,-2.8789,-2.9014,-2.9248,-2.9492,-2.9682,-2.9777,-2.9851,-3.0123,-3.0415,-3.0497,-3.0693,-3.0889,-3.0889,-3.0528,-3.0109,-3.0054,-2.9472,-2.8824,-2.8533,-2.7954,-2.75,-2.7215,-2.7361,-2.7564,-2.7564,-2.8031,-2.8507,-2.87,-2.8187,-2.7774,-2.8002,-2.6302,-2.5071,-2.5071,-2.3884,-2.3076,-2.3076,-2.1139,-1.9954,-1.9954,-2.0138,-2.0513,-2.1076,-2.2389,-2.3698,-2.4818,-2.557,-2.6432,-2.7358,-2.7779,-2.808,-2.8268,-2.8806,-2.8984,-2.8984,-2.8984,-2.8984,-2.8984,-2.8984,-2.8984,-2.8984,-2.8984,-2.8984,-2.8984,-2.8984,-2.8984,-2.8984,0.0,0.0,0.0,0.0,0.0,0.0,0.0,0.0,0.0,0.0,0.0,0.0,0.0,0.0,0.0,0.0,0.0,0.0,0.0,0.0,0.0,0.0,0.0,0.0,0.0,0.0,0.0,0.0,0.0,0.0,0.0,0.0,0.0,0.0,0.0,0.0,0.0,0.0,0.0,0.0,0.0,0.0,0.0,0.0,0.0,0.0,0.0,-2.8564,-2.8984,-2.9424,-2.9665,-2.9658,-2.9726,-2.9924,-3.0162,-3.0242,-3.0464,-3.0677,-3.0839,-3.0889,-3.0889,-3.0889,-3.0635,-3.0335,-3.0217,-2.9537,-2.8858,-2.855,-2.7847,-2.7271,-2.716,-2.7141,-2.7196,-2.7242,-2.7647,-2.7994,-2.8416,-2.7944,-2.7647,-2.7975,-2.6485,-2.5378,-2.5386,-2.4317,-2.3636,-2.3636,-2.2389,-2.158,-2.1391,-2.0456,-2.0519,-2.1825,-2.3014,-2.4756,-2.7073,-2.7073,-2.7073,-2.7133,-2.7728,-2.802,-2.802,-2.8677,-2.8984,-2.8984,-2.8984,-2.8984,-2.8984,-2.8984,-2.8984,-2.8984,-2.8984,-2.8984,-2.8984,-2.8984,-2.8984,-2.8984,0.0,0.0,0.0,0.0,0.0,0.0,0.0,0.0,0.0,0.0,-4.2725,-4.317,0.0,0.0,0.0,0.0,0.0,0.0,0.0,0.0,0.0,0.0,0.0,0.0,0.0,-3.4775,-3.4775,-3.4775,-3.5114,0.0,0.0,0.0,0.0,0.0,0.0,0.0,0.0,0.0,0.0,0.0,0.0,0.0,0.0,0.0,0.0,0.0,-2.8291,-2.8564,-2.8984,0.0,-2.9805,-3.0156,-3.0537,-3.0722,-3.0741,-3.0752,-3.083,-3.0849,-3.0869,-3.0889,-3.0889,-3.0889,-3.0635,-3.0335,-3.0217,-2.9881,-2.9298,-2.8303,-2.7974,-2.7612,-2.6857,-2.6958,-2.7288,-2.7666,-2.8012,-2.8425,-2.8819,-2.8527,-2.8256,-2.8011,-2.7461,-2.6978,-2.6753,-2.6571,-2.6388,-2.6388,-2.5133,-2.3946,-2.2827,-2.3574,-2.4695,-2.6006,-2.6258,-2.664,-2.7073,-2.7073,-2.7073,-2.7133,-2.7728,-2.802,-2.802,-2.8677,-2.8984,-2.8984,-2.8984,-2.8984,-2.8984,-2.8984,-2.8984,-2.8984,-2.8984,-2.8984,-2.8984,-2.8984,-2.8984,-2.8984,0.0,0.0,0.0,0.0,0.0,0.0,0.0,-4.1852,-4.1589,-4.1449,-4.1601,-4.1864,-4.2293,-4.0831,0.0,0.0,0.0,0.0,0.0,0.0,0.0,0.0,0.0,0.0,0.0,-3.503,-3.5078,-3.5223,0.0,-3.5464,-3.562,-3.5716,-3.5608,-3.515,-3.3674,-3.2716,-3.2101,0.0,0.0,-2.9059,-2.8495,-2.8291,0.0,0.0,0.0,0.0,0.0,-2.8564,-2.8955,0.0,-2.978,-3.0273,-3.0742,-3.0889,-3.0889,-3.0889,-3.0889,-3.0889,-3.0889,-3.0889,-3.0889,-3.0889,-3.0762,-3.0587,-3.0369,-2.9703,-2.9011,-2.8279,-2.767,-2.7131,-2.6673,-2.6912,-2.7242,-2.7482,-2.7985,-2.8462,-2.8654,-2.8569,-2.8397,-2.802,-2.7702,-2.7409,-2.7133,-2.7073,-2.7073,-2.7073,-2.651,-2.557,-2.4201,-2.4756,-2.5386,-2.6067,-2.6761,-2.7073,-2.7073,-2.7073,-2.7194,-2.7297,-2.7779,-2.808,-2.8268,-2.8746,-2.8984,-2.8984,-2.8984,-2.8984,-2.8984,-2.8984,-2.8984,-2.8984,-2.8984,-2.8984,-2.8984,-2.8984,-2.8984,-2.8984,0.0,0.0,0.0,0.0,0.0,0.0,0.0,-4.1421,-4.0986,-4.093,-4.0218,-4.0118,-4.1057,-3.9743,-3.8416,0.0,0.0,0.0,0.0,0.0,0.0,0.0,0.0,0.0,0.0,0.0,0.0,-3.562,-3.562,0.0,0.0,0.0,0.0,0.0,-3.4299,-3.3598,-3.3438,-3.0938,-2.9765,0.0,0.0,-2.8291,0.0,0.0,0.0,0.0,0.0,-2.856,-2.8917,-2.9298,-2.9717,-3.017,-3.0631,-3.078,-3.0742,-3.08,-3.08,-3.0762,-3.0859,-3.0889,-3.0889,-3.0889,-3.0889,-3.0828,-3.0494,-2.9616,-2.877,-2.8359,-2.7495,-2.6745,-2.6646,-2.6839,-2.7077,-2.716,-2.7719,-2.8196,-2.837,-2.8428,-2.8358,-2.814,-2.7831,-2.753,-2.7185,-2.7133,-2.7073,-2.7073,-2.7073,-2.6631,-2.557,-2.5509,-2.5509,-2.5509,-2.6571,-2.7073,-2.7073,-2.7073,-2.7185,-2.7401,-2.7831,-2.814,-2.8397,-2.8806,-2.8984,-2.8984,-2.8984,-2.8984,-2.8984,-2.8984,-2.8984,-2.8984,-2.8984,-2.8984,-2.8984,-2.8984,-2.8984,-2.8984,0.0,0.0,0.0,0.0,0.0,0.0,0.0,-3.9929,-3.9929,-3.9683,-3.8845,-3.8334,-3.8469,-3.8081,-3.7455,0.0,0.0,0.0,0.0,0.0,0.0,0.0,0.0,0.0,0.0,0.0,0.0,-3.562,-3.562,0.0,0.0,0.0,0.0,0.0,0.0,-3.3089,-3.2072,-3.0535,0.0,0.0,0.0,0.0,0.0,0.0,0.0,0.0,0.0,-2.8481,-2.8803,-2.9263,-2.9595,-2.9888,-3.0319,-3.0346,-3.0321,-3.0559,-3.0435,-3.0351,-3.0771,-3.0889,-3.0889,-3.0889,-3.0889,-3.0828,-3.0494,-2.9951,-2.9271,-2.8467,-2.7755,-2.7171,-2.6691,-2.6619,-2.6756,-2.7114,-2.7242,-2.7545,-2.8287,-2.8425,-2.8414,-2.848,-2.8148,-2.7831,-2.7521,-2.7237,-2.7073,-2.7073,-2.7073,-2.7073,-2.6943,-2.6943,-2.6943,-2.6943,-2.7012,-2.7073,-2.7073,-2.7073,-2.7133,-2.7133,-2.7719,-2.802,-2.808,-2.8687,-2.8984,-2.8984,-2.8984,-2.8984,-2.8984,-2.8984,-2.8984,-2.8984,-2.8984,-2.8984,-2.8984,-2.8984,-2.8984,-2.8984,0.0,0.0,0.0,0.0,0.0,0.0,-3.9448,-3.893,-3.8541,-3.8289,-3.754,-3.6871,-3.6402,-3.6402,-3.6273,-3.593,0.0,0.0,0.0,0.0,0.0,0.0,0.0,0.0,0.0,0.0,-3.5476,-3.5812,-3.5812,0.0,0.0,0.0,0.0,0.0,0.0,-3.3338,-3.2839,-3.0794,0.0,0.0,0.0,0.0,0.0,0.0,0.0,0.0,0.0,0.0,-2.8757,-2.9086,-2.9477,-2.984,-2.99,-2.9803,-2.9829,-3.0409,-3.049,-3.0531,-3.083,-3.0889,-3.0889,-3.0889,-3.0799,-3.0655,-3.0424,-2.9928,-2.9252,-2.8472,-2.7809,-2.7215,-2.6691,-2.6591,-2.6637,-2.6793,-2.7022,-2.7288,-2.7618,-2.7866,-2.8053,-2.8102,-2.802,-2.7872,-2.7804,-2.7719,-2.7539,-2.7349,-2.7185,-2.7073,-2.7073,-2.7073,-2.7073,-2.7073,-2.7073,-2.7073,-2.7073,-2.7073,-2.7254,-2.7668,-2.79,-2.8199,-2.8618,-2.8865,-2.8984,-2.8984,-2.8984,-2.8984,-2.8984,-2.8984,-2.8984,-2.8984,-2.8984,-2.8984,-2.8984,-2.8984,-2.8984,-2.8984,0.0,0.0,0.0,0.0,0.0,-3.9064,-3.8707,-3.8102,-3.7612,-3.7309,-3.6555,-3.5847,-3.5271,-3.5271,-3.5368,-3.5368,-3.503,0.0,0.0,0.0,0.0,0.0,0.0,0.0,0.0,0.0,-3.5572,-3.6015,-3.5812,-3.5572,0.0,0.0,-3.562,-3.5078,0.0,0.0,0.0,0.0,0.0,0.0,0.0,0.0,0.0,0.0,0.0,0.0,0.0,0.0,0.0,0.0,0.0,-2.9822,-2.9772,-2.9629,0.0,-3.0232,-3.0317,-3.0401,-3.0739,-3.0849,-3.0889,-3.0889,-3.0777,-3.0551,-3.0439,-2.9854,-2.9208,-2.8432,-2.7809,-2.7215,-2.6691,-2.6591,-2.6591,-2.6591,-2.682,-2.704,-2.716,-2.7416,-2.768,-2.7852,-2.779,-2.7768,-2.7926,-2.8009,-2.7891,-2.7642,-2.7358,-2.7246,-2.7246,-2.7133,-2.7073,-2.7073,-2.7073,-2.7073,-2.7073,-2.7073,-2.7306,-2.7728,-2.784,-2.8131,-2.8687,-2.8806,-2.8925,-2.8984,-2.8984,-2.8984,-2.8984,-2.8984,-2.8984,-2.8984,-2.8984,-2.8984,-2.8984,-2.8984,-2.8984,-2.8984,0.0,0.0,0.0,0.0,0.0,0.0,-3.7586,-3.7415,-3.7322,-3.7019,-3.5941,-3.5223,-3.5223,-3.4981,-3.4823,-3.4823,-3.4775,0.0,0.0,0.0,0.0,0.0,0.0,0.0,0.0,0.0,-3.5223,-3.6015,-3.5476,-3.5223,-3.5223,-3.5476,-3.532,-3.4835,0.0,0.0,0.0,0.0,0.0,0.0,0.0,0.0,0.0,0.0,0.0,0.0,0.0,0.0,0.0,0.0,0.0,0.0,0.0,-2.9994,0.0,0.0,-2.9689,-2.978,-3.0438,-3.0777,-3.0889,-3.0889,-3.0777,-3.0551,-3.0439,-2.9854,-2.9208,-2.8432,-2.7809,-2.7215,-2.6691,-2.6591,-2.6591,-2.6591,-2.6591,-2.6738,-2.7123,-2.7178,-2.7334,-2.7728,-2.7498,-2.7479,-2.7867,-2.7967,-2.802,-2.802,-2.7702,-2.7521,-2.7521,-2.7237,-2.7073,-2.7073,-2.7073,-2.7073,-2.7073,-2.7073,-2.7073,-2.7133,-2.7409,-2.7702,-2.802,-2.8337,-2.8696,-2.8984,-2.8984,-2.8984,-2.8984,-2.8984,-2.8984,-2.8984,-2.8984,-2.8984,-2.8984,-2.8984,-2.8984,-2.8984,0.0,0.0,0.0,0.0,0.0,0.0,0.0,-3.6452,-3.6298,-3.581,-3.5452,-3.5126,-3.4932,-3.4823,-3.4775,-3.4775,-3.4775,0.0,0.0,0.0,0.0,0.0,0.0,0.0,0.0,0.0,-3.5271,-3.5716,-3.5572,-3.5464,-3.5476,-3.5764,-3.5211,-3.3956,-3.3289,-3.2061,0.0,0.0,0.0,0.0,0.0,0.0,-2.8291,0.0,0.0,0.0,0.0,0.0,0.0,0.0,0.0,0.0,0.0,0.0,0.0,-2.9674,-2.9826,-3.0063,-3.0374,-3.0492,-3.0545,-3.0545,-3.0439,-3.0308,-3.0265,-3.0051,-2.9536,-2.8534,-2.813,-2.7701,-2.6745,-2.6591,-2.6591,-2.6591,-2.6591,-2.6628,-2.6756,-2.7004,-2.7381,-2.7776,-2.8202,-2.8537,-2.8655,-2.8435,-2.8328,-2.8328,-2.802,-2.7762,-2.7521,-2.7401,-2.7297,-2.7133,-2.7073,-2.7073,-2.7073,-2.7073,-2.7185,-2.7409,-2.7711,-2.802,-2.8337,-2.8696,-2.8925,-2.8984,-2.8984,-2.8984,-2.8984,-2.8984,-2.8984,-2.8984,-2.8984,-2.8984,-2.8984,-2.8984,-2.8984,-2.8984,0.0,0.0,0.0,0.0,0.0,0.0,0.0,-3.5716,-3.5512,-3.5126,-3.5078,-3.4981,-3.4835,-3.4775,-3.4775,-3.4775,-3.4775,0.0,0.0,0.0,0.0,0.0,0.0,0.0,0.0,-3.5271,-3.5368,-3.5764,-3.5668,-3.562,-3.5572,-3.5368,-3.4653,-3.3549,-3.2889,-3.1819,0.0,0.0,0.0,0.0,0.0,0.0,-2.8291,0.0,0.0,0.0,0.0,0.0,0.0,0.0,0.0,0.0,0.0,0.0,0.0,0.0,-2.9874,-3.0031,-3.0251,-3.0384,-3.0394,-3.0394,-3.0292,-3.014,-2.9934,-2.9784,-2.9353,-2.8184,-2.797,-2.7701,-2.6745,-2.6591,-2.6591,-2.6591,-2.6591,-2.6637,-2.6793,-2.7022,-2.7381,-2.7776,-2.8361,-2.8755,-2.8755,-2.8724,-2.8696,-2.8696,-2.8388,-2.802,-2.7711,-2.7581,-2.7409,-2.7133,-2.7073,-2.7073,-2.7073,-2.7073,-2.7185,-2.7349,-2.765,-2.796,-2.8328,-2.8687,-2.8865,-2.8984,-2.8984,-2.8984,0.0,-2.8984,-2.8984,-2.8984,-2.8984,-2.8984,-2.8984,-2.8984,-2.8984,-2.8984,0.0,0.0,0.0,0.0,0.0,0.0,0.0,-3.5223,-3.5126,-3.4823,-3.4775,-3.4775,-3.4775,-3.4775,-3.4775,-3.4775,0.0,0.0,0.0,0.0,0.0,0.0,0.0,0.0,-3.5572,-3.532,-3.5464,-3.6015,-3.5716,-3.562,-3.562,-3.4605,-3.3944,-3.3648,-3.3598,-3.2789,0.0,0.0,0.0,0.0,0.0,0.0,0.0,0.0,0.0,0.0,0.0,0.0,0.0,0.0,0.0,0.0,0.0,0.0,0.0,0.0,0.0,0.0,0.0,-3.0275,-3.0359,-3.0359,-3.0275,-3.0045,-2.9505,-2.923,0.0,-2.7638,-2.7377,-2.7215,-2.6691,-2.6591,-2.6591,-2.6591,-2.6591,-2.6729,-2.7123,-2.7224,-2.7407,-2.7868,-2.8196,-2.8434,-2.8434,-2.8764,-2.8984,-2.8984,-2.8696,-2.8397,-2.802,-2.7702,-2.7409,-2.7133,-2.7133,-2.7073,-2.7073,-2.7073,-2.7073,-2.7073,-2.7349,-2.7642,-2.796,-2.8337,-2.8696,-2.8984,-2.8984,-2.8984,-2.8984,-2.8984,-2.8984,-2.8984,-2.8984,-2.8984,-2.8984,-2.8984,-2.8984,-2.8984,0.0,0.0,0.0,0.0,0.0,0.0,0.0,0.0,0.0,0.0,-3.4775,-3.4775,-3.4775,-3.4775,-3.4775,0.0,0.0,0.0,0.0,0.0,0.0,0.0,0.0,0.0,-3.5271,-3.5223,-3.5464,-3.6015,-3.5716,-3.58,-3.6181,-3.5548,-3.4751,-3.3895,-3.3697,-3.2376,0.0,0.0,0.0,0.0,0.0,0.0,0.0,0.0,0.0,0.0,-2.892,-2.9079,0.0,0.0,0.0,0.0,0.0,0.0,0.0,0.0,-2.9942,0.0,-3.0023,0.0,-3.0093,-3.0093,-3.0074,-2.9886,0.0,-2.9159,-2.8761,-2.7638,-2.7377,-2.7215,-2.6691,-2.6591,-2.6591,-2.6591,-2.6591,-2.6729,-2.7123,-2.7719,-2.8251,-2.8645,-2.8783,-2.8847,-2.8847,-2.8929,-2.8984,-2.8984,-2.8925,-2.8746,-2.8397,-2.808,-2.7711,-2.7409,-2.7185,-2.7073,-2.7073,-2.7073,-2.7073,-2.7073,-2.7349,-2.7521,-2.7642,-2.8208,-2.8517,-2.8636,-2.8865,-2.8984,-2.8984,-2.8984,-2.8984,-2.8984,-2.8984,-2.8984,-2.8984,-2.8984,-2.8984,-2.8984,0.0,0.0,0.0,0.0,0.0,0.0,0.0,0.0,0.0,0.0,0.0,0.0,0.0,0.0,0.0,0.0,0.0,0.0,0.0,0.0,0.0,0.0,0.0,-3.4932,-3.5175,-3.5223,-3.5416,-3.5824,-3.5668,-3.58,-3.6181,-3.515,-3.4458,-3.3944,-3.3089,-3.2476,0.0,0.0,0.0,0.0,-2.8708,0.0,0.0,0.0,0.0,0.0,-2.8973,-2.9185,0.0,-2.9837,-2.9994,-2.9994,0.0,0.0,0.0,0.0,-2.9774,-2.9669,-2.9942,-2.9994,-2.9994,-2.9837,-2.9722,-2.9396,-2.8708,-2.8441,-2.8067,-2.7215,-2.7008,-2.6954,-2.6646,-2.6591,-2.6591,-2.6591,-2.6738,-2.6995,-2.7445,-2.7829,-2.8251,-2.8663,-2.8718,-2.8783,-2.8966,-2.8984,-2.8984,-2.8984,-2.8984,-2.8865,-2.8526,-2.8208,-2.7831,-2.7521,-2.7246,-2.7073,-2.7073,-2.7073,-2.7073,-2.7073,-2.7349,-2.7521,-2.7521,-2.8208,-2.8526,-2.8526,-2.8865,-2.8984,-2.8984,-2.8984,-2.8984,-2.8984,-2.8984,-2.8984,-2.8984,-2.8984,-2.8984,-2.8984,0.0,0.0,0.0,0.0,0.0,0.0,0.0,0.0,0.0,0.0,0.0,0.0,0.0,0.0,0.0,0.0,0.0,0.0,0.0,0.0,0.0,0.0,0.0,-3.4932,-3.5175,-3.5223,-3.532,-3.562,-3.562,-3.5716,-3.592,-3.4507,-3.3944,-3.4042,-3.2689,-3.2901,0.0,0.0,0.0,-3.0908,-2.9069,0.0,0.0,0.0,0.0,0.0,0.0,0.0,0.0,-2.9889,-2.9994,-2.9994,-2.9994,0.0,0.0,0.0,0.0,0.0,-2.9837,-2.9993,-2.9972,-2.9732,-2.9448,-2.9026,-2.8174,-2.7745,-2.7377,-2.6745,-2.6591,-2.6591,-2.6591,-2.6591,-2.6591,-2.6591,-2.6967,-2.7407,-2.7868,-2.7911,-2.8086,-2.8443,-2.8489,-2.8618,-2.8948,-2.8984,-2.8984,-2.8984,-2.8984,-2.8865,-2.8576,-2.8268,-2.7891,-2.7581,-2.7297,-2.7133,-2.7073,-2.7073,-2.7073,-2.7073,-2.7358,-2.7461,-2.7461,-2.8148,-2.8397,-2.8457,-2.8806,-2.8984,-2.8984,-2.8984,-2.8984,-2.8984,-2.8984,-2.8984,-2.8984,-2.8984,-2.8984,-2.8984,0.0,0.0,0.0,0.0,0.0,0.0,0.0,0.0,0.0,0.0,0.0,0.0,0.0,0.0,0.0,0.0,0.0,0.0,0.0,0.0,0.0,0.0,-3.4775,-3.4932,-3.5175,-3.5223,-3.532,-3.562,-3.562,-3.562,-3.5668,-3.5175,-3.4872,-3.4677,-3.4421,-3.3461,-3.2083,-3.1575,-3.0349,-2.8751,-2.8451,0.0,0.0,0.0,0.0,0.0,0.0,0.0,0.0,-2.9827,-2.9994,-2.9994,-2.9994,0.0,0.0,0.0,0.0,0.0,-2.9994,-3.0062,-3.0107,-2.9982,-2.9889,-2.9564,-2.8504,-2.8184,-2.7862,-2.68,-2.6591,-2.6591,-2.6591,-2.6591,-2.6591,-2.6591,-2.7196,-2.782,-2.8242,-2.8581,-2.8819,-2.8883,-2.8893,-2.892,-2.8975,-2.8984,-2.8984,-2.8984,-2.8984,-2.8984,-2.8925,-2.8636,-2.8268,-2.796,-2.759,-2.7358,-2.7073,-2.7073,-2.7073,-2.7073,-2.7133,-2.7185,-2.7185,-2.7788,-2.808,-2.808,-2.8746,-2.8984,-2.8984,-2.8984,-2.8984,-2.8984,-2.8984,-2.8984,-2.8984,-2.8984,-2.8984,-2.8984,0.0,0.0,0.0,0.0,0.0,0.0,0.0,0.0,0.0,0.0,0.0,0.0,0.0,0.0,0.0,0.0,0.0,0.0,0.0,0.0,0.0,-3.4775,-3.4775,-3.4884,-3.4969,-3.4969,-3.5126,-3.5368,-3.5223,-3.532,-3.5572,-3.5332,-3.4775,-3.3967,-3.3967,-3.3051,-3.1575,-3.0959,-3.0078,-2.9112,0.0,0.0,0.0,0.0,0.0,0.0,0.0,0.0,0.0,0.0,-2.9879,-2.9994,-2.9994,0.0,0.0,0.0,0.0,0.0,-2.9942,-3.0044,-3.0103,-3.0091,-2.9954,-2.9585,-2.871,-2.838,-2.7992,-2.7114,-2.6903,-2.6839,-2.6628,-2.6765,-2.705,-2.749,-2.7673,-2.7911,-2.8333,-2.8352,-2.8407,-2.8636,-2.8663,-2.8746,-2.8966,-2.8984,-2.8984,-2.8984,-2.8984,-2.8984,-2.8984,-2.8696,-2.8337,-2.802,-2.7642,-2.7349,-2.7073,-2.7073,-2.7073,-2.7073,-2.7073,-2.7073,-2.7133,-2.7539,-2.7831,-2.802,-2.8507,-2.8806,-2.8984,-2.8984,-2.8984,-2.8984,-2.8984,-2.8984,-2.8984,-2.8984,-2.8984,-2.8984,0.0,0.0,0.0,0.0,0.0,0.0,0.0,0.0,0.0,0.0,0.0,0.0,0.0,0.0,0.0,0.0,0.0,0.0,0.0,0.0,-3.4775,-3.4775,-3.4775,-3.4775,-3.4775,-3.4775,-3.4872,-3.5126,-3.4981,-3.4969,-3.5114,-3.486,-3.4054,-3.2851,-3.2851,-3.2235,-3.1154,-3.0287,-2.9765,-2.946,0.0,0.0,0.0,0.0,0.0,0.0,0.0,0.0,0.0,0.0,0.0,0.0,0.0,0.0,0.0,-2.9942,-2.9827,-2.9722,-2.9942,-3.0024,-3.0084,-3.0166,-2.9932,-2.9547,-2.8906,-2.8596,-2.8183,-2.7464,-2.7315,-2.7196,-2.6793,-2.6976,-2.7407,-2.8132,-2.8058,-2.8058,-2.8471,-2.826,-2.8168,-2.8489,-2.8535,-2.8654,-2.8957,-2.8984,-2.8984,-2.8984,-2.8984,-2.8984,-2.8984,-2.8755,-2.8448,-2.802,-2.7771,-2.747,-2.7073,-2.7073,-2.7073,-2.7073,-2.7073,-2.7073,-2.7133,-2.7409,-2.7642,-2.79,-2.8328,-2.8636,-2.8865,-2.8984,-2.8984,-2.8984,-2.8984,-2.8984,-2.8984,-2.8984,-2.8984,-2.8984,0.0,0.0,0.0,0.0,0.0,0.0,0.0,0.0,0.0,0.0,0.0,0.0,0.0,0.0,0.0,0.0,0.0,0.0,0.0,0.0,-3.4775,-3.4775,-3.4775,-3.4775,-3.4775,-3.4775,-3.4823,-3.4835,-3.5078,-3.4665,-3.3747,-3.3449,-3.2739,-3.1728,-3.1728,-3.1062,-3.0026,-2.9922,-2.9313,-2.8398,-2.8344,0.0,0.0,0.0,0.0,0.0,0.0,0.0,0.0,0.0,0.0,0.0,0.0,0.0,-2.9994,-2.9994,-2.9994,-2.9994,-2.9994,-3.0093,-3.0217,-3.0194,-3.0069,-2.9827,-2.9228,-2.8981,-2.8632,-2.7929,-2.7776,-2.76,-2.7205,-2.716,-2.7315,-2.7737,-2.8113,-2.8489,-2.8883,-2.8911,-2.8911,-2.8938,-2.8938,-2.8948,-2.8975,-2.8984,-2.8984,-2.8984,-2.8984,-2.8984,-2.8984,-2.8984,-2.8687,-2.802,-2.796,-2.7668,-2.7133,-2.7073,-2.7073,-2.7073,-2.7073,-2.7073,-2.7133,-2.7409,-2.7513,-2.7581,-2.8208,-2.8517,-2.8576,-2.8865,-2.8984,-2.8984,-2.8984,-2.8984,-2.8984,-2.8984,-2.8984,-2.8984,0.0,0.0,0.0,0.0,0.0,0.0,0.0,0.0,0.0,0.0,0.0,0.0,0.0,0.0,0.0,0.0,0.0,0.0,0.0,0.0,-3.4775,-3.4775,-3.4775,-3.4775,-3.4775,-3.4775,-3.4884,-3.5078,-3.4458,-3.3906,-3.335,-3.325,-3.2235,-3.0587,-3.1982,-3.1216,-2.9006,-3.039,-2.9932,-2.8344,-2.9006,-2.9069,0.0,0.0,0.0,0.0,0.0,0.0,0.0,0.0,-2.9879,-2.9994,-2.9994,-2.9994,-2.9994,-2.9994,-2.9994,-2.9994,-2.9994,-3.0124,-3.0194,-3.0194,-3.0179,-3.0012,-2.955,-2.9438,-2.9145,-2.8353,-2.8159,-2.8031,-2.7675,-2.7756,-2.7985,-2.8132,-2.8498,-2.881,-2.8966,-2.8984,-2.8984,-2.8984,-2.8984,-2.8984,-2.8984,-2.8984,-2.8984,-2.8984,-2.8984,-2.8984,-2.8984,-2.8984,-2.8677,-2.802,-2.802,-2.7728,-2.7133,-2.7073,-2.7073,-2.7073,-2.7073,-2.7073,-2.7073,-2.7185,-2.7349,-2.7521,-2.802,-2.8337,-2.8517,-2.8865,-2.8984,-2.8984,-2.8984,-2.8984,-2.8984,-2.8984,-2.8984,-2.8984,0.0,0.0,0.0,0.0,0.0,0.0,0.0,0.0,0.0,0.0,0.0,0.0,0.0,0.0,0.0,0.0,0.0,0.0,-3.4775,-3.4775,-3.4775,-3.4775,-3.4775,-3.4628,-3.4323,-3.4274,-3.4568,-3.5066,-3.4005,-3.3201,-3.2689,-3.2689,-3.1717,-2.9974,-3.1462,-3.0742,-2.8398,-3.0287,-3.0193,-2.891,-2.9723,-2.9785,0.0,0.0,0.0,0.0,0.0,0.0,0.0,0.0,-2.9837,-2.9994,0.0,-2.9994,-2.9994,-2.9889,-2.9942,-2.9994,-2.9889,-3.0011,-3.0128,-3.0163,-3.0194,-3.0102,-2.9783,-2.9651,-2.946,-2.876,-2.848,-2.8306,-2.8012,-2.8196,-2.8397,-2.8397,-2.8728,-2.8984,-2.8984,-2.8984,-2.8984,-2.8984,-2.8984,-2.8984,-2.8984,-2.8984,-2.8984,-2.8984,-2.8984,-2.8984,-2.8984,-2.8984,-2.8746,-2.8208,-2.808,-2.7719,-2.7246,-2.7133,-2.7073,-2.7073,-2.7073,-2.7073,-2.7073,-2.7073,-2.7185,-2.7409,-2.784,-2.8148,-2.8397,-2.8806,-2.8984,-2.8984,-2.8984,-2.8984,-2.8984,-2.8984,-2.8984,-2.8984,0.0,0.0,0.0,0.0,0.0,0.0,0.0,0.0,0.0,0.0,0.0,0.0,0.0,0.0,0.0,0.0,0.0,0.0,-3.4775,-3.4775,-3.4775,-3.4775,-3.4775,-3.4274,-3.3201,-3.3201,-3.3709,-3.4775,-3.3709,-3.265,-3.1575,-3.1575,-3.1011,-2.9869,-2.9922,-2.9313,-2.8398,-2.946,-2.9922,-2.9922,-3.0287,-3.0567,-3.0681,0.0,0.0,0.0,0.0,0.0,0.0,0.0,-2.9994,0.0,0.0,0.0,-2.9942,-2.9659,-2.9774,-2.9942,-2.9659,-2.9774,-3.0013,-3.0199,-3.0204,-3.0112,-2.9783,-2.96,-2.9382,-2.9055,-2.8673,-2.8397,-2.8397,-2.8397,-2.8397,-2.8397,-2.8728,-2.8984,-2.8984,-2.8984,-2.8984,-2.8984,-2.8984,-2.8984,-2.8984,-2.8984,-2.8984,-2.8984,-2.8984,-2.8984,-2.8984,-2.8984,-2.8865,-2.8517,-2.8148,-2.7831,-2.7521,-2.7246,-2.7073,-2.7073,-2.7073,-2.7073,-2.7073,-2.7073,-2.7073,-2.7133,-2.7728,-2.802,-2.808,-2.8737,-2.8984,-2.8984,-2.8984,-2.8984,-2.8984,-2.8984,-2.8984,-2.8984,0.0,0.0,0.0,0.0,0.0,0.0,0.0,0.0,0.0,0.0,0.0,0.0,0.0,0.0,0.0,0.0,0.0,0.0,-3.4775,-3.4775,-3.447,-3.3709,-3.3659,-3.3151,-3.2083,-3.2083,-3.2588,-3.3659,-3.335,-3.265,-3.1575,-3.1575,-3.0598,-2.8804,-2.9565,-2.9713,-2.9513,-3.0598,-3.065,-2.9974,-3.1103,-3.066,-2.9353,0.0,0.0,0.0,0.0,0.0,0.0,0.0,0.0,0.0,0.0,0.0,-2.9942,-2.9659,-2.9774,-2.9942,-2.9659,-2.9906,-3.0299,-3.0181,-3.0333,-3.0409,-3.0109,-2.9832,-2.9489,-2.9111,-2.8893,-2.8728,-2.8443,-2.8618,-2.8718,-2.8443,-2.8728,-2.8984,-2.8984,-2.8984,-2.8984,-2.8984,-2.8984,-2.8984,-2.8984,-2.8984,-2.8984,-2.8984,-2.8984,-2.8984,-2.8984,-2.8984,-2.8865,-2.8517,-2.8148,-2.7831,-2.7521,-2.7246,-2.7073,-2.7073,-2.7073,-2.7073,-2.7073,-2.7073,-2.7073,-2.7133,-2.7728,-2.802,-2.808,-2.8737,-2.8984,-2.8984,-2.8984,-2.8984,-2.8984,-2.8984,-2.8984,-2.8984,0.0,0.0,0.0,0.0,0.0,0.0,0.0,0.0,0.0,0.0,-3.4775,-3.4775,0.0,0.0,0.0,0.0,0.0,0.0,0.0,0.0,-3.3869,-3.325,-3.2789,-3.2033,-3.0959,-3.0908,-3.1257,-3.1869,-3.1869,-3.1768,-3.1575,-3.1165,-3.0182,-2.9006,-3.0078,-3.038,-3.012,-3.1165,-3.1257,-3.0794,-3.1319,-3.066,-2.9386,0.0,0.0,0.0,0.0,0.0,0.0,0.0,0.0,0.0,0.0,0.0,-2.9617,-2.9448,-2.9617,-2.9815,-2.9725,-3.0002,-3.0328,-3.0364,-3.0508,-3.0482,-3.0151,-2.9833,-2.9493,-2.9107,-2.8984,-2.8911,-2.8673,-2.8819,-2.8902,-2.8663,-2.8828,-2.8984,-2.8984,-2.8984,-2.8984,-2.8984,-2.8984,-2.8984,-2.8984,-2.8984,-2.8984,-2.8984,-2.8984,-2.8984,-2.8984,-2.8984,-2.8925,-2.8696,-2.8268,-2.7891,-2.7702,-2.7306,-2.7073,-2.7073,-2.7073,-2.7073,-2.7073,-2.7073,-2.7073,-2.7133,-2.7728,-2.808,-2.8268,-2.8806,-2.8984,-2.8984,-2.8984,-2.8984,-2.8984,-2.8984,-2.8984,-2.8984,0.0,0.0,0.0,0.0,0.0,0.0,0.0,0.0,0.0,0.0,-3.4775,-3.4775,0.0,0.0,0.0,0.0,0.0,0.0,0.0,0.0,-3.3001,-3.2889,-3.188,-3.0805,-2.9775,-2.9765,-2.9817,-2.9922,-3.0026,-3.0546,-3.1421,-3.0494,-2.9974,-2.9974,-3.1114,-3.1257,-3.0628,-3.1308,-3.1779,-3.188,-3.1135,-3.0567,-3.0203,-2.9754,0.0,0.0,0.0,0.0,0.0,0.0,0.0,0.0,-2.9606,-2.9396,-2.9132,-2.9132,-2.9373,-2.9654,-2.9793,-3.0029,-3.0292,-3.0528,-3.0633,-3.0486,-3.0013,-2.9686,-2.945,-2.9044,-2.8984,-2.8984,-2.8984,-2.8984,-2.8984,-2.8984,-2.8984,-2.8984,-2.8984,-2.8984,-2.8984,-2.8984,-2.8984,-2.8984,-2.8984,-2.8984,-2.8984,-2.8984,-2.8984,-2.8984,-2.8984,-2.8984,-2.8984,-2.8984,-2.8319,-2.802,-2.802,-2.7427,-2.7073,-2.7073,-2.7073,-2.7073,-2.7073,-2.7073,-2.7133,-2.7194,-2.7779,-2.814,-2.8397,-2.8806,-2.8925,-2.8797,-2.8925,-2.8984,-2.8984,-2.8984,-2.8984,-2.8984,0.0,0.0,0.0,0.0,0.0,0.0,0.0,0.0,0.0,0.0,0.0,0.0,0.0,0.0,0.0,0.0,0.0,0.0,0.0,0.0,-3.1513,-3.0639,-2.9565,-2.891,-2.8654,-2.8644,-2.9059,-2.9922,-3.0805,-3.0908,-3.0287,-3.0959,-3.0753,-2.9974,-3.1308,-3.2174,-3.2538,-3.2123,-3.183,-3.1626,-3.1032,-3.012,-2.9089,-2.9448,-2.9448,0.0,0.0,0.0,0.0,0.0,0.0,0.0,-2.9606,-2.9554,-2.9501,-2.9501,-2.9766,-3.0018,-2.983,-3.0143,-3.0545,-3.0564,-3.0708,-3.0645,-3.002,-2.9863,-2.9686,-2.9103,-2.8984,-2.8984,-2.8984,-2.8984,-2.8984,-2.8984,-2.8984,-2.8984,-2.8984,-2.8984,-2.8984,-2.8984,-2.8984,-2.8984,-2.8984,-2.8984,-2.8984,-2.8984,-2.8984,-2.8984,-2.8984,-2.8984,-2.8984,-2.8984,-2.8319,-2.802,-2.802,-2.7427,-2.7073,-2.7073,-2.7073,-2.7073,-2.7073,-2.7073,-2.7375,-2.7779,-2.796,-2.7762,-2.7392,-2.8549,-2.837,-2.7504,-2.8609,-2.8984,-2.8984,-2.8984,-2.8984,-2.8984,0.0,0.0,0.0,0.0,0.0,0.0,0.0,0.0,0.0,0.0,0.0,0.0,0.0,0.0,0.0,0.0,0.0,0.0,0.0,0.0,0.0,-2.9154,-2.8601,-2.8291,-2.8291,-2.8291,-2.8804,-2.9922,-2.9984,-3.0245,-3.0691,-3.0753,-3.0753,-3.0753,-3.2022,-3.2588,-3.2588,-3.2022,-3.1513,-3.0897,-3.0109,-2.929,-2.8568,-2.8983,-2.9036,-2.893,-2.9237,0.0,0.0,0.0,0.0,0.0,0.0,0.0,-2.9396,-2.9554,-2.9727,-2.996,-3.0051,-3.0274,-3.0565,-3.0717,-3.0829,-3.0772,-3.0274,-3.0039,-2.9745,-2.9331,-2.9094,-2.8984,-2.8984,-2.8984,-2.8984,-2.8984,-2.8984,-2.8984,-2.8984,-2.9163,-2.9153,-2.9044,-2.9153,-2.9153,-2.9044,-2.8984,-2.8984,-2.8984,-2.8984,-2.8984,-2.8984,-2.8984,-2.8984,-2.8984,-2.8319,-2.802,-2.802,-2.7427,-2.7073,-2.7073,-2.7073,-2.7073,-2.7073,-2.7073,-2.7246,-2.7608,-2.784,-2.7461,-2.6727,-2.831,-2.8182,-2.7142,-2.8489,-2.8984,-2.8984,-2.8984,-2.8984,-2.8984,0.0,0.0,0.0,0.0,0.0,0.0,0.0,0.0,0.0,0.0,0.0,0.0,0.0,0.0,0.0,0.0,0.0,0.0,0.0,0.0,0.0,0.0,-2.8291,-2.8291,-2.8291,-2.8291,-2.8804,-2.9922,-2.9006,-2.9733,-3.183,-3.0742,-3.0805,-3.1931,-3.2851,-3.2889,-3.2174,-3.1615,-3.0949,-3.012,-2.9132,-2.8514,-2.8344,-2.8621,-2.8684,-2.8727,-2.8973,-2.9132,-2.9237,0.0,0.0,0.0,0.0,0.0,-2.9237,-2.9501,-2.9668,-2.9776,-3.0192,-3.0339,-3.0426,-3.0799,-3.0889,-3.083,-3.045,-3.0157,-2.9804,-2.9568,-2.9213,-2.8984,-2.8984,-2.8984,-2.8984,-2.8984,-2.8984,-2.8984,-2.8984,-2.9272,-2.939,-2.9103,-2.9331,-2.939,-2.9094,-2.9044,-2.8984,-2.8984,-2.8984,-2.8984,-2.8984,-2.8984,-2.8984,-2.8984,-2.8319,-2.802,-2.802,-2.7427,-2.7073,-2.7073,-2.7073,-2.7073,-2.7073,-2.7073,-2.7133,-2.7185,-2.7779,-2.7168,-2.6006,-2.7891,-2.7753,-2.6459,-2.8062,-2.8677,-2.8677,-2.8916,-2.8984,-2.8984,0.0,0.0,0.0,0.0,0.0,0.0,0.0,0.0,0.0,0.0,-3.4775,-3.4775,0.0,0.0,0.0,0.0,0.0,0.0,0.0,0.0,0.0,-2.8291,-2.8291,-2.8291,-2.8291,-2.8291,-2.8804,-2.9922,-2.9775,-3.0794,-3.2951,-3.188,-3.1931,-3.3001,-3.34,-3.335,-3.2939,-3.1195,-3.0276,-2.9869,-2.9036,-2.8514,-2.8344,-2.8621,-2.8684,-2.8727,-2.8973,-2.929,-2.9554,-2.9606,-2.9606,0.0,0.0,0.0,-2.9554,-2.9606,-2.9839,-3.0069,-2.991,-3.0052,-3.0348,-3.082,-3.0889,-3.083,-3.045,-3.0157,-2.9804,-2.9568,-2.9213,-2.8984,-2.8984,-2.8984,-2.8984,-2.8984,-2.8984,-2.8984,-2.8984,-2.9272,-2.9499,-2.945,-2.945,-2.9499,-2.945,-2.9153,-2.8984,-2.8984,-2.8984,-2.8984,-2.8984,-2.8984,-2.8984,-2.8984,-2.8319,-2.802,-2.802,-2.7427,-2.7073,-2.7073,-2.7073,-2.7073,-2.7073,-2.7073,-2.7246,-2.7461,-2.7831,-2.6788,-2.4941,-2.6598,-2.5843,-2.3876,-2.6338,-2.7263,-2.7383,-2.8549,-2.8984,-2.8984,0.0,0.0,0.0,0.0,0.0,0.0,0.0,0.0,0.0,0.0,0.0,-3.3918,0.0,0.0,0.0,0.0,0.0,0.0,0.0,0.0,0.0,-2.8291,-2.8291,-2.8291,-2.8291,-2.891,-2.9723,-3.0845,-3.0845,-3.1971,-3.4066,-3.3001,-3.3051,-3.4066,-3.3598,-3.3001,-3.2185,-3.0691,-2.967,-2.8953,-2.8611,-2.8447,-2.8416,-2.8613,-2.8555,-2.8342,-2.8734,-2.8644,-2.8441,-2.8761,-2.8973,-2.9122,-2.9079,0.0,0.0,0.0,-2.9928,-3.0089,-3.0136,-3.0296,-3.0484,-3.083,-3.0889,-3.083,-3.0704,-3.0392,-3.0098,-2.9804,-2.9509,-2.9213,-2.9044,-2.8984,-2.8984,-2.8984,-2.8984,-2.8984,-2.8984,-2.9272,-2.9499,-2.9499,-2.9499,-2.9499,-2.9499,-2.9213,-2.8984,-2.8984,-2.8984,-2.8984,-2.8984,-2.8984,-2.8984,-2.8984,-2.8319,-2.802,-2.802,-2.7427,-2.7073,-2.7073,-2.7073,-2.7073,-2.7073,-2.7073,-2.7246,-2.7461,-2.7108,-2.6059,-2.4695,-2.5546,-2.4802,-2.3387,-2.5973,-2.7013,-2.7142,-2.8489,-2.8984,-2.8984,0.0,0.0,0.0,0.0,0.0,0.0,0.0,0.0,0.0,0.0,0.0,0.0,0.0,0.0,0.0,0.0,0.0,0.0,0.0,0.0,0.0,-2.8291,-2.8291,-2.8291,-2.8291,-2.9059,-3.0193,-3.1575,-3.1575,-3.27,-3.4775,-3.3967,-3.3869,-3.4372,-3.325,-3.2185,-3.1114,-2.9984,-2.9006,-2.8301,-2.8364,-2.8391,-2.8478,-2.853,-2.8381,-2.8155,-2.8428,-2.8111,-2.7701,-2.813,-2.8441,-2.8644,-2.8761,-2.9237,0.0,0.0,0.0,-2.9949,-3.0241,-3.0364,-3.0472,-3.0749,-3.0829,-3.0868,-3.0869,-3.0635,-3.0333,-2.9981,-2.9686,-2.939,-2.9035,-2.8984,-2.8984,-2.8984,-2.8984,-2.8984,-2.8984,-2.9272,-2.9499,-2.9499,-2.9499,-2.9499,-2.9499,-2.9213,-2.8984,-2.8984,-2.8984,-2.8984,-2.8984,-2.8984,-2.8984,-2.8984,-2.8439,-2.8148,-2.8148,-2.7487,-2.7194,-2.7073,-2.7073,-2.7073,-2.7073,-2.7073,-2.7125,-2.7099,-2.6371,-2.5509,-2.4571,-2.4564,-2.376,-2.2834,-2.5109,-2.6216,-2.665,-2.8002,-2.8737,-2.8984,0.0,0.0,0.0,0.0,0.0,0.0,0.0,0.0,0.0,0.0,0.0,0.0,-3.1677,-3.0598,-2.9922,-2.9922,0.0,0.0,0.0,0.0,0.0,-2.8291,-2.8291,0.0,-2.8291,-2.8344,-2.9428,-3.1575,-3.1575,-3.27,-3.4775,-3.4726,-3.4213,-3.325,-3.2185,-3.1062,-2.9922,-2.8857,-2.8344,-2.833,-2.8423,-2.8487,-2.8452,-2.8129,-2.8203,-2.8449,-2.8061,-2.8067,-2.8237,-2.8291,-2.8291,-2.8291,-2.8014,-2.8495,-2.9079,0.0,0.0,0.0,-3.0092,-3.0029,-2.9968,-3.0492,-3.0643,-3.0648,-3.0849,-3.0635,-3.0333,-2.9981,-2.9686,-2.939,-2.9035,-2.8984,-2.8984,-2.8984,-2.8984,-2.8984,-2.8984,-2.9272,-2.9499,-2.9499,-2.9499,-2.9499,-2.9499,-2.9213,-2.8984,-2.8984,-2.8984,-2.8984,-2.8984,-2.8984,-2.8984,-2.8984,-2.8636,-2.8457,-2.8457,-2.7831,-2.7349,-2.7073,-2.7073,-2.7073,-2.7073,-2.7073,-2.6761,-2.6189,-2.6136,-2.5509,-2.451,-2.3574,-2.2396,-2.1355,-2.2772,-2.4062,-2.524,-2.6589,-2.7933,-2.8984,0.0,0.0,0.0,0.0,0.0,0.0,0.0,0.0,0.0,0.0,0.0,0.0,0.0,-2.9513,-2.8857,-2.8857,-2.8495,0.0,0.0,0.0,0.0,-2.8291,-2.8291,-2.8291,-2.8291,-2.8953,-3.0078,-3.1575,-3.2286,-3.335,-3.4775,-3.4775,-3.3869,-3.2134,-3.1779,-3.0959,-2.9817,-2.8325,-2.7701,-2.7739,-2.7876,-2.7986,-2.8089,-2.8271,-2.8397,-2.8379,-2.8066,-2.782,-2.7619,-2.7619,-2.7649,-2.7701,-2.7593,-2.8014,-2.8558,-2.8441,-2.8814,-2.9338,-2.9587,-2.987,-3.012,-3.0374,-3.0565,-3.0596,-3.0697,-3.0732,-3.0577,-2.9981,-2.9804,-2.9627,-2.9103,-2.8984,-2.8984,-2.8984,-2.9153,-2.9331,-2.9331,-2.9568,-2.9745,-2.9745,-2.9627,-2.9499,-2.9499,-2.9213,-2.8984,-2.8984,-2.8984,-2.8984,-2.8984,-2.8984,-2.8984,-2.8984,-2.8696,-2.8397,-2.8208,-2.7711,-2.7461,-2.7349,-2.7185,-2.7073,-2.7073,-2.6197,-2.5945,-2.6006,-2.4278,-2.3589,-2.3512,-2.2341,-2.1538,-2.1292,-2.345,-2.4625,-2.524,-2.7444,-2.8618,-2.8984,0.0,0.0,0.0,0.0,0.0,0.0,0.0,0.0,0.0,-3.0557,0.0,0.0,0.0,0.0,-2.8291,-2.8291,-2.8291,-2.8291,-2.8291,-2.8291,-2.8291,-2.8291,-2.8291,-2.8291,-2.8291,-2.9146,-3.0024,-3.1011,-3.1881,-3.301,-3.4274,-3.3906,-3.2951,-3.1575,-3.1216,-3.039,-2.926,-2.795,-2.7377,-2.7425,-2.7586,-2.7743,-2.7794,-2.8033,-2.8163,-2.8152,-2.7735,-2.7382,-2.7196,-2.7334,-2.7475,-2.7491,-2.736,-2.7653,-2.8023,-2.8237,-2.8558,-2.8883,-2.9192,-2.9433,-2.9695,-3.0182,-3.0117,-3.0023,-3.0374,-3.0382,-3.0228,-2.9835,-2.9745,-2.9627,-2.9103,-2.8984,-2.8984,-2.8984,-2.9213,-2.939,-2.9499,-2.9627,-2.9804,-2.9872,-2.9686,-2.9499,-2.9499,-2.9213,-2.8984,-2.8984,-2.8984,-2.8984,-2.8984,-2.8984,-2.8984,-2.8984,-2.8746,-2.8507,-2.8148,-2.7831,-2.7581,-2.7521,-2.7246,-2.7073,-2.7073,-2.5823,-2.5325,-2.5325,-2.3161,-2.2598,-2.3014,-2.1664,-2.1109,-2.1292,-2.3021,-2.4255,-2.524,-2.7013,-2.8241,-2.8984,0.0,0.0,0.0,0.0,0.0,0.0,0.0,0.0,-2.946,-2.8451,0.0,0.0,0.0,0.0,0.0,-2.8291,-2.8291,-2.8291,-2.8291,-2.8291,-2.8291,-2.8291,0.0,0.0,0.0,-2.8691,-2.9212,-2.9974,-3.0377,-3.1503,-3.3201,-3.2134,-3.1626,-3.1524,-3.0442,-2.9313,-2.8237,-2.7647,-2.7377,-2.7389,-2.7669,-2.7765,-2.7765,-2.745,-2.7516,-2.7746,-2.6997,-2.6973,-2.727,-2.7711,-2.7822,-2.7739,-2.7288,-2.727,-2.7485,-2.8077,-2.8237,-2.8398,0.0,0.0,0.0,-2.9847,-2.9298,-2.88,-2.9886,-2.9728,-2.9324,-2.9456,-2.949,-2.9372,-2.9035,-2.8984,-2.8984,-2.8984,-2.8984,-2.9153,-2.944,-2.9499,-2.9627,-2.9863,-2.9686,-2.9509,-2.9499,-2.9213,-2.8984,-2.8984,-2.8984,-2.8984,-2.8984,-2.8984,-2.8984,-2.8984,-2.8984,-2.8865,-2.8526,-2.8148,-2.7831,-2.7521,-2.7246,-2.7073,-2.7012,-2.6006,-2.501,-2.4008,-2.2973,-2.2724,-2.2952,-2.1664,-2.1109,-2.1109,-2.1172,-2.2716,-2.4994,-2.5056,-2.671,-2.8984,0.0,0.0,0.0,0.0,0.0,0.0,-2.9974,-2.926,-2.8654,0.0,0.0,0.0,-2.7647,-2.7647,-2.7809,-2.8237,-2.8291,-2.8291,-2.8291,-2.8291,-2.8291,-2.8291,-2.8291,-2.8291,-2.8291,-2.8408,-2.9338,-3.1114,-3.0412,0.0,0.0,0.0,-3.2336,-3.1575,-3.0835,-2.944,-2.7593,-2.7043,-2.6554,-2.6245,-2.6879,-2.7145,-2.7229,-2.7873,-2.8339,-2.859,-2.8138,-2.8001,-2.8077,-2.8187,-2.7829,-2.727,-2.6875,-2.6783,-2.6854,-2.7017,-2.7333,-2.7701,-2.7853,0.0,0.0,0.0,0.0,0.0,-2.8887,-2.8896,-2.8899,-2.8967,-2.8993,-2.8969,-2.8989,-2.8984,-2.8984,-2.8984,-2.9213,-2.945,-2.9745,-2.9981,-3.0206,-3.0274,-2.9981,-2.9686,-2.9499,-2.9213,-2.8984,-2.8984,-2.8984,-2.8984,-2.8984,-2.8984,-2.8984,-2.8984,-2.8984,-2.8984,-2.8865,-2.8259,-2.796,-2.7831,-2.7366,-2.6571,-2.5631,-2.4633,-2.3581,-2.2598,-2.1607,-2.1355,-2.1601,-2.1229,-2.1109,-2.1172,-2.2153,-2.3574,-2.5117,-2.6095,-2.7504,-2.8984,0.0,0.0,0.0,0.0,0.0,0.0,-2.889,-2.8325,-2.7862,0.0,0.0,0.0,-2.7043,-2.7269,-2.7539,-2.7916,-2.813,-2.8291,-2.8291,-2.8291,-2.8291,-2.8291,-2.8291,-2.8291,-2.8291,-2.8467,-2.909,0.0,0.0,0.0,0.0,0.0,-3.1051,-3.0856,-2.9797,-2.8499,-2.7043,-2.6436,-2.6008,-2.575,-2.6605,-2.6916,-2.696,-2.7875,-2.8418,-2.8709,-2.8354,-2.8272,-2.8425,-2.859,-2.8095,-2.7436,-2.715,-2.6857,-2.6591,-2.6591,-2.68,-2.7116,-2.7323,-2.7485,-2.7711,-2.8184,0.0,0.0,-2.843,-2.8426,-2.8444,-2.879,-2.8852,-2.8926,-2.8998,-2.8984,-2.8984,-2.8984,-2.9153,-2.939,-2.9686,-2.9981,-3.0216,-3.0216,-3.0039,-2.9804,-2.9509,-2.9213,-2.8984,-2.8984,-2.8984,-2.8984,-2.8984,-2.8984,-2.8984,-2.8984,-2.8984,-2.8984,-2.8984,-2.8448,-2.814,-2.796,-2.6918,-2.5937,-2.5071,-2.3643,-2.2661,-2.2048,-2.1172,-2.0919,-2.1109,-2.1109,-2.1109,-2.1229,-2.2584,-2.3876,-2.5178,-2.6529,-2.7873,-2.8984,0.0,0.0,0.0,0.0,0.0,-2.8023,-2.7422,-2.7314,-2.7152,0.0,-2.6545,-2.65,-2.65,-2.6935,-2.726,-2.7323,-2.7799,-2.813,-2.8237,-2.8184,-2.8184,-2.8344,-2.8291,-2.8291,-2.8291,-2.8662,-2.8716,0.0,0.0,0.0,0.0,0.0,-2.8953,-2.9765,0.0,-2.7142,-2.6436,-2.5844,-2.5659,-2.5812,-2.6565,-2.6916,-2.696,-2.7746,-2.8219,-2.8403,-2.8151,-2.821,-2.8507,-2.881,-2.8434,-2.7877,-2.7785,-2.7242,-2.6701,-2.6619,-2.6619,-2.6746,-2.718,-2.6954,-2.68,-2.7862,-2.7279,0.0,-2.8071,-2.7957,-2.7856,-2.8627,-2.8783,-2.8792,-2.8838,-2.8847,-2.8847,-2.8847,-2.8883,-2.9048,-2.944,-2.9745,-2.9922,-2.9922,-2.9922,-2.9804,-2.9509,-2.9213,-2.8984,-2.8984,-2.8984,-2.8984,-2.8984,-2.8984,-2.8984,-2.8984,-2.8984,-2.8984,-2.8984,-2.8696,-2.8337,-2.796,-2.633,-2.5285,-2.4879,-2.2973,-2.2048,-2.1922,-2.1355,-2.1109,-2.1109,-2.1109,-2.1109,-2.1235,-2.2396,-2.376,-2.5117,-2.6346,-2.7693,-2.8984,0.0,0.0,0.0,0.0,0.0,0.0,-2.6826,-2.6763,-2.6708,-2.66,-2.6172,-2.5898,-2.5898,-2.5962,-2.6227,-2.6718,-2.6871,-2.7196,-2.7833,-2.7466,-2.7647,-2.8568,-2.8184,-2.8067,-2.8291,-2.8369,-2.8777,-2.9565,0.0,0.0,0.0,0.0,-2.946,-2.924,-2.8426,-2.7267,-2.5844,-2.5255,-2.5327,-2.5939,-2.6615,-2.6916,-2.7053,-2.8287,-2.8806,-2.8865,-2.8806,-2.8806,-2.8838,-2.859,-2.8397,-2.8159,-2.7499,-2.7454,-2.7416,-2.6774,-2.6811,-2.705,-2.6838,-2.6464,-2.63,-2.6791,-2.6409,0.0,-2.6829,-2.6692,-2.6654,-2.7369,-2.7526,-2.7627,-2.7939,-2.8003,-2.8003,-2.8003,-2.8287,-2.8735,-2.9403,-2.9745,-2.9922,-2.9922,-2.9922,-2.9804,-2.9509,-2.9213,-2.8984,-2.8984,-2.8984,-2.8984,-2.8984,-2.8984,-2.8984,-2.8984,-2.8984,-2.8984,-2.8984,-2.8696,-2.8337,-2.796,-2.633,-2.4909,-2.3822,-2.2661,-2.167,-2.0919,-2.1046,-2.1109,-2.1109,-2.1109,-2.1109,-2.1109,-2.1418,-2.2959,-2.5056,-2.5301,-2.6892,-2.8984,-2.8827,-2.8625,0.0,0.0,0.0,0.0,-2.6227,-2.6172,-2.6063,-2.5743,-2.5412,-2.5255,-2.5255,-2.5523,-2.5844,-2.6118,-2.6445,-2.6763,-2.7187,-2.6926,-2.7043,-2.7638,-2.7638,-2.7691,-2.7862,-2.8698,-2.9365,-2.9922,0.0,0.0,0.0,0.0,-2.9303,-2.8208,-2.7644,-2.6789,-2.5688,-2.5034,-2.5212,-2.5987,-2.665,-2.7089,-2.7504,-2.8578,-2.8984,-2.8984,-2.8984,-2.8984,-2.8948,-2.8755,-2.8416,-2.8049,-2.7847,-2.7636,-2.7398,-2.7004,-2.7022,-2.7086,-2.6692,-2.6473,-2.6409,-2.6537,-2.6364,0.0,0.0,-2.6765,-2.6819,-2.7389,-2.7359,-2.7366,-2.7728,-2.7537,-2.7374,-2.7546,-2.7882,-2.8204,-2.8379,-2.913,-2.9627,-2.9459,-2.9627,-2.9568,-2.9272,-2.9103,-2.8984,-2.8984,-2.8984,-2.8984,-2.8984,-2.8984,-2.8984,-2.8984,-2.8984,-2.8984,-2.8984,-2.8806,-2.8507,-2.796,-2.5766,-2.4348,-2.3512,-2.1846,-2.0919,-2.0609,-2.0919,-2.1109,-2.1109,-2.1109,-2.1475,-2.2153,-2.2779,-2.3822,-2.5178,-2.652,-2.7873,-2.8984,-2.7314,-2.7269,-2.7043,0.0,0.0,0.0,0.0,-2.5569,-2.5412,-2.4923,-2.4868,-2.4868,-2.4821,-2.5372,-2.5748,-2.5748,-2.6307,-2.6692,-2.6664,-2.661,-2.6573,-2.6663,-2.6989,-2.7161,-2.726,-2.8678,-2.9513,-2.9765,0.0,0.0,0.0,0.0,-2.8986,-2.752,-2.6901,-2.619,-2.5523,-2.5176,-2.5427,-2.6149,-2.6677,-2.732,-2.8007,-2.871,-2.8984,-2.8984,-2.8984,-2.8984,-2.8975,-2.8893,-2.8434,-2.7978,-2.8104,-2.782,-2.737,-2.7132,-2.7169,-2.7187,-2.6719,-2.6527,-2.6527,-2.6591,-2.6527,-2.6555,0.0,0.0,0.0,-2.7471,-2.7375,-2.7262,-2.7545,-2.7148,-2.6807,-2.7035,-2.7359,-2.7503,-2.7131,-2.822,-2.8923,-2.8805,-2.917,-2.9353,-2.8933,-2.8806,-2.8833,-2.8975,-2.8852,-2.8842,-2.8975,-2.8984,-2.8984,-2.8984,-2.8984,-2.8984,-2.8984,-2.8984,-2.8558,-2.7702,-2.5269,-2.3854,-2.3333,-2.1166,-2.0361,-2.0736,-2.0982,-2.1109,-2.1109,-2.1355,-2.209,-2.3201,-2.4247,-2.4933,-2.5668,-2.7813,-2.8797,-2.8984,-2.6708,-2.6708,-2.65,-2.5898,0.0,0.0,0.0,0.0,-2.5221,-2.5174,-2.5165,-2.5072,-2.4821,-2.5457,-2.5882,-2.5882,-2.6473,-2.6915,-2.7058,-2.6585,-2.6534,-2.6954,-2.65,-2.64,-2.6654,-2.7359,-2.8155,-2.9187,0.0,0.0,0.0,0.0,-2.8807,-2.8053,-2.7114,-2.6007,-2.4949,-2.5518,-2.6167,-2.6796,-2.684,-2.732,-2.8007,-2.871,-2.8984,-2.8984,-2.8984,-2.8984,-2.8929,-2.8581,-2.8397,-2.8205,-2.7526,-2.7746,-2.804,-2.6967,-2.715,-2.7592,-2.6793,-2.6364,-2.6245,-2.6527,-2.619,-2.5971,-2.6537,0.0,-2.6318,-2.6655,0.0,-2.6674,-2.6719,0.0,0.0,-2.6207,-2.6363,-2.6483,-2.6439,-2.6879,-2.7395,-2.7902,-2.8886,-2.9251,-2.8557,-2.821,-2.8296,-2.8957,-2.841,-2.8305,-2.8966,-2.8984,-2.8984,-2.8984,-2.8984,-2.8984,-2.8984,-2.8984,-2.8241,-2.6641,-2.5146,-2.3869,-2.2668,-2.1235,-2.0736,-2.1046,-2.1109,-2.1109,-2.1172,-2.2396,-2.2952,-2.3131,-2.3256,-2.474,-2.6831,-2.7142,-2.8002,-2.8984,-2.6118,-2.6063,-2.5898,-2.5302,0.0,0.0,0.0,0.0,-2.5221,-2.5221,-2.5072,-2.4923,-2.4821,-2.5078,-2.5427,-2.5878,-2.6158,-2.6346,-2.6403,-2.616,-2.5984,-2.5705,-2.5962,-2.6181,-2.6282,-2.7492,-2.8329,-2.8797,-2.9504,0.0,0.0,0.0,-2.7936,-2.6744,-2.6736,-2.6231,-2.5444,-2.577,-2.6285,-2.6916,-2.6916,-2.732,-2.8007,-2.871,-2.8984,-2.8984,-2.8984,-2.8984,-2.8957,-2.8792,-2.8416,-2.8049,-2.8177,-2.7976,-2.7636,-2.7352,-2.7343,-2.7353,-2.6738,-2.6692,-2.6701,-2.6646,-2.6591,-2.6581,-2.6582,-2.6473,-2.6418,-2.6582,0.0,0.0,0.0,0.0,0.0,0.0,-2.634,-2.6455,-2.6231,-2.6911,-2.7422,-2.7489,-2.7952,-2.8248,-2.8388,-2.8272,-2.8436,-2.8957,-2.8491,-2.8445,-2.8957,-2.8984,-2.8984,-2.8984,-2.8984,-2.8984,-2.8984,-2.8984,-2.8182,-2.6459,-2.5138,-2.3799,-2.2543,-2.1235,-2.0799,-2.1109,-2.1109,-2.1109,-2.1172,-2.1727,-2.2834,-2.4193,-2.4193,-2.5354,-2.7082,-2.7873,-2.8489,-2.8984,-2.5624,-2.5569,-2.5404,-2.4979,-2.5128,0.0,0.0,-2.5395,-2.534,-2.534,-2.5072,-2.4868,-2.4821,-2.5113,-2.5579,-2.614,-2.6531,-2.6615,-2.6289,-2.628,-2.5982,-2.5263,-2.5686,-2.6016,-2.6013,-2.7279,-2.8043,-2.8237,-2.8991,0.0,0.0,0.0,-2.74,-2.6163,-2.6468,-2.632,-2.5905,-2.6123,-2.6549,-2.7191,-2.7191,-2.7535,-2.8133,-2.8769,-2.8984,-2.8984,-2.8984,-2.8984,-2.8966,-2.8856,-2.8425,-2.8022,-2.8498,-2.8132,-2.7545,-2.7776,-2.7646,-2.7398,-2.6774,-2.6903,-2.7077,-2.6573,-2.6747,-2.694,-2.6655,-2.6591,-2.6591,-2.6591,-2.6418,0.0,0.0,0.0,-2.5844,-2.6072,0.0,-2.634,-2.6053,-2.6669,-2.7153,-2.6992,-2.7092,-2.7374,-2.8013,-2.8007,-2.8153,-2.8783,-2.8394,-2.8336,-2.8957,-2.8984,-2.8984,-2.8984,-2.8984,-2.8984,-2.8984,-2.8984,-2.8182,-2.6641,-2.5277,-2.3993,-2.2661,-2.1355,-2.0856,-2.1109,-2.1109,-2.1109,-2.1109,-2.1475,-2.2772,-2.4564,-2.524,-2.6156,-2.7142,-2.8489,-2.8984,-2.8984,-2.5221,-2.5221,-2.5221,-2.5165,-2.5459,-2.5789,-2.6017,-2.5844,-2.5688,-2.5688,-2.5395,-2.5064,-2.4821,-2.6031,-2.6831,-2.684,-2.812,-2.8414,-2.7353,-2.7251,-2.6948,-2.6255,-2.5938,-2.5754,-2.5926,-2.6104,-2.6572,-2.7318,-2.7961,0.0,0.0,0.0,0.0,-2.7239,-2.6607,-2.616,-2.5922,-2.6566,-2.7236,-2.7885,-2.7885,-2.8079,-2.8434,-2.8828,-2.8984,-2.8984,-2.8984,-2.8984,-2.892,-2.8544,-2.8397,-2.8306,-2.7921,-2.8058,-2.8278,-2.7941,-2.804,-2.812,-2.7015,-2.6927,-2.7022,-2.6281,-2.6364,-2.6609,-2.6591,-2.6591,-2.6591,-2.6591,-2.6582,-2.6591,-2.6591,-2.63,-2.6072,-2.6127,-2.5916,0.0,0.0,-2.576,-2.5888,-2.6108,-2.6496,-2.6884,-2.7299,-2.6974,-2.7244,-2.8352,-2.7743,-2.7803,-2.8938,-2.8984,-2.8984,-2.8984,-2.8984,-2.8984,-2.8984,-2.8984,-2.831,-2.6952,-2.5607,-2.4317,-2.3014,-2.1727,-2.1109,-2.1109,-2.1109,-2.1109,-2.1229,-2.2522,-2.3076,-2.338,-2.5973,-2.6952,-2.7142,-2.8489,-2.8984,-2.8984,-2.5569,-2.5679,-2.5734,-2.5569,-2.5789,-2.6072,-2.6364,-2.6017,-2.5887,-2.6303,-2.5957,-2.5782,-2.6158,-2.6593,-2.708,-2.7504,-2.8007,-2.8002,-2.7353,-2.7326,-2.7023,-2.6329,-2.5883,-2.5865,-2.6143,-2.5708,-2.5652,-2.5908,-2.5917,-2.6227,0.0,0.0,0.0,-2.5926,-2.5975,-2.6254,-2.6566,-2.6805,-2.7311,-2.7885,-2.7624,-2.7852,-2.8407,-2.8544,-2.859,-2.8627,-2.8883,-2.8984,-2.8966,-2.8828,-2.8608,-2.8416,-2.8535,-2.8297,-2.8003,-2.8141,-2.8086,-2.7911,-2.7514,-2.7708,-2.7763,-2.6733,-2.6936,-2.7224,-2.6418,-2.6418,-2.6591,-2.6591,-2.6591,-2.6591,-2.6591,-2.6527,-2.6364,-2.6127,-2.619,-2.6136,0.0,-2.5514,-2.5395,-2.5505,-2.6414,-2.7,-2.6902,-2.7198,-2.7612,-2.8042,-2.8028,-2.8308,-2.8957,-2.8984,-2.8984,-2.8984,-2.8984,-2.8984,-2.8984,-2.8984,-2.831,-2.6952,-2.5668,-2.4309,-2.3076,-2.172,-2.1109,-2.1109,-2.1109,-2.1109,-2.1172,-2.1601,-2.2278,-2.3263,-2.4986,-2.6216,-2.7142,-2.8489,-2.8984,-2.8984,-2.5907,-2.6072,-2.619,-2.5907,-2.6072,-2.6354,-2.6582,-2.619,-2.6042,-2.6594,-2.6329,-2.6254,-2.6823,-2.7098,-2.7459,-2.7885,-2.8156,-2.8069,-2.7525,-2.7625,-2.741,-2.6882,-2.6565,-2.6563,-2.6834,-2.6037,-2.5597,-2.5597,-2.5141,-2.5072,0.0,0.0,0.0,-2.5238,-2.5731,-2.6314,-2.6924,-2.6973,-2.7517,-2.8242,-2.7706,-2.7767,-2.8168,-2.8168,-2.8269,-2.8443,-2.8847,-2.8984,-2.8984,-2.8984,-2.881,-2.8645,-2.8902,-2.8618,-2.8251,-2.8526,-2.8407,-2.8168,-2.7906,-2.812,-2.8174,-2.7148,-2.7346,-2.7591,-2.6709,-2.6683,-2.6756,-2.6619,-2.6591,-2.6591,-2.6591,-2.6591,-2.6473,-2.6127,-2.63,-2.6245,0.0,-2.5505,-2.5395,-2.5395,-2.6067,-2.6504,-2.6574,-2.6868,-2.7223,-2.766,-2.7879,-2.8168,-2.8569,-2.8842,-2.8984,-2.8984,-2.8984,-2.8984,-2.8984,-2.8984,-2.8558,-2.7693,-2.5851,-2.4564,-2.369,-2.1908,-2.1109,-2.1109,-2.1109,-2.1109,-2.1109,-2.1109,-2.1601,-2.2522,-2.3822,-2.5109,-2.6529,-2.831,-2.8984,-2.8984,-2.6127,-2.6364,-2.6473,-2.6181,-2.6409,-2.6591,-2.6591,-2.63,-2.6271,-2.6677,-2.6507,-2.6507,-2.6933,-2.7589,-2.793,-2.793,-2.8578,-2.8645,-2.7904,-2.8177,-2.8214,-2.7868,-2.7774,-2.7785,-2.7894,-2.6825,-2.6311,-2.6311,-2.5579,-2.5395,0.0,0.0,0.0,-2.5221,-2.5789,-2.6337,-2.6889,-2.7118,-2.7915,-2.8856,-2.8134,-2.7822,-2.7822,-2.784,-2.804,-2.8443,-2.8847,-2.8984,-2.8984,-2.8984,-2.8984,-2.8984,-2.8984,-2.8984,-2.8984,-2.8984,-2.8984,-2.8833,-2.8156,-2.8173,-2.8266,-2.751,-2.7573,-2.7691,-2.7297,-2.7205,-2.7105,-2.6719,-2.6646,-2.6637,-2.6619,-2.6619,-2.65,-2.6181,-2.6072,-2.5962,-2.5734,-2.5688,-2.5688,-2.5688,-2.534,-2.548,-2.6184,-2.5909,-2.6145,-2.7206,-2.726,-2.7497,-2.7912,-2.8569,-2.8966,-2.8984,-2.8984,-2.8984,-2.8984,-2.8984,-2.8984,-2.8856,-2.6225,-2.4994,-2.481,-2.2278,-2.1109,-2.1109,-2.1109,-2.1109,-2.1109,-2.1109,-2.1172,-2.1355,-2.2647,-2.4,-2.5485,-2.8062,-2.8984,-2.8984,-2.6473,-2.6527,-2.6582,-2.6473,-2.6527,-2.6591,-2.6591,-2.63,-2.6425,-2.7404,-2.7212,-2.7425,-2.8364,-2.8587,-2.871,-2.871,-2.8861,-2.8773,-2.8269,-2.8333,-2.8342,-2.8242,-2.7709,-2.7555,-2.7894,-2.6825,-2.6311,-2.6311,-2.581,-2.5734,-2.6017,0.0,0.0,0.0,-2.545,-2.5675,-2.6149,-2.6415,-2.7155,-2.8116,-2.7904,-2.7822,-2.7858,-2.8113,-2.8297,-2.8443,-2.8847,-2.8984,-2.8984,-2.8984,-2.8984,-2.8984,-2.8984,-2.8984,-2.8984,-2.8984,-2.8984,-2.8966,-2.8797,-2.8769,-2.8669,-2.7917,-2.7991,-2.8065,-2.7434,-2.7448,-2.7638,-2.7537,-2.7462,-2.737,-2.7077,-2.7031,-2.6811,-2.6172,-2.5734,-2.5395,-2.534,-2.5136,-2.5034,-2.5034,-2.4979,-2.5069,-2.5415,-2.5878,-2.6374,-2.6937,-2.7211,-2.7682,-2.8674,-2.8586,-2.8682,-2.8975,-2.8984,-2.8984,-2.8984,-2.8984,-2.8489,-2.7504,-2.579,-2.4502,-2.3504,-2.1846,-2.1109,-2.1109,-2.1109,-2.1109,-2.1109,-2.1109,-2.1664,-2.2709,-2.4008,-2.5912,-2.8062,-2.8737,-2.8984,-2.8984,-2.6591,-2.6591,-2.6591,-2.6591,-2.6738,-2.6848,-2.6848,-2.6528,-2.6692,-2.7664,-2.766,-2.784,-2.8654,-2.8883,-2.8984,-2.8984,-2.8984,-2.8819,-2.8425,-2.8553,-2.8572,-2.8397,-2.8159,-2.8173,-2.8392,-2.7494,-2.6975,-2.6965,-2.6401,-2.6188,-2.63,0.0,0.0,0.0,-2.5679,-2.5845,-2.6299,-2.6921,-2.7434,-2.784,-2.7967,-2.804,0.0,-2.8306,-2.8498,-2.8682,-2.8902,-2.8984,-2.8984,-2.8984,-2.8984,-2.8984,-2.8984,-2.8984,-2.8984,-2.8984,-2.8984,-2.8984,-2.8984,-2.8984,-2.8929,-2.8455,-2.8527,-2.8486,-2.791,-2.7934,-2.7985,-2.7858,-2.7822,-2.7748,-2.7471,-2.7297,-2.6929,-2.608,-2.5505,-2.5174,-2.5017,-2.4923,-2.4821,-2.4821,-2.4821,-2.4868,-2.5017,-2.5383,-2.5895,-2.6565,-2.6772,-2.7188,-2.7928,-2.8257,-2.8498,-2.8718,-2.8728,-2.881,-2.8984,-2.825,-2.7577,-2.6952,-2.5048,-2.3814,-2.3076,-2.172,-2.1109,-2.1109,-2.1109,-2.1109,-2.1172,-2.1727,-2.2404,-2.3256,-2.517,-2.6771,-2.8182,-2.8797,-2.8984,-2.8984,-2.6591,-2.6591,-2.6591,-2.6591,-2.6912,-2.7196,-2.7242,-2.6967,-2.7013,-2.7756,-2.7904,-2.8003,-2.8425,-2.8783,-2.8984,-2.8984,-2.8984,-2.8838,-2.8498,-2.8792,-2.8828,-2.8489,-2.8801,-2.8984,-2.8984,-2.8346,-2.7879,-2.7822,-2.7127,-2.6681,0.0,0.0,0.0,-2.6127,-2.6127,-2.6343,-2.6749,-2.7691,-2.7991,-2.7858,-2.8223,-2.8397,-2.8397,-2.8452,-2.8682,-2.8984,-2.8984,-2.8984,-2.8984,-2.8984,-2.8984,-2.8984,-2.8984,-2.8984,-2.8984,-2.8984,-2.8984,-2.8984,-2.8984,-2.8984,-2.8984,-2.8984,-2.8984,-2.8893,-2.8553,-2.8471,-2.837,-2.8003,-2.7978,-2.7969,-2.7914,-2.7537,-2.6892,-2.5977,-2.5584,-2.5325,-2.5125,-2.5078,-2.5061,-2.4954,-2.4954,0.0,-2.483,-2.4821,-2.519,-2.6172,-2.6211,-2.6415,-2.6848,-2.7776,-2.8361,-2.8471,-2.8471,-2.855,-2.8655,-2.7375,-2.6713,-2.6634,-2.4409,-2.3256,-2.3076,-2.172,-2.1109,-2.1109,-2.1109,-2.1109,-2.1172,-2.2334,-2.3014,-2.3628,-2.6216,-2.7263,-2.7383,-2.8549,-2.8984,-2.8984,-2.6591,-2.6591,-2.6591,-2.6591,-2.6912,-2.7288,-2.7666,-2.7666,-2.7737,-2.8223,-2.8287,-2.8443,-2.8838,-2.8938,-2.8984,-2.8984,-2.8984,-2.8957,-2.8883,-2.8948,-2.8948,-2.8883,-2.8948,-2.8984,-2.8984,-2.8531,-2.8129,-2.7822,-2.7361,-2.6921,0.0,0.0,0.0,-2.6127,-2.6127,-2.6343,-2.6713,-2.6688,-2.7121,-2.7858,-2.8223,-2.8397,-2.8434,-2.8755,-2.892,-2.8984,-2.8984,-2.8984,-2.8984,-2.8984,-2.8984,-2.8984,-2.8984,-2.8984,-2.8984,-2.8984,-2.8984,-2.8984,-2.8984,-2.8984,-2.8984,-2.8984,-2.8984,-2.8966,-2.8893,-2.8883,-2.8856,-2.8783,-2.8773,-2.8673,-2.8342,-2.7673,-2.7039,-2.6614,-2.6484,-2.6441,-2.6496,-2.654,-2.6311,-2.5778,-2.5687,-2.5444,-2.4855,-2.4821,-2.5143,-2.5917,-2.586,-2.637,-2.7642,-2.7803,-2.8187,-2.8856,-2.8883,-2.8264,-2.7042,-2.8009,-2.7346,-2.4996,-2.4798,-2.4124,-2.3076,-2.172,-2.1109,-2.1109,-2.1109,-2.1109,-2.1109,-2.1355,-2.2709,-2.4925,-2.7624,-2.8677,-2.8677,-2.8916,-2.8984,-2.8984,-2.6591,-2.6591,-2.6655,-2.6857,-2.7215,-2.7675,-2.8031,-2.8269,-2.8397,-2.8397,-2.8397,-2.8471,-2.8654,-2.8865,-2.8984,-2.8984,-2.8984,-2.8984,-2.8984,-2.8984,-2.8984,-2.8984,-2.8984,-2.8984,-2.8984,-2.8792,-2.8388,-2.7822,-2.7629,-2.7178,0.0,-2.6591,-2.6527,-2.6364,-2.6573,-2.6699,-2.6731,-2.7212,-2.7682,-2.8132,-2.8535,-2.87,-2.8718,-2.8911,-2.8984,-2.8984,-2.8984,-2.8984,-2.8984,-2.8984,-2.8984,-2.8984,-2.8984,-2.8984,-2.8984,-2.8984,-2.8984,-2.8984,-2.8984,-2.8984,-2.8984,-2.8984,-2.8984,-2.8984,-2.8984,-2.8984,-2.8984,-2.8984,-2.8984,-2.8865,-2.8471,-2.7893,-2.7424,-2.7085,-2.6848,-2.6736,-2.6862,-2.6916,-2.6796,-2.6439,-2.6132,-2.577,-2.541,-2.5146,-2.515,-2.5508,-2.5619,-2.6183,-2.7245,-2.7585,-2.804,-2.8654,-2.8682,-2.8446,-2.7846,-2.77,-2.6662,-2.4809,-2.4301,-2.3325,-2.2034,-2.1418,-2.1109,-2.1109,-2.1109,-2.1109,-2.1172,-2.1846,-2.3698,-2.6164,-2.7444,-2.837,-2.8984,-2.8984,-2.8984,-2.8984,-2.6692,-2.6646,-2.6738,-2.7215,-2.761,-2.7969,-2.8333,-2.8728,-2.8874,-2.8563,-2.8517,-2.8517,-2.8517,-2.8792,-2.8984,-2.8984,-2.8984,-2.8984,-2.8984,-2.8984,-2.8984,-2.8984,-2.8984,-2.8984,-2.8984,-2.8984,-2.8627,-2.7902,-2.7868,-2.7407,-2.671,-2.6628,-2.6637,-2.6729,-2.6976,-2.7093,-2.7124,-2.794,-2.8385,-2.8544,-2.8856,-2.8984,-2.8984,-2.8984,-2.8984,-2.8984,-2.8984,-2.8984,-2.8984,-2.8984,-2.8984,-2.8984,-2.8984,-2.8984,-2.8984,-2.8984,-2.8984,-2.8984,-2.8984,-2.8984,-2.8984,-2.8984,-2.8984,-2.8984,-2.8984,-2.8984,-2.8984,-2.8984,-2.8984,-2.8865,-2.8471,-2.8122,-2.7818,-2.745,-2.7232,-2.7074,-2.7226,-2.7285,-2.7311,-2.7107,-2.6531,-2.6132,-2.6132,-2.5573,-2.5255,-2.5343,-2.5692,-2.6147,-2.67,-2.7421,-2.7957,-2.8379,-2.8397,-2.8381,-2.8355,-2.7417,-2.6244,-2.4883,-2.397,-2.2834,-2.1538,-2.1229,-2.1109,-2.1109,-2.1109,-2.1109,-2.1229,-2.2522,-2.4301,-2.6216,-2.6468,-2.7203,-2.8182,-2.8489,-2.8549,-2.8549,-2.705,-2.6839,-2.682,-2.7638,-2.7794,-2.7969,-2.8333,-2.8728,-2.8975,-2.8938,-2.8929,-2.8929,-2.8929,-2.8966,-2.8984,-2.8984,-2.8984,-2.8984,-2.8984,-2.8984,-2.8984,-2.8984,-2.8984,-2.8984,-2.8984,-2.8984,-2.8764,-2.8333,-2.7957,-2.7545,-2.7114,-2.6756,-2.6784,-2.7123,-2.6872,-2.7289,-2.822,-2.8051,-2.8355,-2.8929,-2.8966,-2.8984,-2.8984,-2.8984,-2.8984,-2.8984,-2.8984,-2.8984,-2.8984,-2.8984,-2.8984,-2.8984,-2.8984,-2.8984,-2.8984,-2.8984,-2.8984,-2.8984,-2.8984,-2.8984,-2.8984,-2.8984,-2.8984,-2.8984,-2.8984,-2.8984,-2.8984,-2.8984,-2.8984,-2.8865,-2.8471,-2.8361,-2.8214,-2.7829,-2.8058,-2.8229,-2.8275,-2.8586,-2.856,-2.7894,-2.7209,-2.6814,-2.6814,-2.5833,-2.5377,-2.5809,-2.6323,-2.6718,-2.6902,-2.7461,-2.7957,-2.8379,-2.8397,-2.775,-2.6284,-2.7907,-2.7363,-2.4655,-2.4783,-2.4131,-2.2889,-2.1664,-2.1109,-2.1109,-2.1109,-2.1109,-2.1229,-2.2522,-2.3263,-2.3566,-2.4748,-2.524,-2.5546,-2.671,-2.7203,-2.7203,-2.7555,-2.7454,-2.7471,-2.804,-2.8141,-2.8278,-2.8682,-2.8883,-2.8984,-2.8984,-2.8984,-2.8984,-2.8984,-2.8984,-2.8984,-2.8984,-2.8984,-2.8984,-2.8984,-2.8984,-2.8984,-2.8984,-2.8984,-2.8984,-2.8984,-2.8984,-2.8792,-2.8397,-2.8024,-2.762,-2.7169,-2.7013,-2.715,-2.7536,-2.7669,-2.7961,-2.8407,-2.8518,-2.871,-2.8984,-2.8984,-2.8984,-2.8984,-2.8984,-2.8984,-2.8984,-2.8984,-2.8984,-2.8984,-2.8984,-2.8984,-2.8984,-2.8984,-2.8984,-2.8984,-2.8984,-2.8984,-2.8984,-2.8984,-2.8984,-2.8984,-2.8984,-2.8984,-2.8984,-2.8984,-2.8984,-2.8984,-2.8984,-2.8984,-2.8938,-2.8773,-2.8553,-2.8416,-2.8489,-2.8443,-2.8471,-2.8718,-2.8883,-2.871,-2.8007,-2.7329,-2.6916,-2.6916,-2.6028,-2.5626,-2.587,-2.6172,-2.6421,-2.6533,-2.7343,-2.7838,-2.8012,-2.8489,-2.7939,-2.6267,-2.7293,-2.6444,-2.3687,-2.3816,-2.3076,-2.1601,-2.1229,-2.1109,-2.1109,-2.1109,-2.1109,-2.1172,-2.1664,-2.2404,-2.3139,-2.3628,-2.4309,-2.5056,-2.5399,-2.5513,-2.5452,-2.793,-2.7904,-2.793,-2.848,-2.8471,-2.8526,-2.892,-2.8984,-2.8984,-2.8984,-2.8984,-2.8984,-2.8984,-2.8984,-2.8984,-2.8984,-2.8984,-2.8984,-2.8984,-2.8984,-2.8984,-2.8984,-2.8984,-2.8984,-2.8984,-2.8984,-2.8847,-2.8563,-2.815,-2.7811,-2.7536,-2.7407,-2.7563,-2.7967,-2.826,-2.8462,-2.859,-2.8865,-2.8984,-2.8984,-2.8984,-2.8984,-2.8984,-2.8984,-2.8984,-2.8984,-2.8984,-2.8984,-2.8984,-2.8984,-2.8984,-2.8984,-2.8984,-2.8984,-2.8984,-2.8984,-2.8984,-2.8984,-2.8984,-2.8984,-2.8984,-2.8984,-2.8984,-2.8984,-2.8984,-2.8984,-2.8984,-2.8984,-2.8984,-2.8984,-2.8984,-2.8755,-2.8618,-2.8783,-2.8673,-2.8627,-2.8783,-2.8911,-2.871,-2.8007,-2.7329,-2.696,-2.7191,-2.6374,-2.6069,-2.6478,-2.6536,-2.654,-2.6471,-2.6909,-2.7287,-2.7395,-2.7532,-2.7071,-2.583,-2.6206,-2.5293,-2.3076,-2.3076,-2.2215,-2.0609,-2.0729,-2.0862,-2.0919,-2.0856,-2.0862,-2.0919,-2.0856,-2.1348,-2.2208,-2.2208,-2.2772,-2.3574,-2.3737,-2.3784,-2.3792,-2.8306,-2.8049,-2.8079,-2.8838,-2.8654,-2.8526,-2.892,-2.8984,-2.8984,-2.8984,-2.8984,-2.8984,-2.8984,-2.8984,-2.8984,-2.8984,-2.8984,-2.8984,-2.8984,-2.8984,-2.8984,-2.8984,-2.8984,-2.8984,-2.8984,-2.8984,-2.8984,-2.8975,-2.8581,-2.8388,-2.837,-2.7957,-2.7985,-2.8388,-2.8397,-2.8608,-2.8975,-2.8984,-2.8984,-2.8984,-2.8984,-2.8984,-2.8984,-2.8984,-2.8984,-2.8984,-2.8984,-2.8984,-2.8984,-2.8984,-2.8984,-2.8984,-2.8984,-2.8984,-2.8984,-2.8984,-2.8984,-2.8984,-2.8984,-2.8984,-2.8984,-2.8984,-2.8984,-2.8984,-2.8984,-2.8984,-2.8984,-2.8984,-2.8984,-2.8984,-2.8984,-2.8975,-2.8847,-2.8462,-2.8728,-2.8847,-2.8452,-2.8737,-2.871,-2.8007,-2.7329,-2.7182,-2.78,-2.6936,-2.6745,-2.7831,-2.7812,-2.7528,-2.6916,-2.6189,-2.5987,-2.6405,-2.5115,-2.4455,-2.4447,-2.4812,-2.4371,-2.3076,-2.3076,-2.2215,-2.0609,-2.0234,-2.0297,-2.0609,-2.0234,-2.0297,-2.0609,-2.0234,-2.0106,-2.017,-2.017,-2.017,-2.0291,-2.165,-2.2139,-2.2139,-2.8764,-2.8691,-2.8673,-2.8938,-2.8883,-2.8838,-2.8966,-2.8984,-2.8984,-2.8984,-2.8984,-2.8984,-2.8984,-2.8984,-2.8984,-2.8984,-2.8984,-2.8984,-2.8984,-2.8984,-2.8984,-2.8984,-2.8984,-2.8984,-2.8984,-2.8984,-2.8984,-2.8984,-2.859,-2.8397,-2.8388,-2.826,-2.8407,-2.8792,-2.8792,-2.8865,-2.8984,-2.8984,-2.8984,-2.8984,-2.8984,-2.8984,-2.8984,-2.8984,-2.8984,-2.8984,-2.8984,-2.8984,-2.8984,-2.8984,-2.8984,-2.8984,-2.8984,-2.8984,-2.8984,-2.8984,-2.8984,-2.8984,-2.8984,-2.8984,-2.8984,-2.8984,-2.8984,-2.8984,-2.8984,-2.8984,-2.8984,-2.8984,-2.8984,-2.8984,-2.8984,-2.8984,-2.8938,-2.8819,-2.8902,-2.8938,-2.881,-2.8487,-2.8007,-2.732,-2.6804,-2.6658,-2.7173,-2.6849,-2.6816,-2.747,-2.6663,-2.6443,-2.7136,-2.7454,-2.7526,-2.7364,-2.7464,-2.6517,-2.4395,-2.4544,-2.3559,-2.1411,-2.1159,-2.0792,-2.0234,-1.9909,-1.9973,-2.0234,-2.017,-2.017,-2.0234,-2.017,-2.0106,-2.0106,-2.0106,-2.0106,-2.0106,-2.0335,-2.0392,-2.0386,-2.8984,-2.8984,-2.8984,-2.8984,-2.8984,-2.8984,-2.8984,-2.8984,-2.8984,-2.8984,-2.8984,-2.8984,-2.8984,-2.8984,-2.8984,-2.8984,-2.8984,-2.8984,-2.8984,-2.8984,-2.8984,-2.8984,-2.8984,-2.8984,-2.8984,-2.8984,-2.8984,-2.8984,-2.8737,-2.8618,-2.8618,-2.8618,-2.8746,-2.8984,-2.8984,-2.8984,-2.8984,-2.8984,-2.8984,-2.8984,-2.8984,-2.8984,-2.8984,-2.8984,-2.8984,-2.8984,-2.8984,-2.8984,-2.8984,-2.8984,-2.8984,-2.8984,-2.8984,-2.8984,-2.8984,-2.8984,-2.8984,-2.8984,-2.8984,-2.8984,-2.8984,-2.8984,-2.8984,-2.8984,-2.8984,-2.8984,-2.8984,-2.8984,-2.8984,-2.8984,-2.8984,-2.8984,-2.8984,-2.8984,-2.8984,-2.8929,-2.8783,-2.8368,-2.7643,-2.6481,-2.6096,-2.5924,-2.5838,-2.5717,-2.5908,-2.642,-2.5687,-2.5595,-2.637,-2.6159,-2.6209,-2.6722,-2.6276,-2.5059,-2.3015,-2.3021,-2.2139,-2.0425,-2.01,-1.9909,-1.9909,-1.9584,-1.9584,-1.9909,-1.9781,-1.9781,-1.9909,-1.9781,-1.9717,-1.9717,-1.9717,-1.9717,-1.9717,-1.952,-1.9392,-1.9392,-2.8984,-2.8984,-2.8984,-2.8984,-2.8984,-2.8984,-2.8984,-2.8984,-2.8984,-2.8984,-2.8984,-2.8984,-2.8984,-2.8984,-2.8984,-2.8984,-2.8984,-2.8984,-2.8984,-2.8984,-2.8984,-2.8984,-2.8984,-2.8984,-2.8984,-2.8984,-2.8984,-2.8984,-2.8984,-2.8984,-2.8984,-2.8984,-2.8984,-2.8984,-2.8984,-2.8984,-2.8984,-2.8984,-2.8984,-2.8984,-2.8984,-2.8984,-2.8984,-2.8984,-2.8984,-2.8984,-2.8984,-2.8984,-2.8984,-2.8984,-2.8984,-2.8984,-2.8984,-2.8984,-2.8984,-2.8984,-2.8984,-2.8984,-2.8984,-2.8984,-2.8984,-2.8984,-2.8984,-2.8984,-2.8984,-2.8984,-2.8984,-2.8984,-2.8984,-2.8984,-2.8984,-2.8916,-2.8856,-2.8856,-2.8778,-2.8564,-2.8201,-2.8128,-2.7374,-2.5519,-2.5244,-2.4908,-2.4063,-2.4034,-2.4295,-2.4931,-2.4893,-2.4893,-2.4955,-2.3021,-2.2795,-2.4909,-2.2591,-2.1102,-2.0729,-2.0666,-2.0482,-2.0043,-1.9711,-1.9577,-1.9577,-1.9264,-1.9264,-1.9577,-1.9264,-1.9264,-1.9514,-1.92,-1.9078,-1.9078,-1.9078,-1.9078,-1.9078,-1.9078,-1.9078,-1.9078,-2.8984,-2.8984,-2.8984,-2.8984,-2.8984,-2.8984,-2.8984,-2.8984,-2.8984,-2.8984,-2.8984,-2.8984,-2.8984,-2.8984,-2.8984,-2.8984,-2.8984,-2.8984,-2.8984,-2.8984,-2.8984,-2.8984,-2.8984,-2.8984,-2.8984,-2.8984,-2.8984,-2.8984,-2.8984,-2.8984,-2.8984,-2.8984,-2.8984,-2.8984,-2.8984,-2.8984,-2.8984,-2.8984,-2.8984,-2.8984,-2.8984,-2.8984,-2.8984,-2.8984,-2.8984,-2.8984,-2.8984,-2.8984,-2.8984,-2.8984,-2.8984,-2.8984,-2.8984,-2.8984,-2.8984,-2.8984,-2.8984,-2.8984,-2.8984,-2.8984,-2.8984,-2.8984,-2.8984,-2.8984,-2.8984,-2.8984,-2.8984,-2.8984,-2.8984,-2.8984,-2.8984,-2.8182,-2.7444,-2.7444,-2.6413,-2.5596,-2.5489,-2.5064,-2.4574,-2.4074,-2.3948,-2.3905,-2.4003,-2.4215,-2.4367,-2.4514,-2.3673,-2.3551,-2.4522,-2.2022,-2.1876,-2.4517,-2.4039,-2.3054,-2.1769,-2.1461,-2.0709,-1.9334,-1.927,-1.92,-1.92,-1.9142,-1.9136,-1.92,-1.9142,-1.9136,-1.92,-1.9142,-1.9078,-1.9078,-1.9078,-1.9078,-1.9078,-1.9078,-1.9078,-1.9078,-2.8984,-2.8984,-2.8984,-2.8984,-2.8984,-2.8984,-2.8984,-2.8984,-2.8984,-2.8984,-2.8984,-2.8984,-2.8984,-2.8984,-2.8984,-2.8984,-2.8984,-2.8984,-2.8984,-2.8984,-2.8984,-2.8984,-2.8984,-2.8984,-2.8984,-2.8984,-2.8984,-2.8984,-2.8984,-2.8984,-2.8984,-2.8984,-2.8984,-2.8984,-2.8984,-2.8984,-2.8984,-2.8984,-2.8984,-2.8984,-2.8984,-2.8984,-2.8984,-2.8984,-2.8984,-2.8984,-2.8984,-2.8984,-2.8984,-2.8984,-2.8984,-2.8984,-2.8984,-2.8984,-2.8984,-2.8984,-2.8984,-2.8984,-2.8984,-2.8984,-2.8984,-2.8984,-2.8984,-2.8938,-2.8755,-2.8718,-2.8654,-2.8462,-2.8425,-2.8299,-2.7705,-2.7031,-2.6372,-2.5837,-2.5009,-2.4404,-2.4337,-2.4,-2.359,-2.3156,-2.3059,-2.2886,-2.2668,-2.2813,-2.2874,-2.2874,-2.2141,-2.1955,-2.2628,-2.1043,-2.1242,-2.3544,-2.2875,-2.2006,-2.0949,-2.0639,-2.0017,-1.9078,-1.9078,-1.9078,-1.9078,-1.9078,-1.9078,-1.9078,-1.9078,-1.9078,-1.9078,-1.9078,-1.9078,-1.9078,-1.9078,-1.9078,-1.9078,-1.9078,-1.9078,-1.9078,-2.8984,-2.8984,-2.8984,-2.8984,-2.8984,-2.8984,-2.8984,-2.8984,-2.8984,-2.8984,-2.8929,-2.8893,-2.8893,-2.8838,-2.8801,-2.8801,-2.8801,-2.8819,-2.8893,-2.8838,-2.8801,-2.8801,-2.8801,-2.8801,-2.8801,-2.8801,-2.8801,-2.8801,-2.8801,-2.8801,-2.8801,-2.8801,-2.8838,-2.8893,-2.8893,-2.8929,-2.8984,-2.8984,-2.8984,-2.8984,-2.8984,-2.8984,-2.8984,-2.8984,-2.8984,-2.8984,-2.8984,-2.8984,-2.8984,-2.8984,-2.8984,-2.8984,-2.8925,-2.8925,-2.8925,-2.8925,-2.8879,-2.8842,-2.8966,-2.8938,-2.8893,-2.8893,-2.8847,-2.8709,-2.8379,-2.8297,-2.8196,-2.7895,-2.7822,-2.747,-2.6469,-2.5941,-2.5335,-2.4279,-2.3755,-2.3431,-2.3321,-2.336,-2.3049,-2.2255,-2.2256,-2.1996,-2.1209,-2.1109,-2.1109,-2.1109,-2.0792,-2.0609,-2.0609,-2.0227,-2.0659,-2.2076,-2.0786,-1.9845,-1.9514,-1.9264,-1.9078,-1.9078,-1.9078,-1.9078,-1.9078,-1.9078,-1.9078,-1.9078,-1.9078,-1.9078,-1.9078,-1.9078,-1.9078,-1.9078,-1.9078,-1.9078,-1.9078,-1.9078,-1.9078,-1.9078,-2.8984,-2.8984,-2.8984,-2.8984,-2.8984,-2.8984,-2.8984,-2.8984,-2.8984,-2.8984,-2.8691,-2.8489,-2.8489,-2.8168,-2.8015,-2.8015,-2.8015,-2.8104,-2.8462,-2.815,-2.8015,-2.8015,-2.8015,-2.8015,-2.8015,-2.8015,-2.8015,-2.8015,-2.8015,-2.8015,-2.8015,-2.8015,-2.8141,-2.8489,-2.8489,-2.8673,-2.8984,-2.8984,-2.8984,-2.8984,-2.8984,-2.8984,-2.8984,-2.8984,-2.8984,-2.8984,-2.8984,-2.8984,-2.8984,-2.8984,-2.8984,-2.8925,-2.8696,-2.8576,-2.8576,-2.8576,-2.8332,-2.8192,-2.8824,-2.8737,-2.8489,-2.8489,-2.8214,-2.7996,-2.7932,-2.7866,-2.7904,-2.784,-2.7822,-2.7765,-2.7585,-2.5758,-2.4196,-2.3783,-2.172,-2.0127,-2.0127,-2.0289,-2.0504,-2.0564,-2.0983,-2.1245,-2.1102,-2.1109,-2.1109,-2.1109,-2.0792,-2.0609,-2.0609,-2.003,-1.9833,-2.0081,-1.9826,-1.9514,-1.92,-1.9142,-1.9078,-1.9078,-1.9078,-1.9078,-1.9078,-1.9078,-1.9078,-1.9078,-1.9078,-1.9078,-1.9078,-1.9078,-1.9078,-1.9078,-1.9078,-1.9078,-1.9078,-1.9078,-1.9078,-1.9078,-2.8984,-2.8984,-2.8984,-2.8984,-2.8984,-2.8911,-2.87,-2.8663,-2.8581,-2.8361,-2.8168,-2.8058,-2.8058,-2.7941,-2.7822,-2.7822,-2.7572,-2.7536,-2.7728,-2.7756,-2.7822,-2.7822,-2.7822,-2.7822,-2.7822,-2.7822,-2.7822,-2.7822,-2.7822,-2.7822,-2.7822,-2.7822,-2.7923,-2.8058,-2.8058,-2.8159,-2.8324,-2.8324,-2.8324,-2.8324,-2.8324,-2.8324,-2.8324,-2.8324,-2.8324,-2.8324,-2.8324,-2.8324,-2.8333,-2.8159,-2.8217,-2.8275,-2.7809,-2.7759,-2.7818,-2.7701,-2.7894,-2.8204,-2.8333,-2.8196,-2.8058,-2.8058,-2.7969,-2.7767,-2.7555,-2.7509,-2.7445,-2.7178,-2.6668,-2.5977,-2.534,-2.373,-2.2191,-2.1238,-2.0141,-1.9424,-1.9424,-1.9619,-1.9907,-2.0194,-2.0615,-2.0813,-2.0625,-2.077,-2.0736,-2.0545,-2.0221,-2.0094,-2.0094,-1.9584,-1.9328,-1.9328,-1.9328,-1.9264,-1.9078,-1.9078,-1.9078,-1.9078,-1.9078,-1.9078,-1.9078,-1.9078,-1.9078,-1.9078,-1.9078,-1.9078,-1.9078,-1.9078,-1.9078,-1.9078,-1.9078,-1.9078,-1.9078,-1.9078,-1.9078,-1.9078,-2.87,-2.87,-2.87,-2.87,-2.87,-2.8599,-2.8297,-2.8251,-2.8132,-2.7868,-2.7739,-2.7684,-2.7684,-2.7601,-2.749,-2.749,-2.7159,-2.6985,-2.704,-2.7259,-2.7433,-2.749,-2.749,-2.749,-2.749,-2.749,-2.749,-2.749,-2.749,-2.749,-2.749,-2.749,-2.7601,-2.7684,-2.7684,-2.7739,-2.7822,-2.7822,-2.7822,-2.7765,-2.7708,-2.7651,-2.7651,-2.7594,-2.7594,-2.7594,-2.7594,-2.7594,-2.7537,-2.7317,-2.7374,-2.7489,-2.6973,-2.6916,-2.703,-2.6858,-2.7298,-2.7876,-2.7658,-2.7587,-2.7561,-2.7561,-2.7554,-2.7416,-2.7105,-2.704,-2.6949,-2.6655,-2.5852,-2.4842,-2.3656,-2.241,-2.1128,-1.9582,-1.9283,-1.9265,-1.9265,-1.9454,-1.9681,-1.9973,-2.0204,-2.0286,-2.0116,-2.0248,-2.0284,-2.01,-1.9775,-1.9577,-1.9577,-1.9264,-1.9078,-1.9078,-1.9078,-1.9078,-1.9078,-1.9078,-1.9078,-1.9078,-1.9078,-1.9078,-1.9078,-1.9078,-1.9078,-1.9078,-1.9078,-1.9078,-1.9078,-1.9078,-1.9078,-1.9078,-1.9078,-1.9078,-1.9078,-1.9078,-1.9078,-1.9078,-2.7914,-2.7914,-2.7914,-2.7914,-2.7914,-2.7904,-2.7877,-2.7868,-2.7858,-2.7822,-2.7509,-2.7215,-2.7215,-2.6894,-2.6674,-2.6674,-2.6363,-2.6281,-2.6628,-2.6372,-2.6381,-2.6674,-2.6674,-2.6674,-2.6674,-2.6674,-2.6674,-2.6674,-2.6674,-2.6674,-2.6674,-2.6674,-2.6875,-2.7215,-2.7215,-2.7426,-2.7822,-2.7822,-2.7822,-2.7765,-2.7489,-2.7326,-2.7317,-2.7039,-2.6973,-2.6973,-2.6973,-2.6973,-2.6973,-2.6916,-2.6924,-2.6916,-2.6561,-2.6437,-2.6437,-2.6437,-2.643,-2.6528,-2.6884,-2.6867,-2.6805,-2.6805,-2.6709,-2.6664,-2.6637,-2.6628,-2.6628,-2.6591,-2.6527,-2.6081,-2.4898,-2.3656,-2.2358,-2.0798,-1.966,-1.8958,-1.8958,-1.8968,-1.9076,-1.9358,-1.941,-1.9504,-1.9704,-1.9749,-1.9877,-2.0087,-1.9775,-1.9577,-1.9577,-1.9264,-1.9078,-1.9078,-1.9078,-1.9078,-1.9078,-1.9078,-1.9078,-1.9078,-1.9078,-1.9078,-1.9078,-1.9078,-1.9078,-1.9078,-1.9078,-1.9078,-1.9078,-1.9078,-1.9078,-1.9078,-1.9078,-1.9078,-1.9078,-1.9078,-1.9078,-1.9078,-2.7822,-2.7822,-2.7822,-2.7822,-2.7822,-2.7739,-2.75,-2.7454,-2.7372,-2.7068,-2.6728,-2.6518,-2.6518,-2.6226,-2.6026,-2.6026,-2.5907,-2.5962,-2.6245,-2.6181,-2.6245,-2.6591,-2.6591,-2.6591,-2.6591,-2.6591,-2.6591,-2.6591,-2.6591,-2.6591,-2.6591,-2.6591,-2.6664,-2.6811,-2.6637,-2.6599,-2.6744,-2.6578,-2.6513,-2.6522,-2.6355,-2.6299,-2.6299,-2.6187,-2.6187,-2.6187,-2.6187,-2.6187,-2.6131,-2.5898,-2.5954,-2.6075,-2.5579,-2.5505,-2.5609,-2.5457,-2.5419,-2.5388,-2.5544,-2.5857,-2.6122,-2.6288,-2.618,-2.6081,-2.6245,-2.6136,-2.5852,-2.5064,-2.4437,-2.3704,-2.25,-2.1445,-2.0509,-1.9688,-1.9357,-1.9074,-1.8654,-1.8756,-1.8862,-1.8737,-1.8947,-1.9041,-1.9074,-1.9256,-1.9412,-1.9507,-1.9328,-1.9264,-1.9264,-1.92,-1.9078,-1.9078,-1.9078,-1.9078,-1.9078,-1.9078,-1.9078,-1.9078,-1.9078,-1.9078,-1.9078,-1.9078,-1.9078,-1.9078,-1.9078,-1.9078,-1.9078,-1.9078,-1.9078,-1.9078,-1.9078,-1.9078,-1.9078,-1.9078,-1.9078,-1.9078,-2.7398,-2.7398,-2.7398,-2.7398,-2.7398,-2.7306,-2.7031,-2.6985,-2.6894,-2.6509,-2.6236,-2.6072,-2.5962,-2.5789,-2.5688,-2.5688,-2.5688,-2.5789,-2.6072,-2.6127,-2.6245,-2.6591,-2.6591,-2.6527,-2.6473,-2.6418,-2.6418,-2.6309,-2.6309,-2.6309,-2.63,-2.6418,-2.6418,-2.6309,-2.619,-2.6072,-2.5962,-2.5798,-2.5688,-2.5679,-2.5569,-2.5569,-2.5514,-2.5467,-2.5412,-2.5412,-2.5412,-2.5412,-2.5357,-2.5128,-2.5238,-2.5366,-2.4932,-2.4923,-2.5017,-2.4868,-2.4821,-2.4821,-2.4821,-2.509,-2.5467,-2.5734,-2.5734,-2.5743,-2.5907,-2.5569,-2.4898,-2.4047,-2.3079,-2.1991,-2.0795,-2.0076,-1.951,-1.8971,-1.8995,-1.8938,-1.8607,-1.8584,-1.8538,-1.8305,-1.8357,-1.8457,-1.8428,-1.8705,-1.8918,-1.8997,-1.903,-1.9078,-1.9078,-1.9078,-1.9078,-1.9078,-1.9078,-1.9078,-1.9078,-1.9078,-1.9078,-1.9078,-1.9078,-1.9078,-1.9078,-1.9078,-1.9078,-1.9078,-1.9078,-1.9078,-1.9078,-1.9078,-1.9078,-1.9078,-1.9078,-1.9078,-1.9078,-1.9078,-1.9078,-1.9078,-2.6591,-2.6591,-2.6591,-2.6591,-2.6591,-2.6591,-2.6591,-2.6591,-2.6473,-2.6127,-2.6127,-2.6017,-2.5743,-2.5679,-2.5679,-2.5688,-2.5688,-2.5789,-2.6072,-2.6127,-2.6245,-2.6591,-2.6582,-2.6418,-2.6127,-2.6127,-2.5962,-2.5688,-2.5688,-2.5688,-2.5688,-2.5962,-2.5962,-2.5734,-2.5962,-2.5962,-2.5688,-2.5679,-2.5679,-2.5688,-2.534,-2.5221,-2.5165,-2.4923,-2.4821,-2.4821,-2.4821,-2.4821,-2.4821,-2.4821,-2.4821,-2.4821,-2.4821,-2.4821,-2.4821,-2.4821,-2.4821,-2.4821,-2.4821,-2.4821,-2.4868,-2.5119,-2.545,-2.5679,-2.5688,-2.4778,-2.388,-2.388,-2.2894,-2.1628,-2.0393,-2.0171,-1.989,-1.9049,-1.8648,-1.8532,-1.8881,-1.8369,-1.7972,-1.7972,-1.7726,-1.7587,-1.7847,-1.8131,-1.8402,-1.8668,-1.8927,-1.9078,-1.9078,-1.9078,-1.9078,-1.9078,-1.9078,-1.9078,-1.9078,-1.9078,-1.9078,-1.9078,-1.9078,-1.9078,-1.9078,-1.9078,-1.9078,-1.9078,-1.9078,-1.9078,-1.9078,-1.9078,-1.9078,-1.9078,-1.9078,-1.9078,-1.9078,-1.9078,-1.9078,-1.9078,-2.6591,-2.6591,-2.6591,-2.6591,-2.6591,-2.6591,-2.6591,-2.6591,-2.6473,-2.6127,-2.5962,-2.5679,-2.5395,-2.5191,-2.5136,-2.534,-2.534,-2.5505,-2.5798,-2.5798,-2.5852,-2.5962,-2.5962,-2.5907,-2.5798,-2.5798,-2.5798,-2.5688,-2.5688,-2.5688,-2.5688,-2.5798,-2.5798,-2.5679,-2.5569,-2.545,-2.534,-2.5136,-2.509,-2.5034,-2.497,-2.4923,-2.4923,-2.4821,-2.4821,-2.4821,-2.4821,-2.4821,-2.4821,-2.4821,-2.4821,-2.4821,-2.4821,-2.4821,-2.4821,-2.4821,-2.4821,-2.4821,-2.4821,-2.4821,-2.4868,-2.5119,-2.5128,-2.5136,-2.5284,-2.427,-2.3023,-2.2104,-2.1137,-2.0063,-1.8874,-1.8816,-1.8874,-1.859,-1.8473,-1.8363,-1.8252,-1.8083,-1.7908,-1.7667,-1.7543,-1.7587,-1.7847,-1.8131,-1.8402,-1.8668,-1.8927,-1.9078,-1.9078,-1.9078,-1.9078,-1.9078,-1.9078,-1.9078,-1.9078,-1.9078,-1.9078,-1.9078,-1.9078,-1.9078,-1.9078,-1.9078,-1.9078,-1.9078,-1.9078,-1.9078,-1.9078,-1.9078,-1.9078,-1.9078,-1.9078,-1.9078,-1.9078,-1.9078,-1.9078,-1.9078,-2.6591,-2.6591,-2.6591,-2.6591,-2.6591,-2.6537,-2.6418,-2.6418,-2.6245,-2.5789,-2.5624,-2.5404,-2.5072,-2.4923,-2.4868,-2.5017,-2.5119,-2.534,-2.5688,-2.5569,-2.5514,-2.5514,-2.5412,-2.5412,-2.5514,-2.5514,-2.5459,-2.5357,-2.5357,-2.5357,-2.5366,-2.5459,-2.5459,-2.5357,-2.5229,-2.5119,-2.5017,-2.4868,-2.4821,-2.4821,-2.4821,-2.4821,-2.4821,-2.4821,-2.4821,-2.4821,-2.4821,-2.4821,-2.4821,-2.4821,-2.4821,-2.4821,-2.4821,-2.4821,-2.4821,-2.4821,-2.4821,-2.4821,-2.4821,-2.4821,-2.4812,-2.5026,-2.4923,-2.4812,-2.5026,-2.3592,-2.2055,-2.1244,-1.994,-1.8693,-1.796,-1.7954,-1.8071,-1.8194,-1.8129,-1.8012,-1.8025,-1.7908,-1.7726,-1.7543,-1.7485,-1.7545,-1.7702,-1.8064,-1.8444,-1.8813,-1.8988,-1.9078,-1.9078,-1.9078,-1.9078,-1.9078,-1.9078,-1.9078,-1.9078,-1.9078,-1.9078,-1.9078,-1.9078,-1.9078,-1.9078,-1.9078,-1.9078,-1.9078,-1.9078,-1.9078,-1.9078,-1.9078,-1.9078,-1.9078,-1.9078,-1.9078,-1.9078,-1.9078,-1.9078,-1.9078,-2.6591,-2.6591,-2.6537,-2.6537,-2.6537,-2.6418,-2.6127,-2.6072,-2.5844,-2.5284,-2.5221,-2.5128,-2.4821,-2.4821,-2.4821,-2.4812,-2.5072,-2.534,-2.5633,-2.534,-2.5174,-2.5174,-2.4915,-2.4915,-2.5174,-2.5174,-2.5017,-2.4821,-2.4821,-2.4821,-2.4821,-2.5072,-2.5017,-2.4821,-2.5072,-2.5017,-2.4821,-2.4821,-2.4821,-2.4821,-2.4821,-2.4821,-2.4821,-2.4821,-2.4821,-2.4821,-2.4821,-2.4821,-2.4821,-2.4821,-2.4821,-2.4821,-2.4821,-2.4821,-2.4821,-2.4821,-2.4821,-2.4821,-2.4821,-2.4821,-2.4821,-2.4821,-2.471,-2.4646,-2.4646,-2.2741,-2.0959,-2.0959,-1.9138,-1.7485,-1.7485,-1.7485,-1.7602,-1.7908,-1.7726,-1.7602,-1.7908,-1.7667,-1.7485,-1.7485,-1.7485,-1.7485,-1.7485,-1.7974,-1.8511,-1.9036,-1.9078,-1.9078,-1.9078,-1.9078,-1.9078,-1.9078,-1.9078,-1.9078,-1.9078,-1.9078,-1.9078,-1.9078,-1.9078,-1.9078,-1.9078,-1.9078,-1.9078,-1.9078,-1.9078,-1.9078,-1.9078,-1.9078,-1.9078,-1.9078,-1.9078,-1.9078,-1.9078,-1.9078,-1.9078,-1.9078,-2.6591,-2.6409,-2.619,-2.619,-2.6017,-2.5852,-2.5798,-2.5798,-2.5624,-2.5221,-2.5221,-2.5128,-2.4821,-2.4821,-2.4868,-2.5064,-2.5174,-2.5221,-2.5284,-2.5026,-2.4868,-2.4868,-2.4821,-2.4821,-2.4868,-2.4868,-2.4868,-2.4821,-2.4821,-2.4821,-2.4821,-2.4868,-2.4868,-2.4821,-2.4868,-2.4868,-2.4821,-2.4821,-2.4821,-2.4821,-2.4821,-2.4821,-2.4821,-2.4821,-2.4821,-2.4821,-2.4821,-2.4821,-2.4821,-2.4821,-2.4821,-2.4821,-2.4821,-2.4821,-2.4821,-2.4821,-2.4821,-2.4821,-2.4821,-2.4821,-2.4821,-2.4821,-2.4072,-2.3384,-2.3384,-2.1494,-1.9659,-1.9659,-1.8512,-1.7485,-1.7485,-1.7485,-1.7543,-1.7602,-1.7543,-1.7543,-1.7602,-1.7543,-1.7485,-1.7485,-1.7485,-1.7485,-1.7485,-1.7974,-1.8511,-1.9036,-1.9078,-1.9078,-1.9078,-1.9078,-1.9078,-1.9078,-1.9078,-1.9078,-1.9078,-1.9078,-1.9078,-1.9078,-1.9078,-1.9078,-1.9078,-1.9078,-1.9078,-1.9078,-1.9078,-1.9078,-1.9078,-1.9078,-1.9078,-1.9078,-1.9078,-1.9078,-1.9078,-1.9078,-1.9078,-1.9078,-2.6254,-2.6136,-2.6072,-2.5907,-2.5789,-2.5624,-2.5514,-2.5459,-2.5348,-2.5072,-2.5017,-2.497,-2.4821,-2.4821,-2.4868,-2.5026,-2.5017,-2.5017,-2.5017,-2.4868,-2.4821,-2.4821,-2.4821,-2.4821,-2.4821,-2.4821,-2.4821,-2.4821,-2.4821,-2.4821,-2.4821,-2.4821,-2.4821,-2.4821,-2.4821,-2.4821,-2.4821,-2.4821,-2.4821,-2.4821,-2.4821,-2.4821,-2.4821,-2.4821,-2.4821,-2.4821,-2.4821,-2.4821,-2.4821,-2.4821,-2.4821,-2.4821,-2.4821,-2.4821,-2.4821,-2.4821,-2.4821,-2.4821,-2.4821,-2.4821,-2.4821,-2.4821,-2.3432,-2.2225,-2.2862,-2.1095,-1.9325,-1.9325,-1.8344,-1.7485,-1.7485,-1.7485,-1.7485,-1.7485,-1.7485,-1.7485,-1.7485,-1.7485,-1.7485,-1.7485,-1.7485,-1.7581,-1.7847,-1.8131,-1.8511,-1.9036,-1.9078,-1.9078,-1.9078,-1.9078,-1.9078,-1.9078,-1.9078,-1.9078,-1.9078,-1.9078,-1.9078,-1.9078,-1.9078,-1.9078,-1.9078,-1.9078,-1.9078,-1.9078,-1.9078,-1.9078,-1.9078,-1.9078,-1.9078,-1.9078,-1.9078,-1.9078,-1.9078,-1.9078,-1.9078,-1.9078,-2.5852,-2.5844,-2.5898,-2.5624,-2.5578,-2.5459,-2.5174,-2.5119,-2.5072,-2.4821,-2.4821,-2.4821,-2.4821,-2.4821,-2.4821,-2.4821,-2.4821,-2.4821,-2.4821,-2.4821,-2.4821,-2.4821,-2.4821,-2.4821,-2.4821,-2.4821,-2.4821,-2.4821,-2.4821,-2.4821,-2.4821,-2.4821,-2.4821,-2.4821,-2.4821,-2.4821,-2.4821,-2.4821,-2.4821,-2.4821,-2.4821,-2.4821,-2.4821,-2.4821,-2.4821,-2.4821,-2.4821,-2.4821,-2.4821,-2.4821,-2.4821,-2.4821,-2.4821,-2.4821,-2.4821,-2.4821,-2.4821,-2.4821,-2.4821,-2.4821,-2.4765,-2.4535,-2.2797,-2.1301,-2.2176,-2.0637,-1.8978,-1.8978,-1.8175,-1.7485,-1.7485,-1.7485,-1.7485,-1.7485,-1.7485,-1.7485,-1.7485,-1.7485,-1.7485,-1.7485,-1.7485,-1.7696,-1.8239,-1.8294,-1.8511,-1.9036,-1.9078,-1.9078,-1.9078,-1.9078,-1.9078,-1.9078,-1.9078,-1.9078,-1.9078,-1.9078,-1.9078,-1.9078,-1.9078,-1.9078,-1.9078,-1.9078,-1.9078,-1.9078,-1.9078,-1.9078,-1.9078,-1.9078,-1.9078,-1.9078,-1.9078,-1.9078,-1.9078,-1.9078,-1.9078,-1.9078,-2.6072,-2.567,-2.5331,-2.5276,-2.5081,-2.4932,-2.4868,-2.4868,-2.4812,-2.4821,-2.4821,-2.4821,-2.4821,-2.4821,-2.4821,-2.4821,-2.4821,-2.4821,-2.4821,-2.4821,-2.4821,-2.4821,-2.4821,-2.4821,-2.4821,-2.4821,-2.4821,-2.4821,-2.4821,-2.4821,-2.4821,-2.4821,-2.4821,-2.4821,-2.4821,-2.4821,-2.4821,-2.4821,-2.4821,-2.4821,-2.4821,-2.4821,-2.4821,-2.4821,-2.4821,-2.4821,-2.4821,-2.4821,-2.4821,-2.4821,-2.4821,-2.4821,-2.4821,-2.4821,-2.4821,-2.4821,-2.4821,-2.4821,-2.4821,-2.4821,-2.4535,-2.3496,-2.2168,-2.0845,-2.0005,-1.8752,-1.7713,-1.7713,-1.7596,-1.7485,-1.7485,-1.7485,-1.7485,-1.7485,-1.7485,-1.7485,-1.7485,-1.7485,-1.7485,-1.7485,-1.7485,-1.7696,-1.8239,-1.8294,-1.8511,-1.9036,-1.9078,-1.9078,-1.9078,-1.9078,-1.9078,-1.9078,-1.9078,-1.9078,-1.9078,-1.9078,-1.9078,-1.9078,-1.9078,-1.9078,-1.9078,-1.9078,-1.9078,-1.9078,-1.9078,-1.9078,-1.9078,-1.9078,-1.9078,-1.9078,-1.9078,-1.9078,-1.9078,-1.9078,-1.9078,-1.9078,-2.5412,-2.5293,-2.5174,-2.5026,-2.4868,-2.4821,-2.4821,-2.4821,-2.4821,-2.4821,-2.4821,-2.4821,-2.4821,-2.4821,-2.4821,-2.4821,-2.4821,-2.4821,-2.4821,-2.4821,-2.4821,-2.4821,-2.4821,-2.4821,-2.4821,-2.4821,-2.4821,-2.4821,-2.4821,-2.4821,-2.4821,-2.4821,-2.4821,-2.4821,-2.4821,-2.4821,-2.4821,-2.4821,-2.4821,-2.4821,-2.4821,-2.4821,-2.4821,-2.4821,-2.4821,-2.4821,-2.4821,-2.4821,-2.4821,-2.4821,-2.4821,-2.4821,-2.4821,-2.4821,-2.4821,-2.4821,-2.4821,-2.4821,-2.4821,-2.4303,-2.3672,-2.3151,-2.1544,-1.9947,-1.9435,-1.8344,-1.7485,-1.7485,-1.7485,-1.7485,-1.7485,-1.7485,-1.7485,-1.7485,-1.7485,-1.7485,-1.7485,-1.7485,-1.7485,-1.7485,-1.7485,-1.7696,-1.8239,-1.8294,-1.8511,-1.9036,-1.9078,-1.9078,-1.9078,-1.9078,-1.9078,-1.9078,-1.9078,-1.9078,-1.9078,-1.9078,-1.9078,-1.9078,-1.9078,-1.9078,-1.9078,-1.9078,-1.9078,-1.9078,-1.9078,-1.9078,-1.9078,-1.9078,-1.9078,-1.9078,-1.9078,-1.9078,-1.9078,-1.9078,-1.9078,-1.9078]}]]